     2              OBSERVATION DATA    GPS                 RINEX VERSION / TYPE
teqc 1997Sep10 19971010 23:13:15UTC                         PGM / RUN BY / DATE
                                                            COMMENT
Original Marker Name: 1104                                  COMMENT
Campaign Name: NGS Salton Trough 1991                       COMMENT
4-Character Station Name: 1104                              COMMENT
6-Character Antenna Code: TRMSST                            COMMENT
Vertical Measurement Point: BGP                             COMMENT
Vertical Offset to Rinex Ref. Point: 0.0597                 COMMENT
Radial Measurement Point: NGP                               COMMENT
Radial Offset to Rinex Ref. Point: 0.2334                   COMMENT
Antenna Height from Field Measurement: 1.6500 m             COMMENT
Original XYZ: -2294638.5048 -4858058.2138 3425645.0968      COMMENT
New XYZ position is based on association with SCEC monument COMMENT
E1C9N0B2+0011. Position of that monument is believed to be  COMMENT
valid to within 1 m horizontally; vertical accuracy         COMMENT
should be no worse than 3-times this value.                 COMMENT
                                                            COMMENT
Revised Rinex header created by UCSD GPS archive for        COMMENT
GSAC on 12-Apr-1999 (1999:102) 00:45:45 GMT                 COMMENT
For assistance contact dagnew@ucsd.edu or hjohnson@ucsd.edu COMMENT
                                                            COMMENT
HPGN CALIF STA 11-04 1990                                   MARKER NAME
unknown NATIONAL GEODETIC SURVEY                            OBSERVER / AGENCY
483 TRIMBLE 4000 SST NP 4.30 / SP 4.20                      REC # / TYPE / VERS
19 TR 4000SST L1/L2 GEO                                     ANT # / TYPE
 -2294645.0000 -4858067.0000  3425649.0000                  APPROX POSITION XYZ
        1.5737        0.0000        0.0000                  ANTENNA: DELTA H/E/N
     1     1     0                                          WAVELENGTH FACT L1/2
     3    C1    L1    L2                                    # / TYPES OF OBSERV
     0                                                      INTERVAL
  1991     3    27    21    43   45.000000                  TIME OF FIRST OBS
  1991     3    28     3    13   60.000000                  TIME OF LAST OBS
     0                                                      # OF SATELLITES
                                                            END OF HEADER
 91  3 27 21 43 45.0000000  0  4G18G 2G11G19
  20414694.414          -0.12818        -0.45632
  23787635.3834         -0.57255        -0.07171
  23364301.664          -0.69816        -0.04731
  20864632.859          -0.20916        -0.43232
 91  3 27 21 44  0.0000000  0  4G18G 2G11G19
  20417863.2974      16659.68048     12981.18862
  23779331.2894     -43627.39145    -33994.68261
  23359070.7194     -27497.22946    -21425.85061
  20864083.5234      -2901.91346     -2261.47762
 91  3 27 21 44 15.0000000  0  4G18G 2G11G19
  20421045.719       33379.309 8     26009.44122
  23771029.406      -87264.037 5    -67996.96921
  23353845.1724     -54950.24546    -42817.77961
  20863527.5634      -5822.85846     -4537.50862
 91  3 27 21 44 30.0000000  0  4G18G 2G11G19
  20424239.945       50165.962 8     39089.92822
  23762725.258     -130902.984 5   -102001.00921
  23348630.844      -82352.156 6    -64169.86521
  20862966.3594      -8755.74147     -6822.84962
 91  3 27 21 44 45.0000000  0  4G18G 2G11G19
  20427448.805       67029.132 8     52230.04422
  23754421.641     -174534.664 5   -135999.45721
  23343426.617     -109693.140 6    -85474.47021
  20862407.6414     -11691.17346     -9110.17062
 91  3 27 21 45  0.0000000  0  4G18G 2G11G19
  20430673.484       83970.245 8     65430.89022
  23746120.3524    -218157.43945   -169990.93261
  23338237.1564    -136971.47146   -106730.24661
  20861849.992      -14627.745 6    -11398.37922
 91  3 27 21 45 15.0000000  0  4G18G 2G11G19
  20433911.9534     100992.62048     78695.05362
  23737817.1564    -261767.91145   -203972.80361
  23333058.7194    -164183.38646   -127934.27361
  20861292.7424     -17562.13046    -13684.88362
 91  3 27 21 45 30.0000000  0  4G18G 2G11G19
  20437167.977      118096.137 8     92022.44423
  23729522.8754    -305365.92245   -237944.94661
  23327892.5944    -191328.46946   -149086.24361
  20860733.0554     -20494.30346    -15969.66563
 91  3 27 21 45 45.0000000  0  4G18G 2G11G19
  20440438.570      135291.516 8    105421.42223
  23721232.1334    -348940.61345   -271899.00961
  23322739.5004    -218395.77846   -170177.61361
  20860178.1174     -23413.55846    -18244.37362
 91  3 27 21 46  0.0000000  0  4G18G 2G11G19
  20443728.039      152576.000 8    118889.82623
  23712945.758     -392494.743 5   -305836.97421
  23317605.039     -245387.803 6   -191210.30321
  20859623.2034     -26322.93247    -20511.38962
 91  3 27 21 46 15.0000000  0  4G18G 2G11G19
  20447034.219      169947.279 8    132425.86123
  23704662.5234    -436030.53845   -339760.63261
  23312482.0084    -272306.48046   -212185.82361
  20859072.7894     -29224.72546    -22772.49362
 91  3 27 21 46 30.0000000  0  4G18G 2G11G19
  20450356.164      187410.095 8    146033.22723
  23696379.664     -479542.641 5   -373665.87721
  23307374.8914    -299146.36346   -233099.96761
  20858524.1414     -32113.81646    -25023.70362
 91  3 27 21 46 45.0000000  0  4G18G 2G11G19
  20453697.0314     204961.19448    159709.37963
  23688101.5864    -523034.39245   -407555.25561
  23302284.1804    -325910.47546   -253955.08161
  20857973.8984     -34993.54146    -27267.61562
 91  3 27 21 47  0.0000000  0  4G18G 2G11G19
  20457053.531      222601.504 8    173455.05723
  23679830.516     -566504.873 5   -441428.07621
  23297205.891     -352597.881 6   -274750.40821
  20857426.4384     -37863.29947    -29503.76462
 91  3 27 21 47 15.0000000  0  4G18G 2G11G19
  20460427.031      240330.996 8    187270.22423
  23671562.2974    -609953.73345   -475284.00461
  23292137.9304    -379207.82846   -295485.37061
  20856884.7114     -40722.64747    -31731.79862
 91  3 27 21 47 30.0000000  0  4G18G 2G11G19
  20463817.367      258147.632 8    201153.29223
  23663297.148     -653382.759 5   -509124.53421
  23287092.4454    -405742.01146   -316161.30461
  20856340.992      -43573.684 7    -33953.35822
 91  3 27 21 47 45.0000000  0  4G18G 2G11G19
  20467225.367      276057.232 8    215108.80223
  23655041.0474    -696786.33145   -542945.22761
  23282055.2894    -432194.66446   -336773.69961
  20855803.2894     -46410.84047    -36164.09862
 91  3 27 21 48  0.0000000  0  4G18G 2G11G19
  20470650.867      294058.434 7    229135.68823
  23646785.344     -740165.529 5   -576746.87121
  23277037.172     -458566.671 6   -357323.26221
  20855264.6564     -49235.49347    -38365.09362
 91  3 27 21 48 15.0000000  0  4G18G 2G11G19
  20474093.516      312149.113 8    243232.30022
  23638528.828     -783521.955 5   -610530.83521
  23272036.7894    -484859.36046   -377811.02661
  20854731.2194     -52049.50547    -40557.79663
 91  3 27 21 48 30.0000000  0  4G18G 2G11G19
  20477552.914      330326.469 8    257396.45323
  23630286.2114    -826858.66045   -644299.40561
  23267046.672     -511075.599 6   -398239.21621
  20854192.938      -54855.912 7    -42744.58222
 91  3 27 21 48 45.0000000  0  4G18G 2G11G19
  20481027.133      348589.321 8    271627.22723
  23622042.523     -870176.313 5   -678053.12421
  23262072.9304    -537215.88546   -418608.19161
  20853663.4924     -57655.40147    -44925.97362
 91  3 27 21 49  0.0000000  0  4G18G 2G11G19
  20484519.727      366939.039 8    285925.69023
  23613801.602     -913473.848 5   -711791.16721
  23257112.188     -563278.941 6   -438917.01421
  20853130.703      -60447.067 7    -47101.27222
 91  3 27 21 49 15.0000000  0  4G18G 2G11G19
  20488029.375      385378.851 8    300294.35223
  23605571.2194    -956747.65745   -745510.75461
  23252168.8134    -589261.05046   -459162.76561
  20852602.1564     -63227.59847    -49267.88662
 91  3 27 21 49 30.0000000  0  4G18G 2G11G19
  20491553.625      403898.563 8    314725.27423
  23597338.0634   -1000007.61145   -779219.51761
  23247237.969     -615171.831 6   -479352.93621
  20852073.250      -66007.007 7    -51433.63622
 91  3 27 21 49 45.0000000  0  4G18G 2G11G19
  20495091.328      422495.653 8    329216.49023
  23589104.477    -1043256.093 5   -812919.36621
  23242319.672     -641013.499 6   -499489.25121
  20851541.938      -68787.871 6    -53600.51422
 91  3 27 21 50  0.0000000  0  4G18G 2G11G19
  20498645.172      441166.154 8    343764.91523
  23580876.055    -1086497.019 5   -846613.29821
  23237412.875     -666789.739 6   -519574.55321
  20851012.9454     -71574.07747    -55771.56062
 91  3 27 21 50 15.0000000  0  4G18G 2G11G19
  20502213.219      459915.268 8    358374.59723
  23572648.3284   -1129724.78045   -880297.00961
  23232523.5164    -692494.78546   -539604.41961
  20850483.1414     -74360.11946    -57942.47262
 91  3 27 21 50 30.0000000  0  4G18G 2G11G19
  20505797.844      478750.431 8    373051.32823
  23564429.6804   -1172931.77245   -913964.50461
  23227644.0234    -718120.81846   -559572.72661
  20849955.5784     -77138.73746    -60107.60162
 91  3 27 21 50 45.0000000  0  4G18G 2G11G19
  20509396.625      497666.806 8    387791.34023
  23556209.2424   -1216122.84845   -947619.62461
  23222783.203     -743672.578 6   -579483.11121
  20849427.7194     -79914.73546    -62270.68962
 91  3 27 21 51  0.0000000  0  4G18G 2G11G19
  20513012.063      516660.766 8    402591.81023
  23547991.9614   -1259301.13145   -981264.75961
  23217934.281     -769152.947 6   -599337.89721
  20848895.8914     -82691.59647    -64434.44863
 91  3 27 21 51 15.0000000  0  4G18G 2G11G19
  20516641.742      535738.781 8    417457.77023
  23539778.0634   -1302460.23045  -1014894.97861
  23213098.086     -794555.328 6   -619131.92621
  20848370.0314     -85463.02646    -66593.97262
 91  3 27 21 51 30.0000000  0  4G18G 2G11G19
  20520288.797      554902.787 8    432390.74323
  23531571.016    -1345598.129 5  -1048508.63821
  23208282.0554    -819877.45146   -638863.39061
  20847845.0634     -88226.99146    -68747.68262
 91  3 27 21 51 45.0000000  0  4G18G 2G11G19
  20523949.711      574145.968 8    447385.40423
  23523367.016    -1388721.180 5  -1082110.75421
  23203477.5474    -845125.63246   -658537.26461
  20847317.5784     -90990.16746    -70900.77762
 91  3 27 21 52  0.0000000  0  4G18G 2G11G19
  20527627.664      593469.626 8    462442.77523
  23515160.7344   -1431827.97145  -1115700.20861
  23198688.523     -870298.269 6   -678152.24921
  20846791.7664     -93751.20947    -73052.21462
 91  3 27 21 52 15.0000000  0  4G18G 2G11G19
  20531318.617      612874.091 8    477563.11223
  23506959.719    -1474918.181 5  -1149276.71521
  23193912.5704    -895394.66346   -697707.81861
  20846270.6484     -96509.78747    -75201.72362
 91  3 27 21 52 30.0000000  0  4G18G 2G11G19
  20535028.4774     632358.44748    492745.70163
  23498765.8834   -1517992.86946  -1182841.13761
  23189151.8754    -920415.63846   -717204.64661
  20845745.234      -99267.038 6    -77350.20622
 91  3 27 21 52 45.0000000  0  4G18G 2G11G19
  20538750.758      651923.017 8    507990.79623
  23490570.086    -1561051.272 5  -1216392.88821
  23184403.703     -945360.326 6   -736642.01621
  20845219.8284    -102022.26347    -79497.10662
 91  3 27 21 53  0.0000000  0  4G18G 2G11G19
  20542489.4844     671567.24248    523297.95463
  23482381.6954   -1604093.60445  -1249932.10061
  23179672.383     -970228.780 6   -756019.98021
  20844692.6644    -104775.96147    -81642.81362
 91  3 27 21 53 15.0000000  0  4G18G 2G11G19
  20546242.477      691289.502 8    538665.92823
  23474192.1724   -1647121.25245  -1283459.86861
  23174953.078     -995022.402 6   -775339.64421
  20844171.4924    -107530.00346    -83788.78862
 91  3 27 21 53 30.0000000  0  4G18G 2G11G19
  20550011.039      711096.954 8    554100.27923
  23466007.414    -1690126.863 5  -1316970.46721
  23170250.7814   -1019733.47846   -794594.95561
  20843646.6414    -110276.95547    -85929.23962
 91  3 27 21 53 45.0000000  0  4G18G 2G11G19
  20553797.375      730990.390 8    569601.63123
  23457827.930    -1733109.499 5  -1350463.18821
  23165562.7664   -1044360.88046   -813785.08461
  20843126.5864    -113015.99246    -88063.52663
 91  3 27 21 54  0.0000000  0  4G18G 2G11G19
  20557599.906      750970.105 8    585170.21723
  23449653.469    -1776068.825 5  -1383937.72421
  23160891.648    -1068904.015 6   -832909.59921
  20842604.125     -115746.732 7    -90191.34923
 91  3 27 21 54 15.0000000  0  4G18G 2G11G19
  20561417.0554     771033.67648    600804.13963
  23441482.148    -1819007.066 5  -1417395.84421
  23156241.523    -1093364.898 6   -851969.95521
  20842088.5784    -118471.32146    -92314.37062
 91  3 27 21 54 30.0000000  0  4G18G 2G11G19
  20565251.008      791181.522 8    616503.73123
  23433315.531    -1861923.798 5  -1450837.17821
  23151602.336    -1117742.963 6   -870965.80821
  20841571.4064    -121189.79646    -94432.63762
 91  3 27 21 54 45.0000000  0  4G18G 2G11G19
  20569102.2814     811414.28048    632269.49463
  23425152.367    -1904818.002 5  -1484260.98821
  23146976.8284   -1142037.14646   -889896.30061
  20841055.461     -123901.386 6    -96545.54122
 91  3 27 21 55  0.0000000  0  4G18G 2G11G19
  20572969.023      831730.523 8    648100.30623
  23416994.711    -1947690.697 6  -1517668.05921
  23142370.8754   -1166248.36846   -908762.12661
  20840538.0944    -126607.21946    -98653.95563
 91  3 27 21 55 15.0000000  0  4G18G 2G11G19
  20576848.9774     852133.61648    663998.79163
  23408839.570    -1990538.500 6  -1551055.68121
  23137778.0084   -1190372.93946   -927560.43161
  20840026.7504    -129303.71946   -100755.08462
 91  3 27 21 55 30.0000000  0  4G18G 2G11G19
  20580749.313      872623.855 8    679965.18023
  23400688.9694   -2033360.97946  -1584423.60961
  23133204.6954   -1214410.28846   -946290.79161
  20839516.2504    -131990.77646   -102848.86962
 91  3 27 21 55 45.0000000  0  4G18G 2G11G19
  20584663.4064     893197.29548    695996.40563
  23392546.0234   -2076161.88646  -1617774.71961
  23128647.273    -1238363.979 6   -964955.96521
  20839004.680     -134672.298 6   -104938.34222
 91  3 27 21 56  0.0000000  0  4G18G 2G11G19
  20588594.781      913855.702 8    712093.83723
  23384405.6954   -2118939.09546  -1651107.35461
  23124104.7894   -1262231.75746   -983554.17361
  20838497.1334    -137346.43547   -107022.07362
 91  3 27 21 56 15.0000000  0  4G18G 2G11G19
  20592542.5314     934596.66948    728255.60363
  23376266.8834   -2161695.09546  -1684423.47861
  23119578.203    -1286015.715 6  -1002087.06721
  20837989.5164    -140015.50646   -109101.82362
 91  3 27 21 56 30.0000000  0  4G18G 2G11G19
  20596506.0704     955422.32748    744483.35863
  23368135.2894   -2204427.52546  -1717721.21661
  23115069.273    -1309713.472 6  -1020552.81321
  20837482.0234    -142677.14446   -111175.80662
 91  3 27 21 56 45.0000000  0  4G18G 2G11G19
  20600486.055      976337.160 8    760780.61023
  23360011.5474   -2247131.57446  -1750996.88361
  23110574.9534   -1333319.98046  -1038947.45661
  20836978.9224    -145326.89547   -113240.51362
 91  3 27 21 57  0.0000000  0  4G18G 2G11G19
  20604482.0234     997339.21248    777145.81763
  23351890.000    -2289809.187 6  -1784251.89921
  23106101.680    -1356837.042 6  -1057272.38721
  20836475.328     -147966.872 7   -115297.61822
 91  3 27 21 57 15.0000000  0  4G18G 2G11G19
  20608496.0704    1018429.89348    793580.08663
  23343768.8444   -2332458.38945  -1817484.80861
  23101645.188    -1380262.637 6  -1075526.05021
  20835975.641     -150595.264 7   -117345.69322
 91  3 27 21 57 30.0000000  0  4G18G 2G11G19
  20612525.7034    1039604.70648    810079.91163
  23335661.484    -2375083.782 6  -1850699.16421
  23097202.4614   -1403600.95946  -1093711.69961
  20835477.703     -153216.538 7   -119388.22422
 91  3 27 21 57 45.0000000  0  4G18G 2G11G19
  20616571.9144    1060868.45248    826649.03463
  23327553.6954   -2417680.41845  -1883891.12461
  23092779.055    -1426846.742 6  -1111825.24921
  20834980.9144    -155825.63947   -121421.26562
 91  3 27 21 58  0.0000000  0  4G18G 2G11G19
  20620634.8364    1082220.80048    843287.19563
  23319455.9614   -2460248.49746  -1917060.79961
  23088373.8834   -1450000.18646  -1129866.85861
  20834486.172     -158423.238 7   -123445.34722
 91  3 27 21 58 15.0000000  0  4G18G 2G11G19
  20624713.8204    1103653.61348    859988.05363
  23311357.359    -2502795.796 6  -1950214.32721
  23083984.242    -1473068.990 6  -1147842.51021
  20833993.258     -161017.478 7   -125466.81022
 91  3 27 21 58 30.0000000  0  4G18G 2G11G19
  20628808.5234    1125174.81148    876757.78863
  23303267.3674   -2545314.22346  -1983345.33061
  23079613.836    -1496044.808 6  -1165745.69521
  20833499.836     -163600.110 7   -127479.23022
 91  3 27 21 58 45.0000000  0  4G18G 2G11G19
  20632921.3594    1146785.34548    893597.13363
  23295182.180    -2587802.668 6  -2016452.95821
  23075257.742    -1518926.529 6  -1183575.56121
  20833012.8674    -166170.07647   -129481.77962
 91  3 27 21 59  0.0000000  0  4G18G 2G11G19
  20637050.9614    1168486.25648    910506.90863
  23287102.883    -2630259.635 6  -2049536.08021
  23070919.234    -1541712.466 6  -1201330.77321
  20832526.438     -168726.119 7   -131473.48122
 91  3 27 21 59 15.0000000  0  4G18G 2G11G19
  20641197.2584    1190274.19647    927484.49463
  23279029.2664   -2672688.36346  -2082597.19761
  23066601.727    -1564405.680 6  -1219013.76821
  20832041.977     -171271.604 7   -133456.95522
 91  3 27 21 59 30.0000000  0  4G18G 2G11G19
  20645360.3594    1212151.93947    944532.05663
  23270963.078    -2715085.823 6  -2115633.92621
  23062302.6024   -1587002.90446  -1236621.96361
  20831558.852     -173803.595 7   -135429.91522
 91  3 27 21 59 45.0000000  0  4G18G 2G11G19
  20649540.6094    1234120.81447    961650.63063
  23262898.664    -2757450.855 6  -2148645.41521
  23058021.5864   -1609502.73346  -1254154.22961
  20831081.039     -176320.837 7   -137391.37922
 91  3 27 22  0  0.0000000  0  4G18G 2G11G19
  20653738.789     1256182.758 7    978841.73023
  23254842.6174   -2799781.51346  -2181630.10261
  23053759.695    -1631902.808 6  -1271608.80221
  20830604.563     -178821.441 7   -139339.88222
 91  3 27 22  0 15.0000000  0  4G18G 2G11G19
  20657955.492     1278338.448 7    996105.87923
  23246793.148    -2842076.611 6  -2214587.07421
  23049514.438    -1654202.014 6  -1288984.76521
  20830130.688     -181304.482 7   -141274.69322
 91  3 27 22  0 30.0000000  0  4G18G 2G11G19
  20662189.336     1300589.294 7   1013444.17123
  23238754.3134   -2884334.64846  -2247515.17061
  23045290.1024   -1676398.91646  -1306280.98861
  20829662.891     -183768.764 7   -143194.89222
 91  3 27 22  0 45.0000000  0  4G18G 2G11G19
  20666440.8284    1322936.12347   1030857.25463
  23230719.664    -2926554.213 6  -2280413.31621
  23041087.242    -1698491.878 6  -1323496.26321
  20829196.719     -186212.753 7   -145099.27822
 91  3 27 22  1  0.0000000  0  4G18G 2G11G19
  20670711.8754    1345377.05647   1048343.67063
  23222691.4224   -2968736.98146  -2313282.75061
  23036901.445    -1720482.404 6  -1340631.70121
  20828734.867     -188638.381 7   -146989.35922
 91  3 27 22  1 15.0000000  0  4G18G 2G11G19
  20675000.328     1367914.389 7   1065905.20623
  23214670.898    -3010880.750 6  -2346121.83721
  23032735.9844   -1742368.05346  -1357685.37961
  20828276.773     -191043.568 7   -148863.51122
 91  3 27 22  1 30.0000000  0  4G18G 2G11G19
  20679308.000     1390549.376 7   1083542.83323
  23206658.977    -3052984.119 6  -2378929.42021
  23028593.4844   -1764147.27546  -1374656.17261
  20827823.727     -193426.827 7   -150720.58122
 91  3 27 22  1 45.0000000  0  4G18G 2G11G19
  20683635.320     1413287.011 7   1101260.44823
  23198656.8834   -3095041.89746  -2411701.48461
  23024469.4924   -1785814.74946  -1391539.88961
  20827375.563     -195782.916 7   -152556.47222
 91  3 27 22  2  0.0000000  0  4G18G 2G11G19
  20687981.1024    1436127.19847   1119057.96463
  23190661.3054   -3137053.87546  -2444437.85061
  23020369.391    -1807369.959 6  -1408336.10421
  20826933.289     -198111.904 7   -154371.24922
 91  3 27 22  2 15.0000000  0  4G18G 2G11G19
  20692348.078     1459070.655 7   1136935.95923
  23182675.1094   -3179019.01946  -2477137.75361
  23016285.5474   -1828811.68746  -1425043.90461
  20826495.969     -200412.929 7   -156164.24122
 91  3 27 22  2 30.0000000  0  4G18G 2G11G19
  20696731.2814    1482115.78247   1154893.17263
  23174698.031    -3220938.665 6  -2509802.17221
  23012229.898    -1850141.275 6  -1441664.31721
  20826062.758     -202687.481 7   -157936.60522
 91  3 27 22  2 45.0000000  0  4G18G 2G11G19
  20701136.781     1505264.153 7   1172930.83523
  23166729.3364   -3262811.21046  -2542429.92561
  23008192.117    -1871356.855 6  -1458195.89321
  20825634.367     -204933.874 7   -159687.02422
 91  3 27 22  3  0.0000000  0  4G18G 2G11G19
  20705562.5394    1528513.77447   1191047.39663
  23158767.3364   -3304638.56746  -2575022.46961
  23004175.5084   -1892460.10746  -1474639.95961
  20825215.461     -207154.233 6   -161417.15922
 91  3 27 22  3 15.0000000  0  4G18G 2G11G19
  20710007.0164    1551867.62047   1209245.17163
  23150819.789    -3346417.536 6  -2607577.26821
  23000180.156    -1913447.650 6  -1490993.84021
  20824795.2814    -209345.07547   -163124.29462
 91  3 27 22  3 30.0000000  0  4G18G 2G11G19
  20714474.1174    1575338.64647   1227534.24763
  23142881.3914   -3388134.80746  -2640084.02661
  22996212.3524   -1934306.15246  -1507247.17961
  20824385.883     -211493.443 7   -164798.33022
 91  3 27 22  3 45.0000000  0  4G18G 2G11G19
  20718960.0164    1598917.20747   1245907.11662
  23134953.086    -3429800.055 6  -2672550.25121
  22992265.141    -1955045.147 6  -1523407.37921
  20823983.547     -213609.163 7   -166446.92422
 91  3 27 22  4  0.0000000  0  4G18G 2G11G19
  20723466.6804    1622598.75547   1264360.23663
  23127031.1724   -3471417.49946  -2704979.22661
  22988343.8134   -1975668.76146  -1539477.68761
  20823586.875     -215696.608 7   -168073.48922
 91  3 27 22  4 15.0000000  0  4G18G 2G11G19
  20727991.1884    1646380.15147   1282891.16363
  23119121.8054   -3512989.98946  -2737373.16161
  22984439.4694   -1996179.60146  -1555460.13261
  20823193.328     -217758.595 7   -169680.21422
 91  3 27 22  4 30.0000000  0  4G18G 2G11G19
  20732538.8914    1670268.79648   1301505.66562
  23111216.8754   -3554509.90046  -2769726.12461
  22980557.555    -2016569.959 6  -1571348.67421
  20822807.375     -219787.686 7   -171261.30422
 91  3 27 22  4 45.0000000  0  4G18G 2G11G19
  20737102.4384    1694259.91547   1320200.01162
  23103328.414    -3595981.801 6  -2802041.69921
  22976699.8054   -2036844.10146  -1587146.66461
  20822427.102     -221788.636 7   -172820.46822
 91  3 27 22  5  0.0000000  0  4G18G 2G11G19
  20741687.3914    1718354.60247   1338975.05462
  23095444.7584   -3637404.48246  -2834318.92961
  22972864.5554   -2057000.69246  -1602853.06761
  20822054.766     -223760.196 6   -174356.73622
 91  3 27 22  5 15.0000000  0  4G18G 2G11G19
  20746292.4304    1742551.61547   1357829.83962
  23087573.219    -3678778.973 6  -2866558.59021
  22969052.7974   -2077040.57146  -1618468.51861
  20821680.8674    -225703.41147   -175870.91662
 91  3 27 22  5 30.0000000  0  4G18G 2G11G19
  20750914.7734    1766849.09347   1376762.90462
  23079708.7974   -3720106.77346  -2898761.87661
  22965260.0784   -2096965.17246  -1633994.14861
  20821317.8754    -227620.17347   -177364.48762
 91  3 27 22  5 45.0000000  0  4G18G 2G11G19
  20755559.6564    1791251.15447   1395777.47262
  23071852.8674   -3761383.46746  -2930925.33861
  22961490.7034   -2116769.95546  -1649426.41061
  20820958.422     -229505.954 7   -178833.91222
 91  3 27 22  6  0.0000000  0  4G18G 2G11G19
  20760223.4534    1815764.32647   1414878.61162
  23064008.8524   -3802602.69546  -2963044.03661
  22957746.219    -2136448.361 6  -1664760.19621
  20820606.609     -231354.352 7   -180274.20422
 91  3 27 22  6 15.0000000  0  4G18G 2G11G19
  20764909.9454    1840385.70947   1434064.07162
  23056176.0234   -3843767.18746  -2995120.06961
  22954023.3054   -2156002.92146  -1679997.47961
  20820262.3914    -233168.12547   -181687.52462
 91  3 27 22  6 30.0000000  0  4G18G 2G11G19
  20769615.6954    1865112.18847   1453331.42662
  23048349.289    -3884879.596 6  -3027155.53021
  22950327.141    -2175436.241 6  -1695140.28121
  20819922.4064    -234950.22547   -183076.16362
 91  3 27 22  6 45.0000000  0  4G18G 2G11G19
  20774340.4774    1889942.86747   1472679.97662
  23040537.3524   -3925940.65946  -3059150.97361
  22946649.188    -2194748.838 6  -1710189.03521
  20819589.0634    -236701.42746   -184440.72662
 91  3 27 22  7  0.0000000  0  4G18G 2G11G19
  20779086.0634    1914883.70848   1492114.36662
  23032735.8134   -3966944.00246  -3091101.46161
  22943000.1254   -2213934.26146  -1725138.68061
  20819265.1724    -238415.40246   -185776.28262
 91  3 27 22  7 15.0000000  0  4G18G 2G11G19
  20783853.4774    1939931.25848   1511631.90862
  23024941.922    -4007893.182 6  -3123009.70821
  22939374.516    -2232995.825 6  -1739991.82321
  20818943.2734    -240095.81746   -187085.68462
 91  3 27 22  7 30.0000000  0  4G18G 2G11G19
  20788640.9454    1965091.46448   1531237.22863
  23017161.7274   -4048781.91446  -3154870.87861
  22935769.2664   -2251927.28746  -1754743.58561
  20818630.8834    -241736.44846   -188364.08662
 91  3 27 22  7 45.0000000  0  4G18G 2G11G19
  20793448.9774    1990357.73148   1550925.19863
  23009389.7734   -4089616.34046  -3186689.73261
  22932192.078    -2270734.749 6  -1769398.69721
  20818325.367     -243343.602 6   -189616.40022
 91  3 27 22  8  0.0000000  0  4G18G 2G11G19
  20798278.7814    2015735.31448   1570699.90863
  23001631.3444   -4130391.36746  -3218462.29061
  22928638.7344   -2289412.72546  -1783952.93361
  20818028.5704    -244911.91346   -190838.45762
 91  3 27 22  8 15.0000000  0  4G18G 2G11G19
  20803128.5234    2041226.55048   1590563.17463
  22993882.641    -4171104.068 6  -3250186.29121
  22925108.4694   -2307958.19546  -1798403.92161
  20817735.7734    -246438.71746   -192028.15962
 91  3 27 22  8 30.0000000  0  4G18G 2G11G19
  20807999.969     2066825.675 8   1610510.51723
  22986148.102    -4211760.144 6  -3281866.15921
  22921604.6024   -2326376.74846  -1812756.00761
  20817453.0084    -247929.97146   -193190.17162
 91  3 27 22  8 45.0000000  0  4G18G 2G11G19
  20812892.2344    2092530.80648   1630540.45663
  22978420.750    -4252361.609 6  -3313503.46121
  22918122.039    -2344670.247 6  -1827010.64021
  20817175.3284    -249387.70846   -194326.06362
 91  3 27 22  9  0.0000000  0  4G18G 2G11G19
  20817804.6334    2118347.17348   1650657.07163
  22970705.5864   -4292902.77246  -3345093.79061
  22914665.688    -2362832.877 6  -1841163.31521
  20816906.4694    -250806.47346   -195431.58662
 91  3 27 22  9 15.0000000  0  4G18G 2G11G19
  20822738.9614    2144277.01848   1670862.11063
  22963003.375    -4333381.206 6  -3376635.23421
  22911235.852    -2380861.930 6  -1855211.91521
  20816643.0394    -252183.76446   -196504.79562
 91  3 27 22  9 30.0000000  0  4G18G 2G11G19
  20827693.7034    2170315.02047   1691151.42363
  22955310.8134   -4373801.76446  -3408131.58861
  22907829.8284   -2398762.20346  -1869160.13961
  20816387.5004    -253524.42746   -197549.46662
 91  3 27 22  9 45.0000000  0  4G18G 2G11G19
  20832669.5314    2196460.66247   1711524.61863
  22947628.133    -4414164.987 6  -3439583.26421
  22904447.461    -2416534.097 6  -1883008.33721
  20816139.6564    -254829.03446   -198566.04762
 91  3 27 22 10  0.0000000  0  4G18G 2G11G19
  20837664.8524    2222716.09447   1731983.35863
  22939959.5704   -4454468.22646  -3470988.19061
  22901089.8444   -2434174.95446  -1896754.42861
  20815900.148     -256094.981 6   -199552.48922
 91  3 27 22 10 15.0000000  0  4G18G 2G11G19
  20842681.5864    2249080.91047   1752527.33863
  22932301.070    -4494712.110 6  -3502346.87121
  22897758.328    -2451684.957 6  -1910398.56021
  20815664.2344    -257322.91946   -200509.31962
 91  3 27 22 10 30.0000000  0  4G18G 2G11G19
  20847721.6024    2275557.77547   1773158.62563
  22924656.570    -4534893.434 6  -3533656.79221
  22894451.2114   -2469061.12746  -1923938.40461
  20815439.2034    -258510.01646   -201434.32662
 91  3 27 22 10 45.0000000  0  4G18G 2G11G19
  20852779.1024    2302142.84947   1793874.23063
  22917021.445    -4575016.166 6  -3564921.06721
  22891170.8364   -2486307.13846  -1937376.82061
  20815219.2814    -259660.14046   -202330.52962
 91  3 27 22 11  0.0000000  0  4G18G 2G11G19
  20857859.0864    2328835.50747   1814673.67263
  22909396.125    -4615080.390 6  -3596139.73721
  22887913.133    -2503422.967 6  -1950713.80121
  20815007.9534    -260773.40546   -203198.00262
 91  3 27 22 11 15.0000000  0  4G18G 2G11G19
  20862959.8594    2355635.80847   1835556.98663
  22901784.563    -4655085.562 6  -3627312.40021
  22884681.3674   -2520407.94646  -1963948.82161
  20814803.1724    -261849.43646   -204036.46562
 91  3 27 22 11 30.0000000  0  4G18G 2G11G19
  20868078.9144    2382542.65047   1856523.32063
  22894179.6414   -4695033.22846  -3658440.23961
  22881473.7814   -2537263.48246  -1977082.97861
  20814607.4384    -262889.81246   -204847.14662
 91  3 27 22 11 45.0000000  0  4G18G 2G11G19
  20873221.5634    2409563.22447   1877578.27663
  22886590.203    -4734915.530 6  -3689517.13521
  22878291.0704   -2553981.57646  -1990110.02961
  20814414.8594    -263886.61746   -205623.87562
 91  3 27 22 12  0.0000000  0  4G18G 2G11G19
  20878384.4064    2436693.04647   1898718.36163
  22879013.4924   -4774736.89246  -3720546.55661
  22875136.219    -2570566.556 6  -2003033.36021
  20814233.3284    -264844.41046   -206370.20862
 91  3 27 22 12 15.0000000  0  4G18G 2G11G19
  20883566.6484    2463932.43047   1919943.81763
  22871449.313    -4814496.911 6  -3751528.16521
  22872004.922    -2587017.807 6  -2015852.51321
  20814057.5944    -265762.84446   -207085.86762
 91  3 27 22 12 30.0000000  0  4G18G 2G11G19
  20888772.4924    2491282.45347   1941255.48363
  22863891.688    -4854194.232 6  -3782460.92621
  22868899.8754   -2603333.79946  -2028566.22561
  20813892.9384    -266640.76046   -207769.96762
 91  3 27 22 12 45.0000000  0  4G18G 2G11G19
  20893997.3984    2518740.11847   1962651.02763
  22856349.891    -4893831.398 6  -3813346.81221
  22865820.0864   -2619517.09546  -2041176.55561
  20813732.2034    -267480.57246   -208424.35862
 91  3 27 22 13  0.0000000  0  4G18G 2G11G19
  20899242.7894    2546306.64247   1984131.40163
  22848819.852    -4933407.134 6  -3844184.82121
  22862766.273    -2635566.344 6  -2053682.44321
  20813578.6884    -268281.17746   -209048.20362
 91  3 27 22 13 15.0000000  0  4G18G 2G11G19
  20904510.4224    2573982.06847   2005696.63663
  22841300.789    -4972921.063 6  -3874974.66221
  22859738.406    -2651480.943 6  -2066083.40821
  20813434.4694    -269042.12846   -209641.14562
 91  3 27 22 13 30.0000000  0  4G18G 2G11G19
  20909796.3914    2601769.17047   2027348.88863
  22833791.773    -5012370.241 6  -3905714.05821
  22856735.063    -2667257.784 6  -2078377.00821
  20813299.0084    -269760.65446   -210201.03162
 91  3 27 22 13 45.0000000  0  4G18G 2G11G19
  20915105.5234    2629669.29147   2049089.20163
  22826298.4064   -5051752.73246  -3936401.50361
  22853760.4924   -2682895.01146  -2090561.82461
  20813169.5394    -270434.94646   -210726.44362
 91  3 27 22 14  0.0000000  0  4G18G 2G11G19
  20920437.7734    2657680.89647   2070916.39063
  22818815.4924   -5091070.29946  -3967038.36461
  22850810.250    -2698394.069 6  -2102638.99021
  20813049.4844    -271066.61146   -211218.64562
 91  3 27 22 14 15.0000000  0  4G18G 2G11G19
  20925787.7424    2685803.43347   2092830.01963
  22811345.3134   -5130323.26746  -3997624.87961
  22847887.8674   -2713755.09446  -2114608.59461
  20812938.0314    -271656.09046   -211677.97162
 91  3 27 22 14 30.0000000  0  4G18G 2G11G19
  20931160.9614    2714037.46647   2114830.53163
  22803890.1804   -5169511.05746  -4028160.62961
  22844990.7894   -2728977.29446  -2126470.01861
  20812834.5554    -272202.63046   -212103.84262
 91  3 27 22 14 45.0000000  0  4G18G 2G11G19
  20936554.6484    2742382.40747   2136917.45863
  22796445.789    -5208633.857 6  -4058645.73821
  22842121.328    -2744060.900 6  -2138223.44721
  20812737.4924    -272706.52746   -212496.48462
 91  3 27 22 15  0.0000000  0  4G18G 2G11G19
  20941968.609     2770836.490 7   2159089.43223
  22789012.766    -5247693.322 6  -4089081.49421
  22839276.758    -2759007.559 6  -2149870.18121
  20812649.2734    -273169.74546   -212857.42562
 91  3 27 22 15 15.0000000  0  4G18G 2G11G19
  20947406.8204    2799399.14147   2181346.00663
  22781591.9064   -5286689.42646  -4119467.89261
  22836456.9844   -2773817.05446  -2161410.02261
  20812569.7664    -273592.24746   -213186.63562
 91  3 27 22 15 30.0000000  0  4G18G 2G11G19
  20952861.789     2828077.331 7   2203692.60423
  22774184.2114   -5325615.03846  -4149799.34961
  22833666.2034   -2788482.14446  -2172837.32861
  20812503.438     -273967.073 6   -213478.69422
 91  3 27 22 15 45.0000000  0  4G18G 2G11G19
  20958340.6174    2856865.94247   2226125.24563
  22766788.1334   -5364475.36846  -4180079.94861
  22830903.5554   -2803007.87146  -2184156.04561
  20812434.5554    -274299.14646   -213737.44062
 91  3 27 22 16  0.0000000  0  4G18G 2G11G19
  20963840.1414    2885765.58047   2248644.40863
  22759406.219    -5403269.327 6  -4210308.82321
  22828165.805    -2817393.189 6  -2195365.37421
  20812377.8914    -274587.77546   -213962.33662
 91  3 27 22 16 15.0000000  0  4G18G 2G11G19
  20969359.5634    2914776.89747   2271250.58963
  22752037.2894   -5441995.90246  -4240485.19561
  22825454.6564   -2831636.87646  -2206464.32261
  20812332.8984    -274831.83147   -214152.50062
 91  3 27 22 16 30.0000000  0  4G18G 2G11G19
  20974900.9454    2943896.16647   2293940.89263
  22744678.2734   -5480658.76846  -4270611.92161
  22822772.3834   -2845742.42846  -2217455.62461
  20812294.2664    -275035.08546   -214310.87462
 91  3 27 22 16 45.0000000  0  4G18G 2G11G19
  20980464.4774    2973126.51347   2316717.75163
  22737331.031    -5519254.659 6  -4300686.45721
  22820114.375    -2859706.535 6  -2228336.72721
  20812264.1804    -275194.31146
 91  3 27 22 17  0.0000000  0  4G18G 2G11G19
  20986047.9454    3002469.06047   2339582.03563
  22729999.930    -5557782.027 6  -4330707.61021
  22817483.805    -2873527.601 6  -2239106.37621
  20812242.508     -275308.134 7
 91  3 27 22 17 15.0000000  0  4G18G 2G11G19
  20991653.2034    3031917.91347   2362529.15363
  22722683.0394   -5596246.40946  -4360679.67261
  22814879.4774   -2887210.96846  -2249768.70461
  20812228.109     -275381.988 6
 91  3 27 22 17 30.0000000  0  4G18G 2G11G19
  20997276.8444    3061478.66347   2385563.47163
  22715375.641    -5634642.088 6  -4390598.21321
  22812302.836    -2900750.855 6  -2260319.24521
  20812226.695     -275410.093 6
 91  3 27 22 17 45.0000000  0  4G18G 2G11G19
  21002923.7814    3091154.57347   2408687.52163
  22708082.789    -5672965.547 6  -4420460.47421
  22809754.164    -2914143.679 6  -2270755.19021
  20812227.344     -275389.226 6
 91  3 27 22 18  0.0000000  0  4G18G 2G11G19
  21008592.8524    3120941.75747   2431898.27763
  22700804.7274   -5711220.65546  -4450269.47261
  22807233.1564   -2927393.05446  -2281079.36961
  20812239.914     -275323.098 6
 91  3 27 22 18 15.0000000  0  4G18G 2G11G19
  21014281.7344    3150835.25347   2455191.87463
  22693535.633    -5749411.994 6  -4480028.76921
  22804737.430    -2940503.575 6  -2291295.34121
  20812260.742     -275216.410 6
 91  3 27 22 18 30.0000000  0  4G18G 2G11G19
  21019991.4614    3180837.54447   2478570.24763
  22686280.0554   -5787536.90646  -4509736.31961
  22802269.9064   -2953472.50146  -2301400.95861
  20812288.3364    -275066.60047
 91  3 27 22 18 45.0000000  0  4G18G 2G11G19
  21025720.6644    3210951.62247   2502035.73063
  22679037.555    -5825592.188 6  -4539389.61121
  22799831.266    -2966296.470 6  -2311393.64821
  20812325.1644    -274870.41346
 91  3 27 22 19  0.0000000  0  4G18G 2G11G19
  21031471.1884    3241175.41847   2525586.70062
  22671809.383    -5863579.809 6  -4568990.18521
  22797417.2114   -2978977.45846  -2321274.91561
  20812372.430     -274629.724 7   -213994.90422
 91  3 27 22 19 15.0000000  0  4G18G 2G11G19
  21037244.5234    3271511.10347   2549224.86762
  22664595.1414   -5901497.06346  -4598535.92161
  22795031.773    -2991512.551 6  -2331042.48321
  20812425.2584    -274342.05947   -213770.74262
 91  3 27 22 19 30.0000000  0  4G18G 2G11G19
  21043038.8284    3301957.66547   2572949.43662
  22657393.1644   -5939345.03246  -4628027.66361
  22792674.031    -3003902.720 6  -2340697.13921
  20812492.695     -274008.358 6   -213510.70322
 91  3 27 22 19 45.0000000  0  4G18G 2G11G19
  21048853.1724    3332509.66547   2596756.15562
  22650202.4774   -5977128.63146  -4657469.25461
  22790343.9144   -3016152.77346  -2350242.60861
  20812561.3674    -273633.70546   -213218.75762
 91  3 27 22 20  0.0000000  0  4G18G 2G11G19
  21054687.8134    3363171.35747   2620648.34762
  22643025.1094   -6014843.60946  -4686857.36261
  22788038.7814   -3028258.40646  -2359675.53361
  20812642.0944    -273213.80747   -212891.55662
 91  3 27 22 20 14.9990000  0  4G18G 2G11G19
  21060543.7924    3393942.67447   2644625.96562
  22635862.0424   -6052485.16846  -4716188.27461
  22785761.980    -3040216.577 6  -2368993.56721
  20812729.370     -272746.575 6   -212527.46222
 91  3 27 22 20 29.9990000  0  5G18G 2G11G19G16
  21066420.6674    3424824.37947   2668689.59662
  22628711.5194   -6090061.34446  -4745468.23261
  22783515.6984   -3052031.52146  -2378199.98361
  20812829.5264    -272234.96946   -212128.79462
  24140550.6204         -0.32753
 91  3 27 22 20 44.9990000  0  5G18G 2G11G19G16
  21072317.1284    3455811.95247   2692835.72462
  22621571.1284   -6127571.93946  -4774697.09261
  22781293.6834   -3063704.75446  -2387295.98361
  20812931.7454    -271681.29646   -211697.35262
  24137266.0114     -17290.09244
 91  3 27 22 20 59.9990000  0  5G18G 2G11G19G16
  21078234.3784    3486907.62047   2717066.08262
  22614447.394    -6165014.393 6  -4803872.85121
  22779101.245    -3075233.553 6  -2396279.44421
  20813045.956     -271082.990 6   -211231.12622
  24133997.8314     -34450.24744
 91  3 27 22 21 14.9990000  0  5G18G 2G11G19G16
  21084171.2224    3518107.31347   2741377.49162
  22607332.7454   -6202392.50846  -4832998.48761
  22776933.2694   -3086621.78346  -2405153.35861
  20813166.815     -270443.939 6   -210733.14722
  24130761.1984     -51484.87544
 91  3 27 22 21 29.9990000  0  5G18G 2G11G19G16
  21090130.3784    3549421.17847   2765777.86762
  22600235.6754   -6239695.92946  -4862065.90261
  22774795.5264   -3097859.01546  -2413909.60161
  20813302.081     -269753.673 6   -210195.26222
  24127547.6754     -68383.60144
 91  3 27 22 21 44.9990000  0  5G18G 2G11G19G16
  21096110.2374    3580843.02447   2790262.38662
  22593146.9954   -6276930.52246  -4891079.69561
  22772683.4954   -3108951.10146  -2422552.77561
  20813438.440     -269018.342 6   -209622.25722
  24124348.3624     -85152.28943        -0.40871
 91  3 27 22 21 59.9990000  0  5G18G 2G11G19G16
  21102108.4644    3612369.08947   2814828.11262
  22586077.300    -6314100.218 6  -4920042.91621
  22770599.1904   -3119901.70846  -2431085.69661
  20813586.167     -268241.949 6   -209017.25922
  24121177.026     -101794.943 3    -12968.67221
 91  3 27 22 22 14.9990000  0  5G18G 2G11G19G16
  21108128.1124    3644003.48147   2839478.25362
  22579016.2844   -6351200.63046  -4948952.14761
  22768543.8234   -3130706.36646  -2439504.86661
  20813743.308     -267420.033 6   -208376.79322
  24118036.823     -118307.096 3    -25835.25121
 91  3 27 22 22 29.9990000  0  5G18G 2G11G19G16
  21114168.8314    3675745.72847   2864212.43162
  22571969.0734   -6388231.88046  -4977807.49061
  22766514.995    -3141364.989 6  -2447810.27821
  20813909.6124    -266552.43846   -207700.73262
  24114924.612     -134688.684 4    -38600.13821
 91  3 27 22 22 44.9990000  0  5G18G 2G11G19G16
  21120230.0894    3707593.78447   2889029.06662
  22564935.6674   -6425195.47146  -5006610.10761
  22764515.2844   -3151879.13746  -2456003.08661
  20814081.573     -265641.060 6   -206990.55122
  24111835.019     -150941.664 4    -51264.77021
 91  3 27 22 22 59.9990000  0  5G18G 2G11G19G16
  21126310.1054    3739551.04647   2913930.78862
  22557916.4874   -6462087.75646  -5035357.17161
  22762541.6364   -3162245.18746  -2464080.49461
  20814264.597     -264682.233 6   -206243.40222
  24108766.159     -167062.027 4    -63826.06621
 91  3 27 22 23 14.9990000  0  5G18G 2G11G19G16
  21132411.1754    3771613.40447   2938914.40663
  22550908.073    -6498912.632 6  -5064051.70121
  22760597.5894   -3172466.98646  -2472045.50261
  20814454.409     -263679.852 6   -205462.30622
  24105725.8004    -183054.00444    -76287.31561
 91  3 27 22 23 29.9990000  0  5G18G 2G11G19G16
  21138532.7304    3803781.23447   2963980.20963
  22543912.565    -6535669.720 6  -5092693.42021
  22758680.4724   -3182543.98346  -2479897.68361
  20814654.784     -262633.527 6   -204646.96922
  24102705.558     -198917.113 4    -88648.17521
 91  3 27 22 23 44.9990000  0  5G18G 2G11G19G16
  21144675.6364    3836058.19947   2989131.05262
  22536930.5344   -6572355.16046  -5121279.30161
  22756791.1594   -3192472.24146  -2487633.94761
  20814863.011     -261539.381 6   -203794.37222
  24099716.651     -214647.279 4   -100905.41521
 91  3 27 22 23 59.9990000  0  5G18G 2G11G19G16
  21150837.7064    3868439.97247   3014363.56562
  22529964.042    -6608972.907 6  -5149812.43821
  22754928.7224   -3202255.52646  -2495257.25761
  20815081.183     -260401.287 6   -202907.52922
  24096742.6984    -230248.43944   -113062.17461
 91  3 27 22 24 14.9990000  0  5G18G 2G11G19G16
  21157018.7614    3900922.48147   3039674.57463
  22523006.948    -6645526.942 6  -5178295.93521
  22753094.1674   -3211897.60846  -2502770.53461
  20815302.034     -259223.193 6   -201989.51822
  24093799.394     -245724.446 3   -125121.38921
 91  3 27 22 24 29.9990000  0  5G18G 2G11G19G16
  21163219.7924    3933509.70147   3065067.17463
  22516065.8944   -6682012.96546  -5206726.42361
  22751287.0344   -3221394.20546  -2510170.44961
  20815535.198     -258000.968 6   -201037.11622
  24090873.4094    -261071.23043   -137079.91661
 91  3 27 22 24 44.9990000  0  5G18G 2G11G19G16
  21169441.4404    3966201.60047   3090541.33963
  22509134.1904   -6718430.76646  -5235103.75661
  22749506.9644   -3230745.08246  -2517456.80461
  20815775.003     -256734.299 6   -200050.08922
  24087977.909     -276288.443 3   -148937.45421
 91  3 27 22 24 59.9990000  0  5G18G 2G11G19G16
  21175684.308     3999006.678 7   3116103.69723
  22502217.534    -6754771.678 6  -5263421.18521
  22747757.6674   -3239941.51746  -2524622.82961
  20816026.511     -255414.720 6   -199021.83022
  24085107.355     -291367.585 3   -160687.42221
 91  3 27 22 25 14.9990000  0  5G18G 2G11G19G16
  21181946.261     4031915.493 7   3141746.88623
  22495316.5584   -6791044.78746  -5291685.77161
  22746034.784    -3248992.539 6  -2531675.52921
  20816286.831     -254051.236 6   -197959.35422
  24082260.5734    -306318.14743   -172337.19661
 91  3 27 22 25 29.9990000  0  5G18G 2G11G19G16
  21188228.886     4064931.013 7   3167473.21623
  22488425.620    -6827246.770 6  -5319894.94621
  22744342.0974   -3257894.64346  -2538612.19761
  20816554.565     -252640.539 6   -196860.09622
  24079441.8784    -321136.56243   -183884.00861
 91  3 27 22 25 44.9990000  0  5G18G 2G11G19G16
  21194531.487     4098051.365 7   3193281.24523
  22481550.347    -6863379.093 6  -5348049.83821
  22742673.8624   -3266649.46746  -2545434.10761
  20816832.401     -251184.279 6   -195725.33422
  24076655.855     -335824.323 4   -195329.01121
 91  3 27 22 25 59.9990000  0  5G18G 2G11G19G16
  21200853.050     4131274.882 7   3219169.65223
  22474687.198    -6899443.545 6  -5376151.84821
  22741037.8004   -3275258.59847  -2552142.48461
  20817117.9644    -249684.01046   -194556.28362
  24073885.792     -350383.141 4   -206673.50321
 91  3 27 22 26 14.9990000  0  5G18G 2G11G19G16
  21207195.487     4164602.985 7   3245139.56323
  22467837.815    -6935438.521 6  -5404199.71821
  22739424.3314   -3283720.26046  -2558735.96261
  20817412.784     -248138.062 6   -193351.62922
  24071141.8314    -364811.38745   -217916.27661
 91  3 27 22 26 29.9990000  0  5G18G 2G11G19G16
  21213557.144     4198035.164 7   3271190.56423
  22461002.042    -6971364.248 6  -5432193.62321
  22737845.1364   -3292034.72546  -2565214.72961
  20817715.026     -246546.754 6   -192111.63622
  24068416.448     -379109.151 5   -229057.37321
 91  3 27 22 26 44.9990000  0  5G18G 2G11G19G16
  21219939.831     4231569.872 7   3297321.46623
  22454178.214    -7007221.910 6  -5460134.49321
  22736288.9014   -3300203.07546  -2571579.64661
  20818025.042     -244911.340 6   -190837.26822
  24065717.378     -393277.878 4   -240097.86521
 91  3 27 22 26 59.9990000  0  5G18G 2G11G19G16
  21226340.401     4265208.089 7   3323533.02023
  22447366.4254   -7043010.20746  -5488021.31861
  22734762.456    -3308223.974 6  -2577829.66821
  20818346.675     -243230.674 6   -189527.63922
  24063039.1674    -407316.12444   -251036.75061
 91  3 27 22 27 14.9990000  0  5G18G 2G11G19G16
  21232760.667     4298947.411 7   3349823.35223
  22440569.4334   -7078731.44446  -5515855.89461
  22733263.362    -3316099.625 6  -2583966.50221
  20818673.440     -241507.127 6   -188184.60122
  24060393.667     -421226.545 3   -261876.02421
 91  3 27 22 27 29.9990000  0  5G18G 2G11G19G16
  21239200.1514    4332789.61647   3376193.86263
  22433784.5344   -7114383.25046  -5543636.36761
  22731795.0344   -3323827.85346  -2589988.45561
  20819010.526     -239738.358 6   -186806.32222
  24057770.6204    -435006.77744   -272613.86361
 91  3 27 22 27 44.9990000  0  5G18G 2G11G19G16
  21245660.690     4366738.158 7   3402647.22823
  22427016.269    -7149962.350 6  -5571360.17321
  22730351.401    -3331405.024 6  -2595892.72421
  20819356.761     -237920.684 6   -185389.93622
  24055174.198     -448653.250 4   -283247.48721
 91  3 27 22 27 59.9990000  0  5G18G 2G11G19G16
  21252138.964     4400787.625 7   3429179.23323
  22420257.2064   -7185473.72546  -5599031.23061
  22728937.9174   -3338836.18546  -2601683.20261
  20819714.831     -236059.389 6   -183939.56122
  24052609.456     -462171.004 4   -293780.76621
 91  3 27 22 28 14.9990000  0  5G18G 2G11G19G16
  21258640.237     4434939.662 7   3455791.16723
  22413515.4484   -7220915.86446  -5626648.32261
  22727550.815    -3346119.534 6  -2607358.49421
  20820073.378     -234152.753 6   -182453.84722
  24050061.964     -475558.424 5   -304212.49421
 91  3 27 22 28 29.9990000  0  5G18G 2G11G19G16
  21265160.300     4469201.625 7   3482488.75223
  22406782.9954   -7256280.94746  -5654205.37261
  22726195.612    -3353247.235 6  -2612912.50821
  20820445.558     -232193.061 6   -180926.79522
  24047545.136     -488807.851 5   -314536.69221
 91  3 27 22 28 44.9990000  0  5G18G 2G11G19G16
  21271697.253     4503563.518 7   3509264.21023
  22400065.9644   -7291578.55746  -5681709.86361
  22724867.8784   -3360228.97346  -2618352.79561
  20820827.347     -230189.999 6   -179365.95422
  24045044.7614    -501929.12145   -324761.03961
 91  3 27 22 28 59.9990000  0  5G18G 2G11G19G16
  21278257.183     4538027.018 7   3536118.84223
  22393362.144    -7326806.897 6  -5709160.37821
  22723566.3784   -3367062.75146  -2623677.78661
  20821218.737     -228141.611 6   -177769.78822
  24042576.1514    -514920.22945   -334883.93861
 91  3 27 22 29 14.9990000  0  5G18G 2G11G19G16
  21284834.1594    4572591.82347   3563052.41563
  22386672.1754   -7361965.88746  -5736556.84761
  22722292.401    -3373748.497 6  -2628887.41421
  20821615.644     -226047.958 6   -176138.35522
  24040123.2924    -527781.21344   -344905.46961
 91  3 27 22 29 29.9990000  0  6G18G 2G11G19G16G 6
  21291430.855     4607259.574 7   3590066.20423
  22379993.714    -7397053.747 6  -5763897.89721
  22721051.3314   -3380284.38446  -2633980.28961
  20822021.550     -223907.089 6   -174470.12822
  24037699.9954    -540510.27044   -354824.20561
  24270633.1364         -0.18454
 91  3 27 22 29 44.9990000  0  6G18G 2G11G19G16G 6
  21298047.440     4642030.411 7   3617160.31823
  22373330.0194   -7432070.12046  -5791183.22761
  22719834.4094   -3386670.00746  -2638956.07061
  20822439.769     -221718.730 6   -172764.90022
  24035300.8084    -553106.97544   -364639.82361
  24264477.3154     -32360.19244
 91  3 27 22 29 59.9990000  0  6G18G 2G11G19G16G 6
  21304681.276     4676898.549 7   3644330.24923
  22366678.7304   -7467020.51646  -5818417.15461
  22718648.4254   -3392910.89646  -2643819.06361
  20822866.534     -219488.498 6   -171027.03722
  24032924.4174    -565577.01144   -374356.71561
  24258314.089      -64720.560 4
 91  3 27 22 30 14.9990000  0  6G18G 2G11G19G16G 6
  21311338.448     4711867.426 7   3671578.67823
  22360041.5344   -7501901.04546  -5845596.63561
  22717487.3624   -3399003.12046  -2648566.22561
  20823297.339     -217212.495 6   -169253.51522
  24030580.3944    -577916.47344   -383971.85361
  24252155.4484     -97077.71544
 91  3 27 22 30 29.9990000  0  6G18G 2G11G19G16G 6
  21318011.2304    4746937.30747   3698905.81763
  22353418.690    -7536711.225 6  -5872721.30721
  22716357.175    -3404946.249 6  -2653197.20121
  20823738.667     -214890.281 6   -167443.98022
  24028254.4254    -590125.09944   -393485.06061
  24246003.5114    -129431.25644        -0.14771
 91  3 27 22 30 44.9990000  0  6G18G 2G11G19G16G 6
  21324703.081     4782107.501 7   3726311.12222
  22346806.3234   -7571451.36846  -5899791.40261
  22715255.300    -3410740.567 6  -2657712.22921
  20824188.230     -212522.077 6   -165598.61022
  24025967.065     -602203.389 5   -402896.73021
  24239846.1594    -161781.66245    -25208.06061
 91  3 27 22 30 59.9990000  0  6G18G 2G11G19G16G 6
  21331415.3394    4817376.63347   3753793.52262
  22340207.370    -7606122.972 6  -5926808.08921
  22714178.0424   -3416387.22546  -2662112.19261
  20824647.542     -210109.107 6   -163718.35422
  24023688.0584    -614152.55145   -412207.74561
  24233687.4954    -194130.38344    -50414.67961
 91  3 27 22 31 14.9990000  0  6G18G 2G11G19G16G 6
  21338143.237     4852740.624 7   3781349.83222
  22333621.487    -7640730.065 6  -5953774.51521
  22713132.1984   -3421890.17646  -2666400.17161
  20825116.120     -207655.429 6   -161806.38022
  24021437.2844    -625976.78244   -421421.43461
  24227531.8234    -226481.38844    -75623.06861
 91  3 27 22 31 29.9990000  0  6G18G 2G11G19G16G 6
  21344893.472     4888201.024 7   3808981.27022
  22327049.206    -7675270.287 6  -5980688.83421
  22712114.386    -3427247.204 6  -2670574.45521
  20825588.995     -205158.980 6   -159861.07622
  24019208.6054    -637673.74944   -430535.94561
  24221379.933     -258832.788 5   -100831.76321
 91  3 27 22 31 44.9990000  0  6G18G 2G11G19G16G 6
  21351660.065     4923758.615 7   3836688.43422
  22320489.8084   -7709742.80146  -6007550.38561
  22711120.612    -3432457.435 6  -2674634.36521
  20826073.120     -202618.970 6   -157881.83122
  24017006.9954    -649242.44944   -439550.52861
  24215223.815     -291183.782 4   -126040.14621
 91  3 27 22 31 59.9990000  0  6G18G 2G11G19G16G 6
  21358443.886     4959414.774 7   3864472.40922
  22313942.1364   -7744146.05746  -6034357.97461
  22710157.065    -3437519.229 6  -2678578.57321
  20826567.9724    -200033.65646   -155867.27962
  24014830.573     -660681.366 4   -448463.99121
  24209063.0114    -323532.85944   -151247.06761
 91  3 27 22 32 14.9990000  0  6G18G 2G11G19G16G 6
  21365247.456     4995165.455 7   3892330.04522
  22307408.8624   -7778483.78546  -6061114.50061
  22709222.722    -3442436.234 6  -2682409.98721
  20827065.808     -197406.829 6   -153820.37622
  24012672.2304    -671994.40144   -457279.37761
  24202904.5584    -355883.78643   -176455.39161
 91  3 27 22 32 29.9990000  0  6G18G 2G11G19G16G 6
  21372068.7844    5031008.86647   3920259.93362
  22300886.1284   -7812757.58546  -6087821.20061
  22708313.464    -3447210.007 6  -2686129.80421
  20827573.823     -194740.085 6   -151742.38522
  24010549.105     -683183.491 4   -465998.17721
  24196750.112     -388238.468 4   -201666.65021
 91  3 27 22 32 44.9990000  0  6G18G 2G11G19G16G 6
  21378907.081     5066948.742 7   3948264.98622
  22294377.675    -7846963.430 6  -6114474.96921
  22707434.097    -3451836.481 6  -2689734.82121
  20828088.128     -192029.399 6   -149630.14222
  24008443.3394    -694244.31745   -474617.01261
  24190592.2064    -420592.74844   -226877.60861
 91  3 27 22 32 59.9990000  0  6G18G 2G11G19G16G 6
  21385766.1984    5102984.07147   3976344.42262
  22287881.9644   -7881102.23346  -6141076.48061
  22706581.7534   -3456316.40346  -2693225.63861
  20828613.159     -189275.452 6   -147484.19322
  24006364.6514    -705177.34245   -483136.28261
  24184437.7454    -452947.68444   -252089.03461
 91  3 27 22 33 14.9990000  0  6G18G 2G11G19G16G 6
  21392640.026     5139114.895 7   4004498.26322
  22281395.3084   -7915173.58946  -6167625.44262
  22705757.8784   -3460649.57746  -2696602.11061
  20829144.909     -186477.893 6   -145304.25622
  24004310.808     -715983.006 5   -491556.27121
  24178277.4564    -485303.00244   -277300.80261
 91  3 27 22 33 29.9990000  0  6G18G 2G11G19G16G 6
  21399531.620     5175333.978 7   4032720.87222
  22274925.7924   -7949184.45546  -6194127.26761
  22704959.136    -3464842.727 6  -2699869.48021
  20829684.050     -183643.733 6   -143095.81022
  24002278.1364    -726667.89945   -499882.21161
  24172121.378     -517665.709 4   -302518.30821
 91  3 27 22 33 44.9990000  0  6G18G 2G11G19G16G 6
  21406442.292     5211646.046 7   4061015.94222
  22268465.9404   -7983129.97146  -6220578.16861
  22704187.401    -3468891.031 6  -2703023.98221
  20830231.612     -180767.992 6   -140854.94722
  24000265.7304    -737227.09344   -508110.17761
  24165959.667     -550031.094 3   -327737.87421
 91  3 27 22 33 59.9990000  0  6G18G 2G11G19G16G 6
  21413369.526     5248048.989 7   4089381.82922
  22262016.8554   -8017011.85846  -6246979.48361
  22703447.8394   -3472796.32346  -2706067.04461
  20830787.776     -177852.629 6   -138583.22122
  23998278.8314    -747662.67044   -516241.80161
  24159798.472     -582401.150 4   -352961.10721
 91  3 27 22 34 14.9990000  0  6G18G 2G11G19G16G 6
  21420314.4874    5284545.72747   4117820.80762
  22255582.964    -8050826.726 6  -6273328.58821
  22702729.3154   -3476555.17446  -2708995.98961
  20831348.901     -174894.141 6   -136277.89022
  23996317.597     -757971.262 4   -524274.48821
  24153641.1444    -614772.70044   -378185.44361
 91  3 27 22 34 29.9990000  0  6G18G 2G11G19G16G 6
  21427280.870     5321146.408 7   4146340.77422
  22249162.0974   -8084564.32446  -6299617.47661
  22702044.519    -3480157.274 6  -2711802.80021
  20831923.698     -171882.400 6   -133931.05922
  23994382.6834    -768142.78444   -532200.37561
  24147480.1834    -647135.43144   -403402.97661
 91  3 27 22 34 44.9990000  0  6G18G 2G11G19G16G 6
  21434266.284     5357858.342 7   4174947.43222
  22242759.659    -8118217.057 6  -6325840.24121
  22701391.5814   -3483594.99346  -2714481.51561
  20832506.659     -168809.753 6   -131536.77222
  23992478.487     -778169.628 4   -540013.49421
  24141328.4484    -679481.76644   -428607.69461
 91  3 27 22 34 59.9990000  0  6G18G 2G11G19G16G 6
  21441268.769     5394663.994 7   4203627.11322
  22236366.9724   -8151802.39646  -6352010.48861
  22700765.456    -3486885.684 6  -2717045.66721
  20833101.058     -165693.267 6   -129108.32922
  23990591.0814    -788069.19244   -547727.46261
  24135171.558     -711829.134 4   -453813.23521
 91  3 27 22 35 14.9990000  0  6G18G 2G11G19G16G 6
  21448290.1984    5431558.80547   4232376.27562
  22229988.5344   -8185324.79246  -6378131.68961
  22700165.394    -3490033.768 6  -2719498.70121
  20833700.440     -162537.489 6   -126649.26522
  23988732.2144    -797845.84845   -555345.65261
  24129013.597     -744182.252 4   -479023.23721
 91  3 27 22 35 29.9990000  0  6G18G 2G11G19G16G 6
  21455328.542     5468546.593 7   4261197.88422
  22223621.6904   -8218779.92246  -6404200.47062
  22699593.8624   -3493034.85146  -2721837.18461
  20834310.269     -159338.089 6   -124156.20722
  23986896.698     -807495.464 5   -562864.85521
  24122858.948     -776536.802 4   -504234.39421
 91  3 27 22 35 44.9990000  0  6G18G 2G11G19G16G 6
  21462385.3944    5505626.97147   4290091.64362
  22217268.3554   -8252167.83346  -6430216.87661
  22699051.948    -3495889.143 6  -2724061.27521
  20834926.925     -156095.372 6   -121629.39422
  23985083.4644    -817018.01045   -570285.00061
  24116700.4644    -808893.23844   -529446.98361
 91  3 27 22 35 59.9990000  0  6G18G 2G11G19G16G 6
  21469458.089     5542795.645 7   4319054.20422
  22210927.394    -8285492.928 6  -6456184.33521
  22698535.987    -3498600.774 6  -2726174.21321
  20835550.862     -152813.555 6   -119072.12122
  23983294.4874    -826418.03245   -577609.70561
  24110546.8864    -841255.70845   -554664.27861
 91  3 27 22 36 14.9990000  0  6G18G 2G11G19G16G 6
  21476548.761     5580055.420 7   4348087.74522
  22204598.784    -8318752.117 6  -6482100.44522
  22698046.214    -3501166.667 6  -2728173.58921
  20836182.0034    -149489.44046   -116481.86963
  23981528.612     -835692.348 5   -584836.45421
  24104382.0504    -873621.29845   -579884.01761
 91  3 27 22 36 29.9990000  0  6G18G 2G11G19G16G 6
  21483656.761     5617406.384 7   4377192.34522
  22198281.558    -8351944.922 6  -6507964.83421
  22697585.355    -3503586.231 6  -2730058.94421
  20836827.526     -146122.489 6   -113858.25923
  23979784.1594    -844840.59245   -591964.97061
  24098226.175     -905989.622 5   -605105.88821
 91  3 27 22 36 44.9990000  0  6G18G 2G11G19G16G 6
  21490782.745     5654850.305 7   4406369.38322
  22191978.995    -8385069.287 6  -6533775.88121
  22697153.315    -3505857.571 6  -2731828.79421
  20837473.112     -142710.958 6   -111199.90723
  23978067.6364    -853861.13545   -598993.98161
  24092061.644     -938358.757 5   -630328.39521
 91  3 27 22 36 59.9990000  0  6G18G 2G11G19G16G 6
  21497923.253     5692380.104 7   4435613.33222
  22185686.901    -8418131.704 6  -6559538.66722
  22696748.261    -3507987.094 6  -2733488.13921
  20838130.894     -139261.055 6   -108511.65623
  23976376.495     -862760.140 5   -605928.29621
  24085904.230     -970735.361 5   -655556.71721
 91  3 27 22 37 14.9990000  0  6G18G 2G11G19G16G 6
  21505082.355     5730000.450 7   4464927.84322
  22179408.105    -8451127.633 6  -6585249.64222
  22696371.3084   -3509970.11546  -2735033.33361
  20838795.878     -135768.148 6   -105789.88923
  23974708.894     -871532.924 5   -612764.27521
  24079738.526    -1003114.783 4   -680787.22121
 91  3 27 22 37 29.9990000  0  6G18G 2G11G19G16G 6
  21512259.511     5767710.627 7   4494312.34422
  22173139.112    -8484057.288 6  -6610908.98122
  22696022.495    -3511807.140 6  -2736464.76421
  20839467.323     -132232.757 6   -103035.02923
  23973063.503     -880179.994 5   -619502.25221
  24073576.9094   -1035497.64245   -706020.44561
 91  3 27 22 37 44.9990000  0  6G18G 2G11G19G16G 6
  21519453.230     5805514.969 7   4523770.22522
  22166886.315    -8516916.261 6  -6636513.24222
  22695699.980    -3513493.564 6  -2737778.83721
  20840150.433     -128650.192 6   -100243.40423
  23971444.3154    -888697.27845   -626139.12061
  24067413.6054   -1067879.44645   -731252.78561
 91  3 27 22 37 59.9990000  0  6G18G 2G11G19G16G 6
  21526666.573     5843422.909 7   4553308.82722
  22160649.315    -8549694.801 6  -6662054.82621
  22695411.315    -3515019.725 6  -2738968.03221
  20840841.909     -125010.750 6    -97407.45823
  23969846.433     -897074.973 5   -632667.21921
  24061254.7614   -1100250.51445   -756476.83261
 91  3 27 22 38 14.9990000  0  6G18G 2G11G19G16G 6
  21533897.284     5881418.208 7   4582915.50022
  22154425.4254   -8582409.29346  -6687546.50961
  22695148.800    -3516401.917 6  -2740045.04321
  20841540.792     -121330.788 6    -94539.94123
  23968275.0194    -905329.34545   -639099.18661
  24055095.5974   -1132627.35245   -781705.32961
 91  3 27 22 38 29.9990000  0  6G18G 2G11G19G16G 6
  21541142.964     5919502.449 7   4612591.47422
  22148211.0114   -8615057.41146  -6712986.47561
  22694910.347    -3517637.840 6  -2741008.08421
  20842251.4804    -117608.00146    -91639.06163
  23966728.690     -913458.285 5   -645433.45721
  24048932.9094   -1165007.75345   -806936.63961
 91  3 27 22 38 44.9990000  0  6G18G 2G11G19G16G 6
  21548407.925     5957676.906 7   4642337.75922
  22142010.558    -8647637.711 6  -6738373.58621
  22694702.683    -3518725.911 6  -2741855.90221
  20842967.237     -113840.861 6    -88703.61223
  23965208.6054    -921460.29645   -651668.78761
  24042773.4254   -1197390.29145   -832169.61861
 91  3 27 22 38 59.9990000  0  6G18G 2G11G19G16G 6
  21555690.901     5995947.023 7   4672158.58222
  22135826.0974   -8680144.54146
  22694527.5264   -3519660.52346  -2742584.15361
  20843695.394     -110023.617 6    -85729.12423
  23963708.5344    -929329.87345   -657800.96161
  24036609.581    -1229769.455 5
 91  3 27 22 39 14.9990000  0  6G18G 2G11G19G16G 6
  21562990.737     6034311.909 7   4702053.24922
  22129654.1054   -8712578.50346
  22694376.120    -3520442.451 6  -2743193.42321
  20844429.6514    -106156.74746    -82715.96863
  23962238.4644    -937068.14145   -663830.81861
  24030451.784    -1262145.926 5
 91  3 27 22 39 29.9990000  0  6G18G 2G11G19G16G 6
  21570310.183     6072769.364 7   4732020.04922
  22123496.8864   -8744941.60946
  22694255.667    -3521073.556 6  -2743685.18121
  20845175.065     -102242.485 6    -79665.87723
  23960788.7064    -944676.55145   -669759.44461
  24024285.315    -1294521.791 5
 91  3 27 22 39 44.9990000  0  6G18G 2G11G19G16G 6
  21577644.284     6111311.601 7   4762052.90522
  22117349.5734   -8777241.21546  -6839362.82762
  22694166.370    -3521561.211 6  -2744065.15521
  20845926.815      -98288.073 6    -76584.50623
  23959365.9804    -952162.43445   -675592.61761
  24018126.409    -1326904.496 5   -933089.07621
 91  3 27 22 39 59.9990000  0  6G18G 2G11G19G16G 6
  21584995.956     6149944.959 7   4792156.76222
  22111216.0194   -8809470.66246  -6864476.55462
  22694102.464    -3521898.726 6  -2744328.13821
  20846688.362      -94286.711 6    -73466.54923
  23957962.612     -959519.614 5   -681325.48621
  24011959.503    -1359287.480 5   -958322.37221
 91  3 27 22 40 14.9990000  0  6G18G 2G11G19G16G 6
  21592365.3784    6188675.45847   4822336.31662
  22105097.3004   -8841623.97346  -6889530.96361
  22694067.9174   -3522080.08946
  20847460.3704     -90232.18446    -70307.16663
  23956586.7764    -966742.02445   -686953.35561
  24005798.7224   -1391664.76445   -983551.22461
 91  3 27 22 40 29.9990000  0  6G18G 2G11G19G16G 6
  21599754.964     6227499.081 7   4852588.43522
  22098991.9954   -8873705.11646  -6914529.12962
  22694062.190    -3522109.183 6
  20848245.980      -86128.652 6    -67109.59523
  23955236.8234    -973833.51345   -692479.19461
  23999637.730    -1424040.379 5  -1008778.81921
 91  3 27 22 40 44.9990000  0  6G18G 2G11G19G16G 6
  21607160.925     6266419.269 7   4882915.79722
  22092901.4724   -8905709.98246  -6939467.86061
  22694084.448    -3521982.000 6
  20849033.980      -81972.156 6    -63870.74923
  23953914.4014    -980790.14645   -697900.00261
  23993477.1984   -1456410.42745  -1034002.11561
 91  3 27 22 40 59.9990000  0  6G18G 2G11G19G16G 6
  21614582.886     6305427.773 7   4913311.98122
  22086823.1364   -8937646.87846  -6964353.62862
  22694137.8624   -3521706.82446
  20849830.2374     -77770.72946    -60596.90163
  23952618.120     -987620.144 5   -703222.08421
  23987318.5034   -1488783.22245  -1059227.47361
 91  3 27 22 41 14.9990000  0  6G18G 2G11G19G16G 6
  21622023.6834    6344527.38847   4943779.15462
  22080759.315    -8969512.576 6  -6989183.91722
  22694217.9094   -3521280.43746  -2743846.29061
  20850640.550      -73521.015 6    -57285.42123
  23951344.222     -994320.398 5   -708443.06721
  23981158.089    -1521155.605 5  -1084452.49821
 91  3 27 22 41 29.9990000  0  6G18G 2G11G19G16G 6
  21629481.1904    6383717.74847   4974317.02762
  22074708.9564   -9001307.13746  -7013958.77662
  22694327.370    -3520702.779 6  -2743396.14821
  20851459.6364     -69223.17646    -53936.44963
  23950096.339    -1000891.065 5   -713563.08721
  23975002.7304   -1553527.63345  -1109677.29861
 91  3 27 22 41 44.9990000  0  6G18G 2G11G19G16G 6
  21636956.2924    6422999.14847   5004925.84562
  22068671.0974   -9033030.08646  -7038677.83861
  22694469.159    -3519973.506 6  -2742827.87721
  20852285.2304     -64876.68446    -50549.56463
  23948868.456    -1007331.991 5   -718582.01621
  23968840.269    -1585898.995 5  -1134901.56721
 91  3 27 22 41 59.9990000  0  6G18G 2G11G19G16G 6
  21644449.4334    6462373.60147   5035607.17762
  22062649.9094   -9064678.94146  -7063339.15962
  22694635.573    -3519090.122 6  -2742139.51321
  20853123.4724     -60479.03646    -47122.81963
  23947668.464    -1013640.711 5   -723497.93021
  23962676.4724   -1618267.25645  -1160123.44661
 91  3 27 22 42 14.9990000  0  6G18G 2G11G19G16G 6
  21651958.5114    6501836.71247   5066357.59262
  22056641.2374   -9096258.02946  -7087946.12162
  22694830.8154   -3518056.92246  -2741334.40961
  20853968.8314     -56034.35046    -43659.41663
  23946489.573    -1019821.316 5   -728314.00521
  23956515.292    -1650636.846 5  -1185346.30421
 91  3 27 22 42 29.9990000  0  6G18G 2G11G19G16G 6
  21659486.0654    6541394.29647   5097181.62762
  22050647.0114   -9127761.24646  -7112493.96662
  22695057.894    -3516867.923 6  -2740407.90421
  20854827.5894     -51536.70046    -40154.75463
  23945342.1124   -1025868.04845   -733025.77261
  23950359.206    -1683001.761 5  -1210565.56521
 91  3 27 22 42 44.9990000  0  6G18G 2G11G19G16G 6
  21667032.7374    6581042.23547   5128076.06362
  22044664.8784   -9159192.38746  -7136985.64762
  22695312.8474   -3515527.04746  -2739363.05361
  20855689.9404     -46990.04146    -36611.89163
  23944216.7064   -1031785.07145   -737636.44961
  23944199.956    -1715366.034 5  -1235784.28821
 91  3 27 22 42 59.9990000  0  6G18G 2G11G19G16G 6
  21674592.3554    6620776.58447   5159037.83362
  22038696.495    -9190555.110 6  -7161424.01521
  22695596.745    -3514037.924 6  -2738202.69221
  20856562.7454     -42397.80146    -33033.51863
  23943112.487    -1037575.879 5   -742148.77721
  23938041.4874   -1747733.23345  -1261005.28161
 91  3 27 22 43 14.9990000  0  6G18G 2G11G19G16G 6
  21682171.2534    6660600.66347   5190069.52062
  22032740.6054   -9221845.86846  -7185806.30861
  22695908.4954   -3512396.86746  -2736923.94161
  20857445.6754     -37756.24446    -29416.71463
  23942033.831    -1043236.859 5   -746559.93721
  23931881.808    -1780099.954 5  -1286225.97221
 91  3 27 22 43 29.9990000  0  6G18G 2G11G19G16G 6
  21689767.0974    6700520.03347   5221175.45662
  22026801.1204   -9253059.03846  -7210128.14361
  22696248.7614   -3510598.23446  -2735522.39961
  20858338.1834     -33059.66446    -25757.03563
  23940984.3314   -1048762.30845   -750865.49561
  23925721.4564   -1812460.50545  -1311441.79361
 91  3 27 22 43 44.9990000  0  6G18G 2G11G19G16G 6
  21697380.5974    6740527.96547   5252350.40762
  22020875.5114   -9284200.92346  -7234394.42761
  22696620.6444   -3508648.29246  -2734002.95961
  20859243.2694     -28314.50846    -22059.50663
  23939956.495    -1054158.857 5   -755070.63621
  23919564.847    -1844821.254 5  -1336657.77221
 91  3 27 22 43 59.9990000  0  6G18G 2G11G19G16G 6
  21705011.4254    6780629.15147   5283598.02362
  22014963.1204   -9315266.49746  -7258601.25061
  22697022.315    -3506542.124 6  -2732361.78221
  20860154.8864     -23515.53946    -18320.04263
  23938957.815    -1059421.473 5   -759171.38721
  23913409.464    -1877177.120 5  -1361869.93221
 91  3 27 22 44 14.9990000  0  6G18G 2G11G19G16G 6
  21712660.8084    6820821.80647   5314916.91162
  22009067.3784   -9346257.31546  -7282749.81761
  22697454.6834   -3504281.28047  -2730600.08861
  20861078.1284     -18664.25646    -14539.81663
  23937979.9644   -1064552.03545   -763169.24761
  23907253.128    -1909529.938 5  -1387079.74421
 91  3 27 22 44 29.9990000  0  6G18G 2G11G19G16G 6
  21720326.9954    6861106.81447   5346307.76562
  22003182.964    -9377172.364 6  -7306839.35021
  22697911.0814   -3501864.83446  -2728717.15161
  20862015.8154     -13759.80946    -10718.16963
  23937028.3004   -1069549.28245   -767063.22061
  23901095.8234   -1941878.75945  -1412286.43461
 91  3 27 22 44 44.9990000  0  6G18G 2G11G19G16G 6
  21728008.9484    6901481.86747   5377768.78062
  21997315.362    -9408013.772 6  -7330871.50521
  22698402.925    -3499294.803 6  -2726714.51221
  20862954.8234      -8804.10546     -6856.57563
  23936101.1204   -1074415.42345   -770855.03861
  23894941.5814   -1974225.65845  -1437491.58461
 91  3 27 22 44 59.9990000  0  6G18G 2G11G19G16G 6
  21735710.0584    6941947.81747   5409300.62562
  21991459.261    -9438780.646 6  -7354845.57421
  22698920.1514   -3496570.13046  -2724591.37861
  20863909.2304      -3796.15046     -2954.26763
  23935201.8474   -1079149.65045   -774544.07861
  23888786.206    -2006569.693 5  -1462694.53921
 91  3 27 22 45 14.9990000  0  6G18G 2G11G19G16G 6
  21743428.2924    6982501.32247   5440900.68762
  21985620.0034   -9469475.68846  -7378763.67661
  22699470.1984   -3493693.75146  -2722350.04761
  20864869.7374       1261.34646       986.63963
  23934327.019    -1083754.704 5   -778132.47121
  23882630.5504   -2038913.79845  -1487897.54861
 91  3 27 22 45 29.9990000  0  6G18G 2G11G19G16G 6
  21751160.6754    7023143.74447   5472570.04062
  21979792.2374   -9500096.93946  -7402624.27561
  22700044.4334   -3490664.09246  -2719989.27661
  20865844.1364       6370.21446      4967.58063
  23933475.433    -1088229.171 5   -781619.11021
  23876474.5344   -2071256.42245  -1513099.40361
 91  3 27 22 45 44.9990000  0  6G18G 2G11G19G16G 6
  21758912.9484    7063875.58047   5504309.06562
  21973979.167    -9530644.136 6  -7426427.16621
  22700648.4404   -3487480.59646  -2717508.62161
  20866825.3234      11530.98246      8988.96263
  23932648.206    -1092572.630 5   -785003.62321
  23870322.659    -2103596.943 5  -1538299.57921
 91  3 27 22 45 59.9990000  0  6G18G 2G11G19G16G 6
  21766679.8394    7104697.88247   5536118.58162
  21968180.894    -9561115.714 6  -7450171.14121
  22701286.1284   -3484141.72046  -2714906.89561
  20867817.1594      16745.11146     13051.91963
  23931846.6754   -1096783.65445   -788284.98161
  23864164.2694   -2135934.00945  -1563497.08861
 91  3 27 22 46 14.9990000  0  6G18G 2G11G19G16G 6
  21774466.3704    7145610.44347   5567998.43362
  21962396.8554   -9591511.78646  -7473856.27262
  22701952.3704   -3480647.47446  -2712184.11561
  20868816.9874      22012.68646     17156.52763
  23931069.1364   -1100862.25345   -791463.13161
  23858017.1514   -2168267.67845  -1588691.94061
 91  3 27 22 46 29.9990000  0  6G18G 2G11G19G16G 6
  21782268.284     7186613.000 7   5599948.40322
  21956625.1514   -9621832.33746  -7497482.55562
  22702645.9644   -3476997.96846  -2709340.34261
  20869833.4254      27333.71546     21302.78763
  23930316.378    -1104808.483 5   -794538.14421
  23851863.573    -2200597.956 5  -1613884.18221
 91  3 27 22 46 44.9990000  0  6G18G 2G11G19G16G 6
  21790088.472     7227705.979 7   5631968.83622
  21950872.089    -9652076.623 6  -7521049.42222
  22703369.9094   -3473192.56446  -2706375.09961
  20870852.3154      32709.17046     25491.45663
  23929595.128    -1108621.764 5   -797509.56521
  23845708.6124   -2232924.25744  -1639073.26861
 91  3 27 22 46 59.9990000  0  6G18G 2G11G19G16G 6
  21797924.5194    7268886.06647   5664057.15162
  21945127.917    -9682247.531 6  -7544559.10622
  22704124.9014   -3469234.11347  -2703290.59161
  20871885.5424      38135.99146     29720.14963
  23928892.9954   -1112305.18345   -800379.78061
  23839557.323    -2265249.569 4  -1664261.61921
 91  3 27 22 47 14.9990000  0  6G18G 2G11G19G16G 6
  21805776.8784    7310152.79047   5696212.96762
  21939401.112    -9712345.684 7  -7568012.10622
  22704905.8784   -3465123.30947  -2700087.35761
  20872929.2374      43613.62246     33988.43463
  23928217.7304   -1115859.49845   -803149.38961
  23833405.886    -2297574.517 4  -1689449.68021
 91  3 27 22 47 29.9990000  0  6G18G 2G11G19G16G 6
  21813646.1444    7351508.66047   5728438.25662
  21933688.323    -9742368.176 6  -7591406.14422
  22705715.3234   -3460857.33946  -2696763.23261
  20873983.8314      49145.03646     38298.62863
  23927566.667    -1119281.816 5   -805816.16921
  23827258.3864   -2329896.36744  -1714635.30861
 91  3 27 22 47 44.9990000  0  6G18G 2G11G19G16G 6
  21821533.519     7392950.902 7   5760730.84422
  21927987.300    -9772317.539 6  -7614743.20322
  22706556.2534   -3456438.59147  -2693320.06061
  20875046.0034      54727.73646     42648.79763
  23926939.261    -1122574.877 5   -808382.22221
  23821105.9484   -2362217.48544  -1739820.35861
 91  3 27 22 47 59.9990000  0  6G18G 2G11G19G16G 6
  21829435.558     7434478.831 7   5793090.19022
  21922303.597    -9802193.927 6  -7638023.39322
  22707428.401    -3451867.166 6  -2689757.90021
  20876115.1904      60361.81446     47038.98063
  23926336.511    -1125738.769 5   -810847.60321
  23814953.9484   -2394538.22144  -1765005.15761
 91  3 27 22 48 14.9990000  0  6G18G 2G11G19G16G 6
  21837354.1674    7476096.35447   5825519.36162
  21916633.589    -9831993.381 6  -7661243.63622
  22708325.761    -3447139.156 6  -2686073.73421
  20877200.1754      66051.05646     51472.16663
  23925758.3004   -1128769.41145   -813209.17161
  23808803.690    -2426854.547 4  -1790186.49921
 91  3 27 22 48 29.9990000  0  6G18G 2G11G19G16G 6
  21845292.597     7517801.675 7   5858016.93922
  21910976.980    -9861717.465 7  -7684405.14822
  22709255.7144   -3442256.26046  -2682268.88561
  20878293.7844      71794.14246     55947.29863
  23925206.925    -1131668.636 5   -815468.34021
  23802659.7534   -2459168.14244  -1815365.68461
 91  3 27 22 48 44.9990000  0  6G18G 2G11G19G16G 6
  21853243.6834    7559592.61247   5890581.23562
  21905335.237    -9891368.143 7  -7707509.45922
  22710214.3474   -3437220.54347  -2678344.95161
  20879393.4804      77589.05446     60462.81863
  23924680.073    -1134438.560 5   -817626.76021
  23796506.386    -2491481.073 4  -1840544.40321
 91  3 27 22 48 59.9990000  0  6G18G 2G11G19G16G 6
  21861214.4564    7601475.99247   5923217.57262
  21899707.784    -9920938.282 7  -7730551.02022
  22711202.5734   -3432024.85047  -2674296.36061
  20880510.6054      83442.93646     65024.28263
  23924179.276    -1137072.312 5   -819679.06021
  23790357.7454   -2523786.12544  -1865716.96161
 91  3 27 22 49 14.9990000  0  6G18G 2G11G19G16G 6
  21869201.105     7643440.383 7   5955917.01822
  21894093.534    -9950438.745 6  -7753538.27822
  22712219.6594   -3426680.14347  -2670131.66261
  20881632.6514      89345.14646     69623.40763
  23923702.925    -1139580.809 5   -821633.76721
  23784212.573    -2556094.381 4  -1890892.01921
 91  3 27 22 49 29.9990000  0  6G18G 2G11G19G16G 6
  21877201.526     7685486.672 7   5988680.28122
  21888492.081    -9979868.438 6  -7776470.40222
  22713267.3234   -3421185.47447  -2665850.10161
  20882763.0194      95296.83946     74261.10063
  23923248.5504   -1141962.93345   -823489.98661
  23778060.081    -2588404.811 4  -1916068.76721
 91  3 27 22 49 44.9990000  0  6G18G 2G11G19G16G 6
  21885217.394     7727611.026 7   6021504.38222
  21882904.284   -10009231.175 6  -7799350.35022
  22714341.308    -3415544.570 7  -2661454.58721
  20883905.2454     101294.17146     78934.34763
  23922820.1444   -1144222.56445   -825250.74961
  23771913.206    -2620721.195 4  -1941250.16821
 91  3 27 22 49 59.9990000  0  6G18G 2G11G19G16G 6
  21893248.284     7769812.291 7   6054388.40322
  21877330.198   -10038528.083 6  -7822178.99922
  22715440.1284   -3409758.53746  -2656945.99261
  20885056.3704     107336.19946     83642.42363
  23922412.745    -1146360.945 5   -826917.04721
  23765762.269    -2653044.560 5  -1966437.01021
 91  3 27 22 50 14.9990000  0  6G18G 2G11G19G16G 6
  21901296.722     7812099.600 7   6087339.47122
  21871770.175   -10067749.694 6  -7844948.97922
  22716570.0344   -3403818.07847  -2652317.06561
  20886218.2694     113432.33046     88392.66063
  23922030.331    -1148368.650 5   -828481.51921
  23759611.659    -2685365.674 4  -1991622.08721
 91  3 27 22 50 29.9990000  0  6G18G 2G11G19G16G 6
  21909358.112     7854471.461 7   6120356.42122
  21866224.355   -10096896.892 7  -7867660.97822
  22717728.253    -3397724.124 7
  20887388.0654     119581.78746
  23921672.425    -1150246.990 5   -829945.19421
  23753457.4874   -2717685.42044  -2016806.12161
 91  3 27 22 50 44.9990000  0  6G18G 2G11G19G16G 6
  21917435.573     7896922.726 7   6153435.24522
  21860689.487   -10125974.590 6  -7890318.81222
  22718916.3004   -3391481.63846
  20888566.3474     125779.75846
  23921337.784    -1152000.598 5   -831311.68621
  23747308.1904   -2750008.74645  -2041992.94161
 91  3 27 22 50 59.9990000  0  6G18G 2G11G19G16G 6
  21925532.151     7939455.882 7   6186577.88722
  21855171.909   -10154979.989 7  -7912920.31822
  22720135.3474   -3385087.81047  -2637722.04361
  20889755.7534     132029.02346    102883.60563
  23921028.0894   -1153627.18845   -832579.17861
  23741157.9564   -2782332.97245  -2067180.43961
 91  3 27 22 51 14.9990000  0  6G18G 2G11G19G16G 6
  21933640.206     7982070.451 7   6219783.95822
  21849665.214   -10183913.513 6  -7935465.80922
  22721379.8944   -3378543.16447  -2632622.32661
  20890953.2844     138329.02146    107792.69963
  23920744.1444   -1155127.07645   -833747.97761
  23735006.862    -2814658.598 4  -2092369.05521
 91  3 27 22 51 29.9990000  0  6G18G 2G11G19G16G 6
  21941765.276     8024765.078 7   6253052.41922
  21844171.2374  -10212776.27046  -7957956.17262
  22722656.4334   -3371848.68047  -2627405.84061
  20892161.6124     144679.12046    112740.83763
  23920483.355    -1156501.200 5   -834818.78021
  23728853.214    -2846986.465 5  -2117559.40621
 91  3 27 22 51 44.9990000  0  6G18G 2G11G19G16G 6
  21949904.050     8067545.556 7   6286387.77722
  21838693.925   -10241562.340 7  -7980386.77422
  22723956.8154   -3364998.55247  -2622068.08261
  20893382.5264     151085.41646    117732.76263
  23920247.183    -1157743.831 5   -835787.07221
  23722700.495    -2879310.783 4  -2142746.98721
 91  3 27 22 51 59.9990000  0  6G18G 2G11G19G16G 6
  21958059.448     8110405.036 7   6319784.69422
  21833229.089   -10270277.996 7  -8002762.50322
  22725288.7694   -3357999.19546  -2616614.03561
  20894610.9644     157541.47146    122763.45863
  23920032.8864   -1158861.68645   -836658.15861
  23716552.237    -2911638.061 4  -2167936.87621
 91  3 27 22 52 14.9990000  0  6G18G 2G11G19G16G 6
  21966231.886     8153346.287 7   6353245.33222
  21827779.042   -10298920.196 7  -8025080.99522
  22726651.4874   -3350847.54847  -2611041.32961
  20895847.6904     164050.17246    127835.17463
  23919843.823    -1159851.652 5   -837429.61721
  23710401.558    -2943965.274 4  -2193126.73921
 91  3 27 22 52 29.9990000  0  6G18G 2G11G19G16G 6
  21974418.237     8196373.418 6   6386772.88922
  21822343.355   -10327484.834 6  -8047339.04722
  22728040.8234   -3343539.54047  -2605346.77161
  20897098.6834     170615.84846    132951.28863
  23919683.714    -1160709.540 5   -838098.13321
  23704246.995    -2976288.167 4  -2218313.22021
 91  3 27 22 52 44.9990000  0  6G18G 2G11G19G16G 6
  21982621.948     8239479.614 6   6420362.05422
  21816920.386   -10355978.455 7  -8069541.76122
  22729461.2374   -3336081.71347  -2599535.48261
  20898355.1444     177232.18546    138106.87963
  23919539.6754   -1161442.24145   -838669.10061
  23698098.9954   -3008613.34745  -2243501.50761
 91  3 27 22 52 59.9990000  0  6G18G 2G11G19G16G 6
  21990841.269     8282660.651 7   6454009.53922
  21811511.386   -10384404.910 7  -8091692.14222
  22730907.0034   -3328478.12847  -2593610.61561
  20899627.8234     183895.20446    143298.84563
  23919428.5814   -1162054.00145   -839145.84261
  23691944.706    -3040944.878 5  -2268694.72621
 91  3 27 22 53 14.9990000  0  6G18G 2G11G19G16G 6
  21999070.948     8325918.719 6   6487717.04022
  21806114.120   -10412761.832 7  -8113788.33922
  22732381.2224   -3320726.39547  -2587570.31461
  20900901.9334     190607.44746    148529.17063
  23919335.519    -1162542.167 5   -839526.23921
  23685792.808    -3073280.269 5  -2293890.91921
 91  3 27 22 53 29.9990000  0  6G18G 2G11G19G16G 6
  22007319.050     8369258.040 7   6521487.85422
  21800732.9564  -10441044.79047  -8135826.91162
  22733887.9564   -3312822.11847  -2581411.13761
  20902187.5194     197373.43946    153801.37463
  23919270.0814   -1162902.28845   -839806.88661
  23679637.190    -3105615.084 5  -2319086.72321
 91  3 27 22 53 44.9990000  0  6G18G 2G11G19G16G 6
  22015581.925     8412677.693 7   6555321.27221
  21795364.940   -10469254.385 7  -8157808.31722
  22735421.3704   -3304766.00347  -2575133.64561
  20903485.2144     204192.58946    159115.00363
  23919220.315    -1163135.232 5   -839988.41221
  23673483.120    -3137949.960 5  -2344282.53621
 91  3 27 22 53 59.9990000  0  6G18G 2G11G19G16G 6
  22023858.808     8456173.502 7   6589214.03522
  21790008.948   -10497394.300 7  -8179735.41922
  22736980.6834   -3296561.82046  -2568740.77861
  20904793.3234     211061.27346    164467.23263
  23919201.9954   -1163244.97545
  23667332.417    -3170288.753 5  -2369481.39721
 91  3 27 22 54 14.9990000  0  6G18G 2G11G19G16G 6
  22032151.526     8499747.043 7   6623167.36021
  21784668.9254  -10525462.87847  -8201606.94762
  22738570.3784   -3288207.92846  -2562231.25761
  20906110.9404     217981.27646    169859.44963
  23919199.2144   -1163229.89245
  23661175.0504   -3202629.79245  -2394682.03461
 91  3 27 22 54 29.9990000  0  6G18G 2G11G19G16G 6
  22040457.284     8543396.720 7   6657180.01222
  21779339.8314  -10553461.50347  -8223423.95962
  22740189.3154   -3279705.73947  -2555606.18161
  20907435.7144     224951.47346    175290.77663
  23919228.8864   -1163091.42945
  23655023.026    -3234974.423 5  -2419885.43421
 91  3 27 22 54 44.9990000  0  6G18G 2G11G19G16G 6
  22048776.9484    8587125.89646   6691254.60962
  21774025.1594  -10581386.60547  -8245183.68662
  22741836.1124   -3271051.71147  -2548862.77961
  20908773.3394     231975.34246    180763.92863
  23919279.3004   -1162825.81645
  23648864.3154   -3267319.07445  -2445088.88061
 91  3 27 22 54 59.9990000  0  6G18G 2G11G19G16G 6
  22057113.8944    8630929.52146   6725387.21361
  21768725.4334  -10609242.77747  -8266889.69662
  22743510.8704   -3262250.57246  -2542004.74961
  20910121.5654     239048.43446    186275.42963
  23919353.5974   -1162437.91045   -839445.25561
  23642710.261    -3299668.418 5  -2470295.98621
 91  3 27 22 55 14.9990000  0  6G18G 2G11G19G16G 6
  22065464.081     8674808.409 6   6759578.46621
  21763437.6444  -10637028.90047  -8288541.12962
  22745214.5894   -3253301.40447  -2535031.37561
  20911474.7304     246171.79446    191826.10263
  23919450.823    -1161927.142 5   -839047.31121
  23636553.315    -3332021.489 5  -2495505.97621
 91  3 27 22 55 29.9990000  0  6G18G 2G11G19G16G 6
  22073830.5344    8718766.34946   6793831.31961
  21758163.8944  -10664740.88847  -8310134.79462
  22746944.2304   -3244200.13647  -2527939.48661
  20912842.1284     253349.56746    197419.17763
  23919572.9094   -1161289.50145   -838550.48461
  23630395.675    -3364374.188 5  -2520715.68021
 91  3 27 22 55 44.9990000  0  6G18G 2G11G19G16G 6
  22082208.5734    8762799.50646   6828142.78561
  21752904.4954  -10692382.37047  -8331673.51662
  22748705.8394   -3234950.56746  -2520732.02861
  20914218.1364     260578.16546    203051.84663
  23919717.120    -1160528.789 5   -837957.75621
  23624239.9564   -3396730.19645  -2545927.99961
 91  3 27 22 55 59.9990000  0  6G18G 2G11G19G16G 6
  22090602.230     8806904.613 6   6862510.31921
  21747657.3624  -10719956.42847  -8353159.70362
  22750493.8944   -3225555.67346  -2513411.33361
  20915598.5814     267854.68046    208721.85863
  23919883.7304   -1159647.91245   -837271.40661
  23618081.605    -3429092.605 5  -2571145.27821
 91  3 27 22 56 14.9990000  0  6G18G 2G11G19G16G 6
  22099009.7764    8851086.78346   6896937.89661
  21742423.8554  -10747458.06147  -8374589.45162
  22752309.1284   -3216010.48647  -2505973.54361
  20916997.0344     275184.32646    214433.27163
  23920075.3784   -1158642.05245   -836487.67161
  23611924.870    -3461456.134 5  -2596363.42721
 91  3 27 22 56 29.9990000  0  6G18G 2G11G19G16G 6
  22107432.0504    8895343.83347   6931423.81661
  21737203.5974  -10774888.84047  -8395963.99062
  22754154.8554   -3206316.71847  -2498419.96061
  20918398.6754     282565.67846    220184.97463
  23920289.8234   -1157512.64245   -835607.66161
  23605761.714    -3493822.674 5  -2621583.93221
 91  3 27 22 56 44.9990000  0  6G18G 2G11G19G16G 6
  22115866.5584    8939672.64146   6965965.65561
  21731997.7144  -10802251.48647  -8417285.43962
  22756025.3624   -3196477.07647  -2490752.71261
  20919815.3624     289995.92846    225974.78063
  23920526.081    -1156262.721 5   -834633.72721
  23599602.417    -3526194.870 5  -2646808.86021
 91  3 27 22 56 59.9990000  0  6G18G 2G11G19G16G 6
  22124316.6204    8984080.77846   7000569.30661
  21726805.0424  -10829538.38447  -8438547.86562
  22757927.4724   -3186484.03146  -2482965.92461
  20921241.8234     297482.88246    231808.77363
  23920791.2764   -1154884.86645   -833560.11161
  23593442.151    -3558565.088 5  -2672032.22521
 91  3 27 22 57 14.9990000  0  6G18G 2G11G19G16G 6
  22132782.4644    9028564.11246   7035231.56061
  21721623.0344  -10856753.31646  -8459754.21962
  22759858.6984   -3176341.45246  -2475062.63161
  20922673.0344     305022.82346    237684.05263
  23921074.417    -1153383.216 5   -832390.05021
  23587284.714    -3590937.106 5  -2697256.99521
 91  3 27 22 57 29.9990000  0  6G18G 2G11G19G16G 6
  22141261.0264    9073121.96547   7069951.86761
  21716459.7144  -10883896.67946  -8480904.79462
  22761815.597    -3166050.061 6  -2467043.37521
  20924119.6594     312615.19046    243600.18263
  23921384.433    -1151758.001 5   -831123.68821
  23581122.1054   -3623311.51745  -2722483.68261
 91  3 27 22 57 44.9990000  0  6G18G 2G11G19G16G 6
  22149754.0034    9117752.97447   7104729.18061
  21711306.7534  -10910969.43546  -8502000.35562
  22763801.5194   -3155610.86946  -2458908.95161
  20925574.4724     320259.13246    249556.50263
  23921715.847    -1150010.664 5   -829762.16721
  23574962.698    -3655689.243 5  -2747712.88521
 91  3 27 22 57 59.9990000  0  6G18G 2G11G19G16G 6
  22158260.1834    9162459.57946   7139565.40861
  21706170.401   -10937969.173 6  -8523039.01322
  22765817.7454   -3145021.28746  -2450657.33061
  20927039.7764     327957.30746    255555.07963
  23922075.0584   -1148138.58845   -828303.46061
  23568800.073    -3688067.774 5  -2772942.75221
 91  3 27 22 58 14.9990000  0  6G18G 2G11G19G16G 6
  22166784.1364    9207239.47247   7174458.74061
  21701045.1204  -10964897.96646  -8544022.39362
  22767861.8864   -3134283.42346  -2442290.17861
  20928512.7304     335707.72146    261594.36863
  23922454.1754   -1146143.62745   -826748.99461
  23562638.7064   -3720449.14246  -2798174.81561
 91  3 27 22 58 29.9990000  0  6G18G 2G11G19G16G 6
  22175322.1054    9252094.00647   7209410.22461
  21695935.433   -10991754.254 6  -8564949.28722
  22769932.6754   -3123395.86246  -2433806.37161
  20929999.1124     343512.18946    267675.77363
  23922859.0814   -1144024.85045   -825098.02361
  23556473.292    -3752831.835 5  -2823407.92121
 91  3 27 22 58 44.9990000  0  6G18G 2G11G19G16G 6
  22183867.675     9297018.795 7   7244416.44821
  21690837.1364  -11018541.90846  -8585822.68762
  22772033.4404   -3112362.65146  -2425209.07362
  20931492.6674     351366.78546    273796.23963
  23923282.753    -1141786.200 5   -823353.67221
  23550311.175    -3785219.717 5  -2848645.05521
 91  3 27 22 58 59.9990000  0  6G18G 2G11G19G16G 6
  22192432.292     9342019.279 7   7279481.67721
  21685752.558   -11045255.252 6  -8606638.19222
  22774160.7694   -3101178.09046  -2416493.83262
  20933002.3864     359277.43146    279960.37963
  23923734.4724   -1139421.96245   -821511.44561
  23544143.6054   -3817607.23845  -2873881.92261
 91  3 27 22 59 14.9990000  0  6G18G 2G11G19G16G 6
  22201011.6444    9387095.75847   7314606.10761
  21680684.5034  -11071893.62946  -8627395.27462
  22776317.5264   -3089841.69946  -2407660.29062
  20934514.3394     367244.60146    286168.56663
  23924207.6124   -1136931.81245   -819571.12661
  23537979.4404   -3849993.65045  -2899117.88961
 91  3 27 22 59 29.9990000  0  6G18G 2G11G19G16G 6
  22209600.0584    9432240.10047   7349783.42161
  21675627.1284  -11098465.07746  -8648100.21262
  22778504.9174   -3078361.71246  -2398714.86261
  20936039.8784     375260.24846    292414.52463
  23924703.6984   -1134323.99045   -817539.10961
  23531820.940    -3882387.196 5  -2924359.46021
 91  3 27 22 59 44.9990000  0  6G18G 2G11G19G16G 6
  22218204.6904    9477455.52547   7385016.12961
  21670584.519   -11124966.200 6  -8668750.35722
  22780716.6054   -3066734.67346  -2389654.83262
  20937575.4564     383328.10746    298701.17463
  23925223.3784   -1131594.94745   -815412.62861
  23525655.9954   -3914784.37245  -2949603.82661
 91  3 27 22 59 59.9990000  0  6G18G 2G11G19G16G 6
  22226823.3944    9522738.54247   7420301.50561
  21665554.519   -11151399.993 6  -8689348.03922
  22782954.8394   -3054963.67246  -2380482.63662
  20939122.0344     391445.14946    305026.14563
  23925767.3394   -1128747.79445   -813194.14161
  23519489.9404   -3947188.11845  -2974853.32461
 91  3 27 23  0 14.9990000  0  6G18G 2G11G19G16G 6
  22235453.3004    9568094.77347   7455643.92761
  21660536.565   -11177760.661 6  -8709888.73622
  22785224.987    -3043043.056 6  -2371193.86122
  20940673.1514     399617.36246    311394.10463
  23926330.706    -1125777.084 5   -810879.35421
  23513324.519    -3979592.705 5  -3000103.48921
 91  3 27 23  0 29.9990000  0  6G18G 2G11G19G16G 6
  22244095.8314    9613525.01346   7491044.01761
  21655535.128   -11204047.131 6  -8730371.61822
  22787519.8314   -3030971.90546  -2361787.77462
  20942242.0814     407845.91846    317805.97063
  23926918.5504   -1122682.02045   -808467.68061
  23507157.456    -4011997.120 5  -3025353.49821
 91  3 27 23  0 44.9990000  0  6G18G 2G11G19G16G 6
  22252757.2534    9659028.13846   7526500.90261
  21650545.386   -11230260.401 6  -8750797.46422
  22789848.3784   -3018751.14346  -2352265.11262
  20943815.9564     416129.94446    324261.05763
  23927526.9334   -1119463.39945   -805959.70561
  23500991.9404   -4044402.20745  -3050604.05061
 91  3 27 23  0 59.9990000  0  6G18G 2G11G19G16G 6
  22261432.011     9704601.723 6   7562012.67721
  21645573.8624  -11256402.61046  -8771167.93562
  22792198.2614   -3006383.08346  -2342627.67262
  20945403.6284     424467.35546    330757.74663
  23928169.5734   -1116123.65845   -803357.37961
  23494822.5974   -4076810.12745  -3075856.79361
 91  3 27 23  1 14.9990000  0  6G18G 2G11G19G16G 6
  22270113.620     9750244.615 6   7597578.45521
  21640612.081   -11282474.591 6  -8791483.68022
  22794579.7614   -2993868.77546  -2332876.27162
  20947000.7694     432857.34646    337295.40663
  23928826.7224   -1112663.69645   -800661.38161
  23488659.456    -4109221.862 5  -3101112.52821
 91  3 27 23  1 29.9990000  0  6G18G 2G11G19G16G 6
  22278812.878     9795958.430 6   7633199.50721
  21635662.4724  -11308474.29146  -8811743.10262
  22796991.7534   -2981206.21946  -2323009.36262
  20948608.2694     441301.75446    343875.46963
  23929509.542    -1109081.602 5   -797870.21021
  23482487.745    -4141635.334 5  -3126369.60621
 91  3 27 23  1 44.9990000  0  6G18G 2G11G19G16G 6
  22287527.0974    9841742.59346   7668875.37261
  21630730.3394  -11334402.21046  -8831946.59062
  22799429.7764   -2968396.16846  -2313027.51062
  20950223.9954     449800.25446    350497.68363
  23930210.3864   -1105378.26145   -794984.60661
  23476319.4724   -4174051.12545  -3151628.49461
 91  3 27 23  1 59.9990000  0  6G18G 2G11G19G16G 6
  22296252.511     9887600.554 6   7704608.74821
  21625809.0344  -11360254.51746  -8852091.15762
  22801894.8624   -2955434.79446  -2302927.74661
  20951853.1124     458356.78046    357165.10963
  23930939.730    -1101549.909 5   -792001.50621
  23470148.9874   -4206465.38445  -3176886.18861
 91  3 27 23  2 14.9990000  0  6G18G 2G11G19G16G 6
  22304992.675     9933522.571 6   7740392.03321
  21620903.995   -11386040.856 7  -8872184.32022
  22804388.8704   -2942331.73146  -2292717.58261
  20953489.7534     466962.03446    363870.50063
  23931693.1594   -1097606.47445   -788928.79361
  23463978.097    -4238887.504 5  -3202150.00721
 91  3 27 23  2 29.9990000  0  6G18G 2G11G19G16G 6
  22313743.7064    9979516.81946   7776231.61261
  21616010.2614  -11411752.83347  -8892219.53962
  22806910.9404   -2929078.59146  -2282390.46061
  20955139.4644     475624.73146    370620.65563
  23932460.3784   -1093539.62045   -785759.87661
  23457807.714    -4271309.169 5  -3227413.46721
 91  3 27 23  2 44.9990000  0  6G18G 2G11G19G16G 6
  22322508.878    10025579.388 6   7812124.41921
  21611131.315   -11437393.875 7  -8912199.48922
  22809459.8084   -2915678.92046  -2271949.17562
  20956798.6984     484341.37646    377412.84863
  23933258.495    -1089352.456 5   -782497.22521
  23451638.5264   -4303733.72045  -3252679.18761
 91  3 27 23  2 59.9990000  0  6G18G 2G11G19G16G 6
  22331289.1834   10071713.37546   7848072.88261
  21606265.5264  -11462960.76847  -8932121.65362
  22812040.339    -2902129.609 6  -2261391.28321
  20958468.2224     493115.20146    384249.59663
  23934081.175    -1085042.009 5   -779138.52521
  23445467.0504   -4336158.04645  -3277944.71761
 91  3 27 23  3 14.9990000  0  6G18G 2G11G19G16G 6
  22340079.636    10117913.049 6   7884072.52721
  21601413.2374  -11488458.84847  -8951990.20562
  22814646.495    -2888436.125 6  -2250721.05222
  20960144.9804     501940.84446    391126.72563
  23934922.839    -1080614.296 5   -775688.41921
  23439297.097    -4368587.507 5  -3303214.26521
 91  3 27 23  3 29.9990000  0  6G18G 2G11G19G16G 6
  22348886.511    10164184.706 6   7920128.25221
  21596576.0034  -11513881.94747  -8971800.32362
  22817279.3394   -2874592.35846  -2239933.71162
  20961838.0424     510824.86546    398049.34063
  23935792.0504   -1076062.84045   -772141.91561
  23433124.2694   -4401015.91045  -3328482.98561
 91  3 27 23  3 44.9990000  0  6G18G 2G11G19G16G 6
  22357702.597    10210520.252 6   7956233.76221
  21591750.6444  -11539237.79547  -8991558.04362
  22819939.456    -2860606.143 7  -2229035.38322
  20963537.5194     519759.63146    405011.49763
  23936682.776    -1071395.735 5   -768505.28721
  23426956.0344   -4433450.88845  -3353756.82761
 91  3 27 23  3 59.9990000  0  6G18G 2G11G19G16G 6
  22366535.284    10256927.806 6   7992395.38521
  21586940.7764  -11564517.67747  -9011256.56562
  22822631.7374   -2846468.94947  -2218019.39762
  20965249.4564     528753.97346    412020.08063
  23937589.9484   -1066604.29845   -764771.77161
  23420778.136    -4465883.809 5  -3379029.05021
 91  3 27 23  4 14.9990000  0  6G18G 2G11G19G16G 6
  22375378.151    10303402.850 6   8028609.59821
  21582142.5264  -11589725.99347  -9030899.32062
  22825349.722    -2832185.189 7  -2206889.21322
  20966970.4644     537803.48946    419071.65463
  23938520.4174   -1061692.91945   -760944.80461
  23414609.6594   -4498319.00145  -3404303.06761
 91  3 27 23  4 29.9990000  0  6G18G 2G11G19G16G 6
  22384234.847    10349946.487 6   8064877.25621
  21577358.7374  -11614861.57947  -9050485.39562
  22828095.0814   -2817754.05347  -2195644.18662
  20968704.5734     546909.17546    426166.99563
  23939483.050    -1056660.926 5   -757023.82221
  23408436.6284   -4530755.45545  -3429578.06061
 91  3 27 23  4 44.9990000  0  6G18G 2G11G19G16G 6
  22393105.933    10396558.591 6   8101198.26921
  21572589.2694  -11639924.20847  -9070014.62762
  22830869.480    -2803175.162 7  -2184284.02522
  20970447.3154     556071.64646    433306.58163
  23940463.4724   -1051508.07045   -753008.69161
  23402263.6594   -4563192.70045  -3454853.66061
 91  3 27 23  4 59.9990000  0  6G18G 2G11G19G16G 6
  22401987.112    10443235.309 6   8137569.63021
  21567833.9404  -11664917.29947  -9089489.67062
  22833671.9874   -2788452.17147  -2172811.57062
  20972202.3704     565287.41346    440487.70062
  23941470.386    -1046238.047 5   -748902.26021
  23396089.6904   -4595634.27745  -3480132.64561
 91  3 27 23  5 14.9990000  0  6G18G 2G11G19G16G 6
  22410881.644    10489975.650 6   8173990.56621
  21563092.7534  -11689841.52647  -9108911.05262
  22836500.6124   -2773585.82347  -2161227.41562
  20973965.8944     574555.85646    447709.86263
  23942491.5654   -1040851.36445   -744704.94661
  23389915.511    -4628080.801 5  -3505415.47721
 91  3 27 23  5 29.9990000  0  6G18G 2G11G19G16G 6
  22419789.706    10536781.226 6   8210462.33221
  21558362.7534  -11714695.12447  -9128277.40662
  22839358.6364   -2758574.63947  -2149530.40062
  20975741.3314     583878.94346    454974.60363
  23943543.3084   -1035346.81145   -740415.76061
  23383742.1204   -4660530.59145  -3530700.87461
 91  3 27 23  5 44.9990000  0  6G18G 2G11G19G16G 6
  22428708.0114   10583649.49746   8246982.94561
  21553645.0264  -11739480.59747  -9147590.67262
  22842241.8234   -2743420.96147  -2137722.34562
  20977522.8864     593254.33946    462280.10463
  23944607.980    -1029727.019 5   -736036.79621
  23377564.9724   -4692985.98445  -3555990.61461
 91  3 27 23  5 59.9990000  0  6G18G 2G11G19G16G 6
  22437638.987    10630585.194 6   8283556.10121
  21548943.3314  -11764192.83347  -9166846.86762
  22845151.6444   -2728119.94547  -2125799.48262
  20979318.7304     602687.24246    469630.41263
  23945701.026    -1023986.988 5   -731564.11921
  23371389.2144   -4725441.90145  -3581280.78061
 91  3 27 23  6 14.9990000  0  6G18G 2G11G19G16G 6
  22446584.362    10677591.188 6   8320184.04021
  21544254.0264  -11788828.51847  -9186043.41062
  22848091.5194   -2712668.52447  -2113759.42062
  20981124.8554     612180.90246    477028.06763
  23946819.2064   -1018123.45745   -726995.23761
  23365213.112    -4757895.101 5  -3606568.81921
 91  3 27 23  6 29.9990000  0  6G18G 2G11G19G16G 6
  22455541.925    10724660.234 6   8356861.10921
  21539579.3704  -11813394.54547  -9205185.67362
  22851059.1674   -2697073.61647  -2101607.55962
  20982942.3084     621728.68546    484467.89363
  23947954.2534   -1012143.41345   -722335.53261
  23359038.144    -4790352.529 5  -3631860.14121
 91  3 27 23  6 44.9990000  0  6G18G 2G11G19G16G 6
  22464510.4094   10771797.01446   8393590.94461
  21534918.8394  -11837886.43547  -9224270.17062
  22854057.2374   -2681330.60047  -2089340.27862
  20984769.1124     631335.32846    491953.59063
  23949118.237    -1006042.343 5   -717581.51821
  23352862.706    -4822809.313 5  -3657150.96421
 91  3 27 23  6 59.9990000  0  6G18G 2G11G19G16G 6
  22473494.542    10818999.776 6   8430372.21521
  21530272.6124  -11862305.50747  -9243297.92662
  22857079.5584   -2665441.05847  -2076958.83262
  20986608.1054     640999.41946    499484.05063
  23950301.058     -999821.898 5   -712734.48321
  23346686.159    -4855266.949 5  -3682442.46321
 91  3 27 23  7 14.9990000  0  6G18G 2G11G19G16G 6
  22482487.394    10866268.323 6   8467204.74521
  21525638.4404  -11886651.73447  -9262268.91462
  22860131.698    -2649405.233 7  -2064463.40022
  20988458.2144     650720.97846    507059.29163
  23951506.6594    -993482.28044   -707794.59661
  23340508.378    -4887725.475 5  -3707734.64121
 91  3 27 23  7 29.9990000  0  6G18G 2G11G19G16G 6
  22491495.565    10913599.873 6   8504086.35021
  21521018.4484  -11910927.58847  -9281185.07562
  22863210.730    -2633225.602 7  -2051855.91522
  20990322.8084     660497.74946    514677.55063
  23952735.3784    -987026.42144   -702764.14161
  23334330.769    -4920187.269 5  -3733029.38221
 91  3 27 23  7 44.9990000  0  6G18G 2G11G19G16G 6
  22500514.448    10960993.629 6   8541016.43721
  21516412.2454  -11935133.70347  -9300046.89262
  22866317.8864   -2616903.07847  -2039137.07662
  20992188.6904     670329.12546    522338.36263
  23953984.714     -980454.744 4   -697643.42721
  23328156.151    -4952652.835 5  -3758327.05021
 91  3 27 23  7 59.9990000  0  6G18G 2G11G19G16G 6
  22509546.0974   11008452.69146   8577997.40561
  21511821.1284  -11959266.49047  -9318851.57162
  22869450.6284   -2600434.17947  -2026304.16662
  20994072.2844     680218.79146    530044.59163
  23955258.2534    -973764.19745   -692430.11061
  23321976.667    -4985118.920 5  -3783625.12821
 91  3 27 23  8 14.9990000  0  6G18G 2G11G19G16G 6
  22518589.4804   11055976.39146   8615028.74061
  21507242.5264  -11983326.49147  -9337599.54262
  22872613.0654   -2583819.38847  -2013357.58561
  20995965.6514     690166.35346    537795.93563
  23956553.675     -966955.013 5   -687124.32121
  23315795.7374   -5017585.73445  -3808923.77161
 91  3 27 23  8 29.9990000  0  6G18G 2G11G19G16G 6
  22527645.1054   11103566.34946   8652111.70661
  21502676.722   -12007311.827 7  -9356289.32822
  22875801.831    -2567056.998 6  -2000295.99422
  20997867.0974     700173.89646    545594.01963
  23957874.6514    -960025.82545   -681725.00161
  23309618.3234   -5050051.38145  -3834221.50661
 91  3 27 23  8 44.9990000  0  6G18G 2G11G19G16G 6
  22536713.4014   11151218.02646   8689242.76061
  21498127.3474  -12031226.57247  -9374924.10862
  22879018.808    -2550151.339 6  -1987122.77321
  20999784.5734     710237.35546    553435.66463
  23959214.065     -952980.788 5   -676235.43821
  23303437.386    -5082520.009 5  -3859521.53321
 91  3 27 23  8 59.9990000  0  6G18G 2G11G19G16G 6
  22545793.1594   11198931.58546   8726422.02861
  21493589.0034  -12055070.70647  -9393503.86062
  22882263.0974   -2533102.41147  -1973837.89361
  21001708.9174     720356.98846    561321.09563
  23960576.1054    -945819.95845   -670655.66061
  23297258.495    -5114991.344 5  -3884823.69621
 91  3 27 23  9 14.9990000  0  6G18G 2G11G19G16G 6
  22554884.644    11246705.564 6   8763648.37621
  21489065.8784  -12078845.06947  -9412029.25262
  22885535.1364   -2515911.22046  -1960442.16161
  21003646.8234     730532.03646    569249.68963
  23961960.995     -938544.150 4   -664986.27821
  23291079.4644   -5147466.32945  -3910128.69861
 91  3 27 23  9 29.9990000  0  6G18G 2G11G19G16G 6
  22563986.6904   11294537.01746   8800919.50961
  21484553.7614  -12102552.35647  -9430502.36862
  22888833.6444   -2498580.59146  -1946937.77761
  21005593.4954     740759.87546    577219.43763
  23963365.4564    -931156.39445   -659229.68361
  23284897.284    -5179947.760 5  -3935438.71821
 91  3 27 23  9 44.9990000  0  6G18G 2G11G19G16G 6
  22573100.2924   11342427.79046   8838236.86861
  21480056.214   -12126190.448 7  -9448921.57922
  22892156.151    -2481108.423 6  -1933323.11821
  21007548.6444     751042.58646    585231.93263
  23964797.7764    -923654.74045   -653384.32361
  23278709.761    -5212433.360 5  -3960751.98921
 91  3 27 23  9 59.9990000  0  6G18G 2G11G19G16G 6
  22582225.4404   11390381.28146   8875603.10161
  21475571.1674  -12149756.04347  -9467284.29362
  22895508.5344   -2463491.64846  -1919595.76861
  21009516.9644     761383.85046    593290.05263
  23966247.0344    -916036.37045   -647448.03261
  23272532.4644   -5244919.79745  -3986065.91961
 91  3 27 23 10 14.9990000  0  6G18G 2G11G19G16G 6
  22591363.456    11438398.568 6   8913019.03221
  21471101.1594  -12173247.57547  -9485589.29462
  22898889.2374   -2445728.95546  -1905754.70861
  21011495.5734     771785.10246    601394.91763
  23967717.4874    -908299.69145   -641419.56461
  23266351.6444   -5277405.59445  -4011379.34361
 91  3 27 23 10 29.9990000  0  6G18G 2G11G19G16G 6
  22600512.0654   11486481.38346   8950486.03361
  21466646.097   -12196662.960 7  -9503834.96722
  22902297.503    -2427818.240 6  -1891798.32121
  21013488.6984     782248.60846    609548.29163
  23969209.7844    -900442.62845   -635297.25261
  23260171.714    -5309888.424 5  -4036690.46921
 91  3 27 23 10 44.9990000  0  6G18G 2G11G19G16G 6
  22609672.565    11534623.250 6   8987999.03921
  21462202.401   -12220008.549 7  -9522026.25322
  22905734.214    -2409766.081 6  -1877731.71721
  21015487.3624     792768.24546    617745.40963
  23970729.198     -892471.724 5   -629086.22221
  23253988.2064   -5342374.67745  -4062004.23461
 91  3 27 23 10 59.9990000  0  6G18G 2G11G19G16G 6
  22618845.1514   11582824.91846   9025558.65061
  21457772.0424  -12243283.39447  -9540162.41262
  22909196.987    -2391571.657 6  -1863554.26421
  21017500.7064     803345.04446    625987.06563
  23972266.7224    -884386.56445   -622786.17961
  23247805.456    -5374863.434 5  -4087319.96521
 91  3 27 23 11 14.9990000  0  6G18G 2G11G19G16G 6
  22628031.745    11631085.693 6   9063164.32221
  21453357.401   -12266487.970 7  -9558243.81822
  22912685.1984   -2373235.56846  -1849266.41561
  21019523.8474     813978.69546    634273.02663
  23973829.261     -876187.368 5   -616397.31621
  23241624.2454   -5407355.14245  -4112638.00861
 91  3 27 23 11 29.9990000  0  6G18G 2G11G19G16G 6
  22637226.190    11679410.688 6   9100820.02221
  21448955.2224  -12289616.84147  -9576266.22662
  22916202.401    -2354752.591 6  -1834864.11121
  21021563.1284     824674.59246    642607.48663
  23975409.9404    -867869.09845   -609915.59661
  23235439.480    -5439844.274 5  -4137954.01421
 91  3 27 23 11 44.9990000  0  6G18G 2G11G19G16G 6
  22646433.042    11727796.132 6   9138522.82921
  21444568.3624  -12312673.42247  -9594232.30462
  22919747.4874   -2336126.19246  -1820350.04561
  21023606.6124     835429.55046    650987.96963
  23977017.5504    -859435.23745   -603343.86261
  23229255.472    -5472334.229 5  -4163270.69421
 91  3 27 23 11 59.9990000  0  6G18G 2G11G19G16G 6
  22655652.722    11776241.675 6   9176272.46721
  21440194.9334  -12335658.00047  -9612142.27962
  22923317.9404   -2317356.80046  -1805724.54961
  21025666.1834     846243.27646    659414.24563
  23978645.980     -850886.222 5   -596682.40821
  23223071.386    -5504825.290 5  -4188588.22621
 91  3 27 23 12 14.9990000  0  6G18G 2G11G19G16G 6
  22664882.034    11824741.619 6   9214064.50321
  21435832.597   -12358575.680 7  -9630000.12722
  22926915.769    -2298449.881 6  -1790991.90021
  21027733.6674     857110.76346    667882.41563
  23980292.823     -842227.687 5   -589935.57421
  23216888.8394   -5537322.57945  -4213910.62061
 91  3 27 23 12 29.9990000  0  6G18G 2G11G19G16G 6
  22674123.4404   11873301.15646   9251902.96861
  21431486.6054  -12381421.23047  -9647801.76862
  22930541.3084   -2279399.74946  -1776147.65561
  21029813.8474     868037.58246    676396.81763
  23981961.1594    -833453.81745   -583098.89461
  23210705.628    -5569820.483 5  -4239233.46721
 91  3 27 23 12 44.9990000  0  6G18G 2G11G19G16G 6
  22683375.120    11921916.112 6   9289784.61721
  21427149.573   -12404198.735 7  -9665550.39022
  22934192.3154   -2260210.92346  -1761195.32261
  21031902.0974     879019.58046    684954.20963
  23983648.6904    -824569.30045   -576175.98361
  23204519.3234   -5602323.20845  -4264560.09061
 91  3 27 23 12 59.9990000  0  6G18G 2G11G19G16G 6
  22692634.2764   11970591.36546   9327713.25961
  21422830.690   -12426903.219 7  -9683242.11922
  22937869.878    -2240878.557 6  -1746131.15721
  21034003.9644     890062.06646    693558.74163
  23985367.7694    -815569.22945   -569163.06361
  23198334.0734   -5634825.56845  -4289886.42361
 91  3 27 23 13 14.9990000  0  6G18G 2G11G19G16G 6
  22701912.0654   12019328.76946   9365690.33461
  21418524.667   -12449532.004 7  -9700874.85722
  22941577.7924   -2221400.27746  -1730953.28761
  21036116.5734     901167.53346    702212.35063
  23987093.7694    -806451.19845   -562058.21261
  23192150.7764   -5667325.08945  -4315210.55061
 91  3 27 23 13 29.9990000  0  6G18G 2G11G19G16G 6
  22711196.683    12068121.174 6   9403710.24921
  21414231.261   -12472092.335 7  -9718454.25722
  22945311.870    -2201783.376 6  -1715667.41321
  21038241.0034     912329.02846    710909.62163
  23988854.5584    -797222.59445   -554867.18461
  23185966.1594   -5699828.84045  -4340537.96861
 91  3 27 23 13 44.9990000  0  6G18G 2G11G19G16G 6
  22720491.737    12116968.570 6   9441773.01721
  21409952.901   -12494583.815 7  -9735980.00722
  22949071.526    -2182027.605 6  -1700273.29821
  21040374.6674     923546.93046    719650.84963
  23990635.1124    -787883.29245   -547589.92461
  23179782.628    -5732336.511 5  -4365868.44921
 91  3 27 23 13 59.9990000  0  6G18G 2G11G19G16G 6
  22729795.909    12165869.279 6   9479877.32721
  21405684.808   -12517007.946 7  -9753453.27522
  22952855.237    -2162134.604 6  -1684772.27921
  21042523.5584     934819.90746    728434.98363
  23992430.9334    -778435.06845   -540227.77561
  23173593.519    -5764849.397 5  -4391202.98821
 91  3 27 23 14 14.9990000  0  6G18G 2G11G19G16G 6
  22739113.605    12214826.025 6   9518025.30721
  21401430.433   -12539361.773 7  -9770871.76222
  22956669.1054   -2142101.78846  -1669162.30461
  21044676.7304     946150.91746    737264.34263
  23994251.925     -768875.151 5   -532778.59621
  23167407.956    -5797364.766 5  -4416539.48721
 91  3 27 23 14 29.9990000  0  6G18G 2G11G19G16G 6
  22748441.065    12263835.110 6   9556214.06221
  21397189.831   -12561648.650 7  -9788238.07922
  22960506.698    -2121932.463 6  -1653445.95521
  21046842.7764     957536.90746    746136.53363
  23996088.6204    -759207.05245   -525245.13661
  23161217.8624   -5829885.71945  -4441880.31461
 91  3 27 23 14 44.9990000  0  6G18G 2G11G19G16G 6
  22757775.917    12312898.060 6   9594444.79821
  21392961.003   -12583866.711 7  -9805550.77223
  22964370.0894   -2101625.10946  -1637622.04961
  21049021.3084     968979.81346    755053.08463
  23997948.0344    -749428.78744   -517625.81261
  23155029.7764   -5862410.39845  -4467224.04661
 91  3 27 23 14 59.9990000  0  6G18G 2G11G19G16G 6
  22767122.0814   12362012.86246   9632715.94061
  21388745.269   -12606018.000 7  -9822811.43723
  22968260.6444   -2081181.65846  -1621692.09461
  21051210.1364     980477.84346    764012.58663
  23999831.050     -739542.533 5   -509922.35621
  23148840.378    -5894940.683 5  -4492572.15321
 91  3 27 23 15 14.9990000  0  6G18G 2G11G19G16G 6
  22776480.839    12411186.538 6   9671032.94921
  21384544.112   -12628095.110 7  -9840014.30322
  22972179.6054   -2060594.90746  -1605650.47061
  21053410.1594     992038.28846    773020.72063
  24001728.2224    -729541.43744   -502129.40661
  23142649.386    -5927469.214 5  -4517918.89821
 91  3 27 23 15 29.9990000  0  6G18G 2G11G19G16G 6
  22785849.589    12460415.567 6   9709393.09021
  21380356.894   -12650101.328 7  -9857161.92622
  22976122.511    -2039868.366 6  -1589499.96321
  21055620.2614    1003658.00646    782075.04263
  24003661.901     -719428.951 5   -494249.65521
  23136456.581    -5959999.187 5  -4543266.76821
 91  3 27 23 15 44.9990000  0  6G18G 2G11G19G16G 6
  22795226.9724   12509698.34446   9747795.10861
  21376183.050   -12672037.702 7  -9874255.13122
  22980093.1754   -2019003.21546  -1573241.43661
  21057842.3704    1015336.13146    791174.87363
  24005603.847     -709206.301 5   -486284.06921
  23130268.5264   -5992531.55245  -4568616.49761
 91  3 27 23 15 59.9990000  0  6G18G 2G11G19G16G 6
  22804613.6984   12559032.35046   9786237.04761
  21372020.2534  -12693906.62847  -9891295.78262
  22984090.675    -1998002.062 6  -1556876.92421
  21060076.3234    1027070.33646    800318.41163
  24007569.620     -698876.266 5   -478234.79021
  23124075.7454   -6025068.84345  -4593970.06861
 91  3 27 23 16 14.9990000  0  6G18G 2G11G19G16G 6
  22814013.9404   12608418.24546   9824719.41961
  21367871.003   -12715707.348 7  -9908283.28122
  22988110.7614   -1976864.23246  -1540405.90361
  21062318.4564    1038861.57946    809506.38863
  24009558.1834    -688437.94345   -470101.16961
  23117885.550    -6057610.031 6  -4619326.66821
 91  3 27 23 16 29.9990000  0  6G18G 2G11G19G16G 6
  22823420.1904   12657855.99446   9863242.18761
  21363735.644   -12737439.612 7  -9925217.43822
  22992160.6444   -1955589.72746  -1523828.36761
  21064575.4804    1050710.02446    818738.94463
  24011564.519     -677891.405 5   -461883.18421
  23111690.0344   -6090154.98746  -4644686.22061
 91  3 27 23 16 44.9990000  0  6G18G 2G11G19G16G 6
  22832838.2454   12707343.45846   9901803.69261
  21359613.784   -12759105.074 7  -9942099.54122
  22996233.3474   -1934180.42646  -1507145.80361
  21066839.6834    1062614.32546    828015.01763
  24013596.8084    -667238.34645   -453582.20661
  23105495.2764   -6122705.27246  -4670049.91361
 91  3 27 23 16 59.9990000  0  6G18G 2G11G19G16G 6
  22842264.8474   12756882.52946   9940405.42261
  21355503.331   -12780701.700 7  -9958928.00222
  23000334.315    -1912634.434 6  -1490356.73021
  21069116.8314    1074576.66846    837336.32763
  24015638.0114    -656477.16545   -445196.97861
  23099299.9874   -6155258.69246  -4695416.05861
 91  3 27 23 17 14.9990000  0  6G18G 2G11G19G16G 6
  22851701.2144   12806473.68846   9979047.73061
  21351407.198   -12802228.980 7  -9975702.43022
  23004461.300    -1890951.327 7  -1473460.82021
  21071402.7844    1086597.68846    846703.35063
  24017708.019     -645607.404 5   -436727.13121
  23093105.4724   -6187814.72046  -4720784.20961
 91  3 27 23 17 29.9990000  0  6G18G 2G11G19G16G 6
  22861151.2064   12856117.59846  10017731.14561
  21347323.847   -12823685.905 7  -9992422.03722
  23008612.3944   -1869130.03646  -1456457.22261
  21073700.9484    1098678.43846    856116.92163
  24019796.2374    -634627.89945   -428171.79061
  23086909.3944   -6220371.95946  -4746153.33461
 91  3 27 23 17 44.9990000  0  6G18G 2G11G19G16G 6
  22870605.0734   12905814.01246  10056455.47661
  21343255.300   -12845072.564 7 -10009086.89222
  23012792.331    -1847171.021 6  -1439346.31521
  21076011.8864    1110819.18946    865577.24563
  24021906.558     -623539.362 5   -419531.46621
  23080715.784    -6252930.791 6  -4771523.68321
 91  3 27 23 17 59.9990000  0  6G18G 2G11G19G16G 6
  22880072.245    12955562.815 6  10095220.64421
  21339197.730   -12866389.085 7 -10025697.08922
  23016995.206    -1825074.542 6  -1422128.30821
  21078337.5734    1123019.73546    875084.16263
  24024039.7064    -612342.00045   -410806.37061
  23074515.956    -6285491.140 6  -4796895.22421
 91  3 27 23 18 14.9990000  0  6G18G 2G11G19G16G 6
  22889548.6364   13005362.87146  10134025.72661
  21335154.565   -12887635.811 7 -10042252.90622
  23021227.0194   -1802841.20546  -1404803.62461
  21080665.3704    1135279.76146    884637.43363
  24026191.940     -601036.605 5   -401997.07621
  23068319.901    -6318053.469 6  -4822268.29221
 91  3 27 23 18 29.9990000  0  6G18G 2G11G19G16G 6
  22899037.4174   13055211.99246  10172869.04361
  21331124.331   -12908814.625 7 -10058755.79422
  23025484.7304   -1780473.02846  -1387373.88861
  21083011.0974    1147597.44146    894235.62463
  24028359.269     -589624.772 5   -393104.84721
  23062123.519    -6350619.458 6  -4847644.22521
 91  3 27 23 18 44.9990000  0  6G18G 2G11G19G16G 6
  22908531.1834   13105112.77746  10211752.61761
  21327108.081   -12929922.864 7 -10075203.69322
  23029767.394    -1757967.490 6  -1369837.11921
  21085365.2694    1159975.70346    903881.02363
  24030555.120     -578104.259 5   -384127.92721
  23055923.7844   -6383186.38446  -4873020.87361
 91  3 27 23 18 59.9990000  0  6G18G 2G11G19G16G 6
  22918036.1284   13155060.34646  10250672.64761
  21323104.019   -12950965.083 7 -10091600.15322
  23034074.394    -1735329.422 6  -1352197.08921
  21087733.8554    1172410.05846    913570.12563
  24032765.3394    -566479.73045   -375069.96861
  23049726.706    -6415758.806 6  -4898401.79921
 91  3 27 23 19 14.9990000  0  6G18G 2G11G19G16G 6
  22927550.5894   13205056.54946  10289630.57261
  21319111.737   -12971939.123 7 -10107943.48622
  23038407.448    -1712556.751 6  -1334452.16821
  21090109.6594    1184902.90846    923304.81263
  24034996.7924    -554749.36045   -365929.50261
  23043528.4644   -6448334.41446  -4923785.21461
 91  3 27 23 19 29.9990000  0  6G18G 2G11G19G16G 6
  22937074.3554   13255102.74446  10328627.45661
  21315133.761   -12992843.773 7 -10124232.74622
  23042767.4254   -1689648.34146  -1316601.46861
  21092498.6984    1197455.67846    933086.19163
  24037248.4564    -542912.07845   -356705.78761
  23037327.8864   -6480911.88246  -4949170.08561
 91  3 27 23 19 44.9990000  0  6G18G 2G11G19G16G 6
  22946607.245    13305201.686 6  10367665.43421
  21311168.495   -13013675.850 7 -10140465.45822
  23047153.690    -1666601.165 6  -1298642.64321
  21094900.4954    1210071.30746    942916.54563
  24039526.3234    -530964.90045   -347396.38261
  23031131.5654   -6513487.90446  -4974553.81961
 91  3 27 23 19 59.9990000  0  6G18G 2G11G19G16G 6
  22956150.2924   13355347.00346  10406739.55361
  21307216.480   -13034441.434 7 -10156646.35722
  23051564.2144   -1643421.41046  -1280580.49261
  21097315.4404    1222744.21946    952791.54263
  24041821.8864    -518913.99245   -338006.18461
  23024928.4484   -6546068.50046  -4999941.11361
 91  3 27 23 20 14.9990000  0  6G18G 2G11G19G16G 6
  22965700.1284   13405537.42746  10445848.82661
  21303278.636   -13055141.447 7 -10172776.15622
  23056000.472    -1620110.359 6  -1262416.05921
  21099733.2924    1235473.42046    962710.39363
  24044131.909     -506760.703 5   -328536.20421
  23018728.612    -6578654.556 6  -5025332.67421
 91  3 27 23 20 29.9990000  0  6G18G 2G11G19G16G 6
  22975261.8624   13455773.05846  10484993.31061
  21299351.659   -13075775.743 7 -10188854.75322
  23060460.3944   -1596667.81846  -1244149.16061
  21102165.7064    1248259.24346    972673.37563
  24046465.6754    -494505.11145   -318986.49961
  23012527.409    -6611245.863 6  -5050728.31621
 91  3 27 23 20 44.9990000  0  6G18G 2G11G19G16G 6
  22984827.776    13506055.112 6  10524173.96721
  21295439.683   -13096342.511 7 -10204880.72822
  23064946.8154   -1573092.41546  -1225778.72361
  21104610.5584    1261103.51546    982681.89563
  24048813.230     -482145.406 5   -309355.71421
  23006325.425    -6643840.552 6  -5076126.59221
 91  3 27 23 20 59.9990000  0  6G18G 2G11G19G16G 6
  22994406.2144   13556386.77246  10563393.28761
  21291538.401   -13116838.676 7 -10220851.68922
  23069459.3394   -1549381.21546  -1207302.47561
  21107065.9874    1274009.39246    992738.42263
  24051186.9644    -469678.85945   -299641.63261
  23000122.776    -6676435.586 6  -5101525.14621
 91  3 27 23 21 14.9990000  0  6G18G 2G11G19G16G 6
  23003993.644    13606764.181 6  10602648.24421
  21287650.995   -13137267.784 7 -10236770.40022
  23073996.0504   -1525537.99046  -1188723.32961
  21109531.8004    1286973.46746   1002840.29562
  24053579.042     -457108.815 5   -289846.90221
  22993918.0504   -6709034.30746  -5126926.55961
 91  3 27 23 21 29.9990000  0  6G18G 2G11G19G16G 6
  23013588.6444   13657186.58146  10641938.27461
  21283775.831   -13157630.016 7 -10252636.99822
  23078558.105    -1501563.189 6  -1170041.69421
  21112011.3314    1299995.75546   1012987.53363
  24055992.6674    -444436.06445   -279972.15861
  22987712.7454   -6741637.01746  -5152331.08861
 91  3 27 23 21 44.9990000  0  6G18G 2G11G19G16G 6
  23023193.987    13707654.057 6  10681263.41321
  21279913.690   -13177925.203 7 -10268451.35722
  23083146.339    -1477456.685 6  -1151257.42121
  21114500.5654    1313076.50346   1023180.31563
  24058417.870     -431660.754 5   -270017.52821
  22981509.0654   -6774243.23746  -5177738.34361
 91  3 27 23 21 59.9990000  0  6G18G 2G11G19G16G 6
  23032805.034    13758164.909 6  10720622.35321
  21276064.542   -13198154.998 7 -10284214.75322
  23087758.3554   -1453220.27546  -1132371.91361
  21117003.2144    1326214.39246   1033417.63463
  24060873.5654    -418784.47245   -259984.17861
  22975304.5974   -6806854.49346  -5203149.53261
 91  3 27 23 22 14.9990000  0  6G18G 2G11G19G16G 6
  23042425.355    13808723.176 6  10760018.23821
  21272227.745   -13218315.130 7 -10299923.87722
  23092397.0814   -1428849.83646  -1113381.97661
  21119511.0894    1339413.75646   1043702.85263
  24063345.308     -405803.364 5   -249869.11021
  22969096.3864   -6839466.58146  -5228561.36161
 91  3 27 23 22 29.9990000  0  6G18G 2G11G19G16G 6
  23052054.7304   13859326.15046  10799448.96761
  21268403.894   -13238407.951 7 -10315580.54222
  23097058.112    -1404347.903 6  -1094289.58021
  21122035.1754    1352672.27246   1054034.16663
  24065835.526     -392719.739 5   -239674.19921
  22962888.4254   -6872081.65246  -5253975.51961
 91  3 27 23 22 44.9990000  0  5G18G 2G11G19G 6
  23061692.401    13909970.487 6  10838911.92021
  21264593.112   -13258436.642 7 -10331187.23622
  23101745.808    -1379717.744 6  -1075097.27121
  21124568.8624    1365987.11246   1064409.36262
  22956679.9874   -6904702.80846  -5279394.40961
 91  3 27 23 22 59.9990000  0  5G18G 2G11G19G 6
  23071338.097    13960658.383 6  10878408.81021
  21260794.659   -13278398.567 7 -10346741.91222
  23106457.206    -1354957.180 6  -1055803.34621
  21127114.7454    1379360.74346   1074830.36763
  22950474.1984   -6937327.48046  -5304816.05761
 91  3 27 23 23 14.9990000  0  5G18G 2G11G19G 6
  23080993.0424   14011391.87646  10917941.21461
  21257007.745   -13298291.226 7 -10362242.60122
  23111193.8864   -1330063.69946  -1036405.82861
  21129669.5734    1392795.85946   1085299.28862
  22944266.495    -6969952.862 6  -5330238.24021
 91  3 27 23 23 29.9990000  0  5G18G 2G11G19G 6
  23090655.8234   14062167.55646  10957506.52361
  21253235.495   -13318117.962 7 -10377691.92822
  23115956.105    -1305041.046 6  -1016907.66721
  21132238.1904    1406288.97946   1095813.40962
  22938053.862    -7002582.520 6  -5355663.76021
 91  3 27 23 23 44.9990000  0  5G18G 2G11G19G 6
  23100325.980    14112984.481 6  10997103.95121
  21249475.167   -13337879.706 7 -10393090.61222
  23120742.6674   -1279890.12746   -997309.56261
  21134816.4014    1419839.74246   1106372.44663
  22931846.4804   -7035217.06846  -5381093.09961
 91  3 27 23 23 59.9990000  0  5G18G 2G11G19G 6
  23110005.308    14163845.965 6  11036736.10921
  21245727.433   -13357572.905 7 -10408435.88522
  23125553.0894   -1254607.53346   -977608.86361
  21137410.2694    1433451.74046   1116979.19762
  22925635.3234   -7067852.84446  -5406523.38961
 91  3 27 23 24 14.9990000  0  5G18G 2G11G19G 6
  23119691.6904   14214752.32546  11076403.22861
  21241992.706   -13377196.757 7 -10423727.12422
  23130388.972    -1229192.724 6   -957805.13721
  21140009.7144    1447125.67246   1127634.20763
  22919423.5504   -7100489.00746  -5431953.98061
 91  3 27 23 24 29.9990000  0  5G18G 2G11G19G 6
  23129385.855    14265702.105 6  11116104.18421
  21238272.3864  -13396752.45947 -10438965.26162
  23135251.339    -1203647.188 6   -937899.53921
  21142623.4484    1460860.69446   1138336.82063
  22913213.1204   -7133126.70646  -5457385.77261
 91  3 27 23 24 44.9990000  0  5G18G 2G11G19G 6
  23139092.050    14316692.497 6  11155836.79421
  21234564.073   -13416242.664 7 -10454152.36122
  23140135.2144   -1177973.75446   -917894.25861
  21145247.0424    1474654.30346   1149085.08762
  22907000.722    -7165768.480 6  -5482820.73821
 91  3 27 23 24 59.9990000  0  5G18G 2G11G19G 6
  23148802.761    14367728.489 6  11195604.93021
  21230867.917   -13435662.398 7 -10469284.54322
  23145046.534    -1152167.558 6   -897785.55821
  21147886.2374    1488511.54046   1159882.93462
  22900787.081    -7198409.290 6  -5508254.95021
 91  3 27 23 25 14.9990000  0  5G18G 2G11G19G 6
  23158524.276    14418805.807 6  11235405.26421
  21227184.909   -13455015.500 7 -10484364.81022
  23149983.1284   -1126232.53846   -877576.46161
  21150533.1054    1502428.54846   1170727.35963
  22894576.222    -7231052.826 6  -5533691.29821
 91  3 27 23 25 29.9990000  0  5G18G 2G11G19G 6
  23168248.362    14469920.031 6  11275234.35921
  21223514.792   -13474305.897 7 -10499396.21122
  23154940.2454   -1100172.92846   -857270.30361
  21153192.1204    1516401.42846   1181615.31762
  22888364.5264   -7263703.01546  -5559132.82561
 91  3 27 23 25 44.9990000  0  5G18G 2G11G19G 6
  23177984.855    14521075.110 6  11315095.28421
  21219857.159   -13493529.668 7 -10514375.69822
  23159923.0734   -1073985.05146   -836864.17761
  21155861.3394    1530434.37046   1192550.08163
  22882150.1124   -7296355.63246  -5584576.24461
 91  3 27 23 25 59.9990000  0  5G18G 2G11G19G 6
  23187723.480    14572270.325 5  11354987.49021
  21216209.878   -13512687.216 7 -10529303.58422
  23164932.050    -1047669.410 6   -816358.49121
  21158544.8474    1544527.34946   1203531.62163
  22875936.855    -7329011.042 6  -5610021.84821
 91  3 27 23 26 14.9990000  0  5G18G 2G11G19G 6
  23197473.823    14623507.315 5  11394912.24921
  21212577.628   -13531776.607 7 -10544178.36522
  23169965.167    -1021224.492 6   -795752.08421
  21161237.1444    1558682.41946   1214561.55062
  22869719.815    -7361667.251 6  -5635468.06421
 91  3 27 23 26 29.9990000  0  5G18G 2G11G19G 6
  23207232.8864   14674786.15345  11434869.61161
  21208957.690   -13550797.581 7 -10558999.82922
  23175021.362     -994650.011 6   -775044.71421
  21163945.026     1572900.031 6   1225640.21523
  22863507.1514   -7394323.88846  -5660914.62461
 91  3 27 23 26 44.9990000  0  5G18G 2G11G19G 6
  23216998.839    14726103.327 6  11474856.84421
  21205350.8784  -13569753.47647 -10573770.58662
  23180102.8394    -967949.42246   -754239.08761
  21166660.5034    1587176.80046   1236764.97463
  22857291.011    -7426984.202 6  -5686364.05921
 91  3 27 23 26 59.9990000  0  5G18G 2G11G19G 6
  23226772.4724   14777459.34945  11514874.34761
  21201755.401   -13588643.162 7 -10588489.74822
  23185206.917     -941122.010 6   -733334.63321
  21169388.8944    1601513.78646   1247936.64963
  22851076.284    -7459646.862 6  -5711815.32021
 91  3 27 23 27 14.9990000  0  5G18G 2G11G19G 6
  23236552.815    14828853.144 6  11554921.28621
  21198174.2844  -13607467.59847 -10603158.06962
  23190335.6204    -914168.91146   -712332.22861
  21172126.5114    1615910.16046   1259154.60663
  22844861.745    -7492312.988 6  -5737269.26821
 91  3 27 23 27 29.9990000  0  5G18G 2G11G19G 6
  23246339.7614   14880284.64746  11594997.59961
  21194604.886   -13626226.420 7 -10617775.26322
  23195489.4094    -887089.90546   -691231.69761
  21174879.4644    1630366.37146   1270419.18563
  22838644.5344   -7524982.07946  -5762725.55461
 91  3 27 23 27 44.9990000  0  5G18G 2G11G19G 6
  23256133.3784   14931755.00146  11635104.19561
  21191046.8394  -13644918.90647 -10632340.75862
  23200667.2374    -859884.29746   -670032.54961
  21177641.1674    1644883.75246   1281731.43763
  22832426.323    -7557653.072 6  -5788183.29321
 91  3 27 23 27 59.9990000  0  5G18G 2G11G19G 6
  23265936.4874   14983264.06546  11675240.95461
  21187502.5344  -13663544.80547 -10646854.38062
  23205867.839     -832552.276 6   -648734.90121
  21180416.7844    1659462.26046   1293091.30763
  22826208.1284   -7590325.71446  -5813642.34861
 91  3 27 23 28 14.9990000  0  5G18G 2G11G19G 6
  23275746.1284   15034814.00646  11715409.55561
  21183971.9334  -13682101.44647 -10661314.03162
  23211091.0424    -805091.19846   -627336.66061
  21183202.2614    1674104.90646   1304501.16262
  22819989.698    -7622997.216 6  -5839100.48621
 91  3 27 23 28 29.9990000  0  5G18G 2G11G19G 6
  23285562.2374   15086398.93646  11755605.40661
  21180453.2304  -13700594.58247 -10675724.19362
  23216342.2064    -777507.19246   -605842.67561
  21185998.9094    1688805.94246   1315956.51062
  22813772.4254   -7655673.35546  -5864562.25861
 91  3 27 23 28 44.9990000  0  5G18G 2G11G19G 6
  23295386.5264   15138024.89846  11795833.23761
  21176945.8084  -13719017.86447 -10690079.92662
  23221615.870     -749794.046 6   -584248.02521
  21188810.1284    1703571.97446   1327462.51063
  22807557.558    -7688347.496 6  -5890022.46121
 91  3 27 23 28 59.9990000  0  5G18G 2G11G19G 6
  23305218.2304   15189686.72046  11836089.01661
  21173452.3554  -13737376.12447 -10704384.99762
  23226913.6054    -721956.76746   -562556.66361
  21191630.6124    1718398.26646   1339015.46662
  22801337.9334   -7721024.31546  -5915484.76161
 91  3 27 23 29 14.9990000  0  5G18G 2G11G19G 6
  23315056.1204   15241384.40146  11876372.74461
  21169972.081   -13755669.268 7 -10718639.32122
  23232234.425     -693995.463 6   -540768.67221
  21194462.9644    1733285.07046   1350615.57062
  22795117.8474   -7753703.69346  -5940949.05161
 91  3 27 23 29 29.9990000  0  5G18G 2G11G19G 6
  23324900.1364   15293120.02546  11916686.03361
  21166503.4644  -13773894.89047 -10732841.03962
  23237579.0114    -665907.91746   -518882.29861
  21197308.7454    1748234.79546   1362264.70762
  22788899.7144   -7786383.18846  -5966413.43061
 91  3 27 23 29 44.9990000  0  5G18G 2G11G19G 6
  23334753.1904   15344892.43646  11957027.99261
  21163045.745   -13792054.093 7 -10746990.99422
  23242946.1514    -637695.45446   -496898.58061
  21200164.9804    1763246.59946   1373962.21262
  22782681.4014   -7819063.65246  -5991878.57361
 91  3 27 23 29 59.9990000  0  5G18G 2G11G19G 6
  23344611.409    15396700.811 6  11997397.96021
  21159604.1984  -13810147.35847 -10761089.57562
  23248340.8314    -609358.68946   -474817.98961
  21203033.9724    1778320.01446   1385707.72462
  22776459.870    -7851745.529 6  -6017344.81621
 91  3 27 23 30 14.9990000  0  5G18G 2G11G19G 6
  23354478.8864   15448548.21846  12037798.35761
  21156174.636   -13828171.133 7 -10775134.00422
  23253756.839     -580894.524 6   -452638.16221
  21205913.2224    1793458.70846   1397504.11362
  22770241.636    -7884425.210 6  -6042809.34421
 91  3 27 23 30 29.9990000  0  5G18G 2G11G19G 6
  23364353.448    15500430.293 6  12078225.75521
  21152756.7304  -13846129.69747 -10789127.62262
  23259196.995     -552307.353 6   -430362.45721
  21208810.2064    1808658.42446   1409348.04362
  22764023.120    -7917106.846 6  -6068275.39921
 91  3 27 23 30 44.9990000  0  5G18G 2G11G19G 6
  23374232.253    15552345.803 5  12118679.19521
  21149351.8234  -13864024.15547 -10803071.28862
  23264659.4174    -523598.40646   -407991.88361
  21211709.7144    1823918.42446   1421238.95562
  22757803.7144   -7949791.38546  -6093743.71561
 91  3 27 23 30 59.9990000  0  5G18G 2G11G19G 6
  23384116.6444   15604295.81945  12159159.51661
  21145959.0734  -13881853.29747 -10816964.05862
  23270145.4094    -494766.64946   -385525.61961
  21214626.3234    1839239.95146   1433177.80562
  22751583.8864   -7982477.37046  -6119213.16361
 91  3 27 23 31 14.9990000  0  5G18G 2G11G19G 6
  23394009.9014   15656285.97445  12199671.11461
  21142580.378   -13899611.117 7 -10830801.24422
  23275657.6284    -465806.18246   -362958.99761
  21217553.7304    1854629.27346   1445169.48362
  22745362.7064   -8015158.74546  -6144679.02361
 91  3 27 23 31 29.9990000  0  5G18G 2G11G19G 6
  23403909.5584   15708309.22745  12240208.50761
  21139212.503   -13917304.573 7 -10844588.27922
  23281191.167     -436724.284 6   -340297.81421
  21220494.3554    1870079.58346   1457208.68262
  22739144.0584   -8047842.33946  -6170146.59961
 91  3 27 23 31 44.9990000  0  5G18G 2G11G19G 6
  23413815.8704   15760367.00945  12280772.80361
  21135857.956   -13934931.473 7 -10858323.45022
  23286750.300     -407519.129 6   -317540.57321
  21223445.4564    1885593.09946   1469297.13162
  22732926.3704   -8080526.06746  -6195614.28961
 91  3 27 23 31 59.9990000  0  5G18G 2G11G19G 6
  23423727.0264   15812454.40745  12321360.15961
  21132514.6834  -13952496.71947 -10872010.58362
  23292329.534     -378195.745 6   -294691.20321
  21226409.7694    1901165.08446   1481431.14862
  22726705.9724   -8113214.51746  -6221085.65261
 91  3 27 23 32 14.9990000  0  5G18G 2G11G19G 6
  23433646.433    15864575.361 5  12361973.69721
  21129185.753   -13969996.144 7 -10885646.42722
  23297933.753     -348750.187 6   -271746.67121
  21229383.8944    1916799.71246   1493613.97062
  22720484.8234   -8145903.59046  -6246557.50661
 91  3 27 23 32 29.9990000  0  5G18G 2G11G19G 6
  23443573.472    15916730.897 6  12402614.17421
  21125868.4094  -13987428.49947 -10899230.00962
  23303558.8314    -319181.39546   -248706.07861
  21232375.0734    1932498.17446   1505846.53462
  22714262.4254   -8178591.72846  -6272028.63161
 91  3 27 23 32 44.9990000  0  5G18G 2G11G19G 6
  23453506.0814   15968921.14046  12443281.68561
  21122563.1124  -14004793.58147 -10912761.17262
  23309209.5894    -289489.30246   -225569.42661
  21235371.8394    1948261.14746   1518129.36762
  22708043.081    -8211278.559 6  -6297498.73921
 91  3 27 23 32 59.9990000  0  5G18G 2G11G19G 6
  23463440.7614   16021138.86345  12483970.62761
  21119270.8944  -14022098.30047 -10926245.30262
  23314881.4724    -259681.07246   -202342.25261
  21238385.1364    1964081.81246   1530457.15563
  22701821.5034   -8243970.93546  -6322973.16461
 91  3 27 23 33 14.9990000  0  5G18G 2G11G19G 6
  23473384.112    16073387.669 5  12524683.77921
  21115990.5424  -14039338.78147 -10939679.37762
  23320577.1054    -229753.08846   -179021.74161
  21241404.1364    1979964.17646   1542833.01762
  22695601.1204   -8276664.91846  -6348448.84461
 91  3 27 23 33 29.9990000  0  5G18G 2G11G19G 6
  23483331.6904   16125668.94945  12565422.23561
  21112721.487   -14056513.084 7 -10953061.87722
  23326295.5814    -199703.87446   -155606.81161
  21244439.1674    1995910.09346   1555258.40062
  22689380.644    -8309358.530 6  -6373924.25421
 91  3 27 23 33 44.9990000  0  5G18G 2G11G19G 6
  23493287.917    16177984.563 5  12606187.42921
  21109465.870   -14073619.341 7 -10966391.35722
  23332037.034     -169531.702 6   -132096.04521
  21247485.6834    2011921.48746   1567734.81063
  22683159.1364   -8342049.74346  -6399397.76861
 91  3 27 23 33 59.9990000  0  5G18G 2G11G19G 6
  23503247.7144   16230329.96245  12646975.84061
  21106223.683   -14090661.834 7 -10979671.14422
  23337800.7144    -139240.81846   -108492.79261
  21250544.1594    2027994.41246   1580259.16362
  22676937.487    -8374742.542 6  -6424872.52621
 91  3 27 23 34 14.9990000  0  5G18G 2G11G19G 6
  23513213.4334   16282706.75445  12687788.72861
  21102991.394   -14107638.719 7 -10992899.81122
  23343588.0974    -108829.77746    -84795.91761
  21253614.8554    2044130.87246   1592833.03162
  22670718.0114   -8407434.99346  -6450347.02461
 91  3 27 23 34 29.9990000  0  5G18G 2G11G19G 6
  23523189.144    16335116.371 5  12728627.17321
  21099773.612   -14124548.428 7 -11006076.13522
  23349396.1514     -78297.16646    -61004.25361
  21256700.2844    2060332.52446   1605457.69262
  22664495.9804   -8440125.45646  -6475819.95561
 91  3 27 23 34 44.9990000  0  5G18G 2G11G19G 6
  23533167.628    16387553.227 5  12769486.85421
  21096568.9484  -14141396.33047 -11019204.29862
  23355230.8864     -47648.71046    -37122.36761
  21259791.8864    2076594.24246   1618129.15763
  22658272.4564   -8472819.32246  -6501295.55161
 91  3 27 23 34 59.9990000  0  5G18G 2G11G19G 6
  23543151.4094   16440020.24845  12810370.03861
  21093375.300   -14158179.175 7 -11032281.76722
  23361084.6754     -16881.06846    -13147.61461
  21262897.3084    2092919.47046   1630850.11663
  22652053.5264   -8505512.83246  -6526770.86061
 91  3 27 23 35 14.9990000  0  5G18G 2G11G19G 6
  23553142.464    16492518.126 6  12851277.25421
  21090194.651   -14174896.387 7 -11045308.09322
  23366962.792       14006.143 6     10920.32321
  21266018.7304    2109308.99546   1643621.17263
  22645831.1674   -8538205.26146  -6552245.34161
 91  3 27 23 35 29.9990000  0  5G18G 2G11G19G 6
  23563137.0424   16545043.09645  12892205.59561
  21087025.136   -14191551.211 7 -11058285.80322
  23372863.409       45009.155 6     35078.50021
  21269150.5734    2125759.38546   1656439.65463
  22639609.5894   -8570899.93746  -6577721.55761
 91  3 27 23 35 44.9990000  0  5G18G 2G11G19G 6
  23573137.6754   16597596.52845  12933156.11261
  21083867.042   -14208141.862 7 -11071213.50622
  23378784.0344      76129.50546     59328.10061
  21272292.4644    2142272.62146   1669307.10862
  22633387.464    -8603595.033 6  -6603198.11021
 91  3 27 23 35 59.9990000  0  5G18G 2G11G19G 6
  23583143.511    16650179.740 6  12974129.82921
  21080722.597   -14224666.942 7 -11084090.11823
  23384728.6054     107368.49346     83670.12461
  21275446.3394    2158850.24246   1682224.73062
  22627166.2304   -8636288.92946  -6628673.71661
 91  3 27 23 36 14.9990000  0  5G18G 2G11G19G 6
  23593157.612    16702793.696 5  13015127.49021
  21077589.597   -14241125.241 7 -11096914.69223
  23390696.3394     138727.18146    108105.46961
  21278613.3394    2175493.75646   1695193.70162
  22620943.565    -8668980.186 6  -6654147.27521
 91  3 27 23 36 29.9990000  0  5G18G 2G11G19G 6
  23603174.8624   16755442.14446  13056152.04461
  21074470.581   -14257512.693 7 -11109684.05823
  23396685.4334     170209.35146    132636.99961
  21281794.7224    2192207.15646   1708217.12262
  22614724.3154   -8701664.74746  -6679615.60861
 91  3 27 23 36 44.9990000  0  5G18G 2G11G19G 6
  23613199.1594   16808117.51645  13097197.57361
  21071365.339   -14273836.866 7 -11122404.11822
  23402699.9564     201807.31546    157258.74461
  21284985.3944    2208983.11946   1721289.29262
  22608504.3394   -8734349.88046  -6705084.39861
 91  3 27 23 36 59.9990000  0  5G18G 2G11G19G 6
  23623230.9874   16860820.22945  13138264.41261
  21068270.448   -14290096.937 7 -11135074.22923
  23408735.2534     233521.57546    181971.16761
  21288190.0814    2225822.66146   1734411.00562
  22602286.425    -8767034.651 6  -6730552.90921
 91  3 27 23 37 14.9990000  0  5G18G 2G11G19G 6
  23633265.323    16913554.611 5  13179355.90421
  21065189.573   -14306288.560 7 -11147691.00623
  23414793.7924     265356.26046    206777.41061
  21291408.9804    2242730.18046   1747585.69162
  22596063.073    -8799714.545 6  -6756017.60621
 91  3 27 23 37 29.9990000  0  5G18G 2G11G19G 6
  23643305.4094   16966315.64045  13220468.17961
  21062120.597   -14322416.347 7 -11160258.03723
  23420874.753      297306.384 6    231673.60021
  21294637.8314    2259701.11246   1760809.78462
  22589845.636    -8832394.172 6  -6781482.10721
 91  3 27 23 37 44.9990000  0  5G18G 2G11G19G 6
  23653350.7924   17019102.40245  13261600.50661
  21059063.745   -14338480.840 7 -11172775.75422
  23426975.112      329371.199 6    256659.15321
  21297878.7614    2276735.06446   1774082.98762
  22583629.284    -8865073.804 6  -6806946.61521
 91  3 27 23 37 59.9990000  0  5G18G 2G11G19G 6
  23663401.3394   17071916.93245  13302754.45361
  21056019.151   -14354479.634 7 -11185242.26923
  23433099.1054     361552.93346    281735.79761
  21301130.9334    2293834.54746   1787407.25662
  22577409.573    -8897751.000 6  -6832409.22421
 91  3 27 23 38 14.9990000  0  5G18G 2G11G19G 6
  23673457.120    17124760.420 5  13343930.95821
  21052986.378   -14370411.496 7 -11197656.63323
  23439244.1284     393852.66346    306904.38261
  21304399.8784    2311001.16446   1800783.83362
  22571191.909    -8930424.239 6  -6857868.74521
 91  3 27 23 38 29.9990000  0  5G18G 2G11G19G 6
  23683518.0344   17177630.59045  13385128.27761
  21049967.815   -14386278.434 7 -11210020.40523
  23445414.3004     426268.15846    332163.17561
  21307677.4404    2328232.82046   1814211.09562
  22564975.667    -8963095.490 6  -6883326.71721
 91  3 27 23 38 44.9990000  0  5G18G 2G11G19G 6
  23693586.597    17230528.711 5  13426347.37221
  21046962.034   -14402078.964 7 -11222332.42823
  23451603.808      458800.455 6    357513.03421
  21310970.4254    2345531.01146   1827690.20062
  22558759.1204   -8995763.21946  -6908781.93861
 91  3 27 23 38 59.9990000  0  5G18G 2G11G19G 6
  23703653.8084   17283452.56545  13467586.48461
  21043966.901   -14417815.134 7 -11234594.30323
  23457817.659      491447.420 6    382952.22621
  21314276.5654    2362894.00346   1841219.79662
  22552543.7374   -9028429.27546  -6934235.85561
 91  3 27 23 39 14.9990000  0  5G18G 2G11G19G 6
  23713728.8704   17336403.49445  13508846.71261
  21040984.9724  -14433485.32947 -11246804.77763
  23464052.245      524210.568 6    408481.92521
  21317589.5264    2380323.60846   1854801.29962
  22546326.644    -9061091.764 6  -6959687.00721
 91  3 27 23 39 29.9990000  0  5G18G 2G11G19G 6
  23723810.9644   17389381.25945  13550127.83661
  21038016.3004  -14449089.59447 -11258963.87563
  23470309.0504     557089.51846    434101.89661
  21320919.6284    2397819.80746   1868434.69962
  22540111.128    -9093750.613 6  -6985135.31221
 91  3 27 23 39 44.9990000  0  5G18G 2G11G19G 6
  23733897.6594   17442386.92945  13591430.72961
  21035059.0034  -14464626.83347 -11271070.73863
  23476588.0504     590085.14046    459812.72661
  21324260.6904    2415383.68446   1882120.83062
  22533896.6054   -9126404.51946  -7010579.76161
 91  3 27 23 39 59.9990000  0  5G18G 2G11G19G 6
  23743991.1364   17495416.44245  13632752.18861
  21032114.4954  -14480100.54647 -11283128.11763
  23482889.4404     623193.62646    485611.51261
  21327617.4174    2433011.94746   1895857.12962
  22527683.3004   -9159057.04446  -7036023.14361
 91  3 27 23 40 14.9990000  0  5G18G 2G11G19G 6
  23754087.8784   17548475.27645  13674096.49061
  21029183.058   -14495505.337 7 -11295131.77523
  23489211.5504     656420.27746    511502.41961
  21330983.7454    2450710.24146   1909647.99962
  22521470.6204   -9191702.43446  -7061460.95661
 91  3 27 23 40 29.9990000  0  5G18G 2G11G19G 6
  23764190.940    17601558.642 5  13715459.89921
  21026262.6904  -14510845.44747 -11307085.03563
  23495555.8234     689760.45846    537481.77061
  21334366.5734    2468474.30946   1923490.11962
  22515258.714    -9224344.958 6  -7086896.53821
 91  3 27 23 40 44.9990000  0  5G18G 2G11G19G 6
  23774296.4014   17654666.69145  13756842.53861
  21023356.198   -14526120.672 7 -11318987.73723
  23501921.6674     723214.18046    563549.59661
  21337757.0584    2486304.57046   1937383.83262
  22509049.0344   -9256984.23146  -7112329.58861
 91  3 27 23 40 59.9990000  0  5G18G 2G11G19G 6
  23784407.026    17707798.598 5  13798243.78121
  21020461.3554  -14541331.42147 -11330840.20163
  23508308.097      756780.865 6    589705.42921
  21341164.784     2504200.768 6   1951328.90722
  22502837.237    -9289620.416 6  -7137760.22521
 91  3 27 23 41 14.9990000  0  5G18G 2G11G19G 6
  23794520.440    17760952.767 5  13839662.35721
  21017579.4404  -14556478.99747 -11342643.44063
  23514717.253      790458.886 6    615948.02521
  21344581.5654    2522161.68146   1965324.42062
  22496628.4874   -9322254.74746  -7163189.42461
 91  3 27 23 41 29.9990000  0  5G18G 2G11G19G 6
  23804636.558    17814128.273 5  13881097.55721
  21014709.4404  -14571564.01647 -11354397.93663
  23521148.628      824247.305 6    642276.65721
  21348013.1754    2540186.88246   1979370.02662
  22490417.636    -9354887.594 6  -7188617.47121
 91  3 27 23 41 44.9990000  0  5G18G 2G11G19G 6
  23814762.636    17867329.930 5  13922553.13821
  21011851.5654  -14586581.89147 -11366100.11163
  23527597.4724     858150.67546    668694.85161
  21351454.2764    2558281.33046   1993469.58862
  22484207.7144   -9387514.16746  -7214040.62261
 91  3 27 23 41 59.9990000  0  5G18G 2G11G19G 6
  23824891.0344   17920552.39645  13964024.93761
  21009004.2844  -14601537.53147 -11377753.79263
  23534071.5734     892163.73846    695198.54561
  21354911.0114    2576439.76446   2007619.00962
  22478000.2374   -9420139.25946  -7239462.62061
 91  3 27 23 42 14.9990000  0  5G18G 2G11G19G 6
  23835027.378    17973799.308 5  14005515.78321
  21006171.3234  -14616427.24647 -11389356.09863
  23540566.2304     926290.05946    721790.48661
  21358378.534     2594666.283 6   2021821.48422
  22471791.3474   -9452758.98846  -7264880.42961
 91  3 27 23 42 29.9990000  0  5G18G 2G11G19G 6
  23845164.730    18027069.764 5  14047024.97221
  21003350.5814  -14631251.43147 -11400907.34663
  23547081.605      960528.853 6    748470.01521
  21361860.6754    2612960.46146   2036076.68062
  22465587.456    -9485373.702 6  -7290294.33021
 91  3 27 23 42 44.9990000  0  5G18G 2G11G19G 6
  23855305.6674   18080360.47845  14088549.93861
  21000541.128   -14646013.335 7 -11412410.05823
  23553617.534      994876.707 6    775234.55121
  21365353.6514    2631319.48346   2050382.41362
  22459378.7924   -9517986.40946  -7315706.68061
 91  3 27 23 42 59.9990000  0  5G18G 2G11G19G 6
  23865453.722    18133673.938 5  14130092.65221
  20997743.058   -14660709.964 7 -11423861.90223
  23560173.8004    1029336.15346    802086.07861
  21368863.7764    2649746.25046   2064740.92262
  22453176.9484   -9550594.09846  -7341115.11361
 91  3 27 23 43 14.9990000  0  5G18G 2G11G19G 6
  23875599.776    18187010.157 5  14171653.07521
  20994961.433   -14675341.168 7 -11435262.76823
  23566752.9174    1063907.25346    829024.59461
  21372379.8234    2668240.90346   2079152.33662
  22446970.6204   -9583196.35946  -7366519.32961
 91  3 27 23 43 29.9990000  0  5G18G 2G11G19G 6
  23885752.636    18240364.501 5  14213227.61921
  20992188.5344  -14689911.58147 -11446616.27063
  23573351.425     1098585.369 6    856046.46821
  21375910.3154    2686799.16146   2093613.31262
  22440768.7694   -9615797.41146  -7391922.59861
 91  3 27 23 43 44.9990000  0  5G18G 2G11G19G 6
  23895910.058    18293737.626 5  14254816.78221
  20989426.4874  -14704420.08947 -11457921.53763
  23579971.776     1133371.261 6    883152.33621
  21379455.4404    2705422.25646   2108124.81062
  22434562.0424   -9648396.17946  -7417324.08461
 91  3 27 23 43 59.9990000  0  5G18G 2G11G19G 6
  23906070.3624   18347130.86945  14296421.66861
  20986677.683   -14718865.084 7 -11469177.30023
  23586611.769     1168266.165 6    910343.16021
  21383011.8154    2724111.96846   2122688.22062
  22428361.7064   -9680990.95946  -7442722.47061
 91  3 27 23 44 14.9990000  0  5G18G 2G11G19G 6
  23916233.1984   18400545.56245  14338043.24161
  20983941.0974  -14733244.99247 -11480382.35563
  23593272.5114    1203271.38646    937619.92661
  21386581.3234    2742869.80946   2137304.71362
  22422161.1444   -9713579.99846  -7468116.37361
 91  3 27 23 44 29.9990000  0  5G18G 2G11G19G 6
  23926402.667    18453981.255 5  14379681.17521
  20981217.8554  -14747560.18247 -11491536.98063
  23599955.4644    1238386.38946    964982.23361
  21390164.7924    2761695.52746   2151974.09862
  22415960.120    -9746163.461 6  -7493505.94021
 91  3 27 23 44 44.9990000  0  5G18G 2G11G19G 6
  23936575.620    18507435.927 5  14421333.91121
  20978504.589   -14761812.395 7 -11502642.52623
  23606656.9014    1273609.09346    992428.49361
  21393758.6984    2780587.67446   2166695.24362
  22409760.331    -9778742.969 6  -7518892.43021
 91  3 27 23 44 59.9990000  0  5G18G 2G11G19G 6
  23946749.1594   18560914.42245  14463005.20461
  20975805.706   -14775996.818 7 -11513695.24823
  23613383.3394    1308944.20546   1019962.34161
  21397371.9404    2799551.21346   2181472.01562
  22403562.612    -9811313.402 6  -7544271.84821
 91  3 27 23 45 14.9990000  0  5G18G 2G11G19G 6
  23956933.7304   18614413.44445  14504692.46961
  20973118.339   -14790116.162 7 -11524697.26223
  23620126.573     1344388.583 6   1047581.31421
  21400987.6444    2818583.46346   2196302.34062
  22397365.222    -9843877.506 6  -7569646.33221
 91  3 27 23 45 29.9990000  0  5G18G 2G11G19G 6
  23967120.378    18667930.725 5  14546393.98621
  20970443.9404  -14804172.63847 -11535650.29063
  23626893.456     1379940.048 6   1075283.71421
  21404623.8234    2837682.45646   2211184.66662
  22391169.620    -9876437.085 6  -7595017.30121
 91  3 27 23 45 44.9990000  0  5G18G 2G11G19G 6
  23977307.909    18721469.210 5  14588112.00621
  20967782.0344  -14818163.07247 -11546551.86163
  23633678.151     1415601.327 6   1103071.70921
  21408271.6984    2856851.58446   2226121.64162
  22384975.003    -9908988.836 6  -7620382.15721
 91  3 27 23 45 59.9990000  0  5G18G 2G11G19G 6
  23987495.7844   18775024.20245  14629842.89461
  20965131.3474  -14832091.80247 -11557405.35363
  23640484.526     1451367.855 6   1130941.72321
  21411931.0114    2876086.39546   2241109.79762
  22378781.519    -9941537.021 6  -7645744.23921
 91  3 27 23 46 14.9990000  0  5G18G 2G11G19G 6
  23997691.511    18828595.686 5  14671586.62721
  20962491.7374  -14845958.55947 -11568210.55063
  23647310.5114    1487239.63246   1158893.72061
  21415604.4404    2895387.28946   2256149.44762
  22372588.198    -9974081.248 6  -7671103.24921
 91  3 27 23 46 29.9990000  0  5G18G 2G11G19G 6
  24007888.269    18882185.763 5  14713344.85321
  20959865.1054  -14859761.25447 -11578965.83663
  23654156.886     1523218.493 6   1186929.17921
  21419288.9804    2914756.47246   2271242.31062
  22366395.292   -10006619.173 6  -7696457.33821
 91  3 27 23 46 44.9990000  0  5G18G 2G11G19G 6
  24018089.144    18935794.862 5  14755117.89521
  20957251.4804  -14873499.23547 -11589670.69363
  23661023.8784    1559304.89946   1215048.43361
  21422989.5584    2934194.97646   2286389.18962
  22360205.9334  -10039149.84846  -7721805.77261
 91  3 27 23 46 59.9990000  0  5G18G 2G11G19G 6
  24028296.558    18989423.703 5  14796906.32821
  20954649.4404  -14887171.16347 -11600324.07663
  23667911.980     1595499.849 6   1243252.26821
  21426704.8784    2953703.98846   2301591.00662
  22354016.276   -10071671.880 6  -7747147.47921
 91  3 27 23 47 14.9990000  0  5G18G 2G11G19G 6
  24038502.800    19043070.269 5  14838708.54221
  20952060.2304  -14900779.21047 -11610927.68763
  23674819.901     1631801.075 6   1271538.91621
  21430426.081     2973281.516 6   2316846.20922
  22347829.214   -10104187.192 6  -7772483.94121
 91  3 27 23 47 29.9990000  0  5G18G 2G11G19G 6
  24048715.058    19096735.279 5  14880525.14421
  20949483.4014  -14914322.29447 -11621480.67963
  23681747.3944    1668209.20146   1299908.87261
  21434164.9484    2992928.53546   2332155.55962
  22341642.870   -10136694.705 6  -7797814.33921
 91  3 27 23 47 44.9990000  0  5G18G 2G11G19G 6
  24058932.6594   19150414.75245  14922353.02361
  20946917.5424  -14927804.18447 -11631985.98463
  23688695.4334    1704720.25946   1328359.05361
  21437915.1124    3012641.85946   2347516.58863
  22335456.1984  -10169197.98646  -7823141.43961
 91  3 27 23 47 59.9990000  0  5G18G 2G11G19G 6
  24069149.8624   19204108.97344  14964192.38161
  20944364.3624  -14941224.34447 -11642443.18863
  23695661.831     1741334.571 6   1356889.67021
  21441683.1594    3032421.82546   2362929.53662
  22329272.503   -10201696.160 6  -7848464.56521
 91  3 27 23 48 14.9990000  0  5G18G 2G11G19G 6
  24079375.878    19257819.957 4  15006044.80321
  20941822.409   -14954580.689 7 -11652850.67523
  23702648.722     1778054.024 6   1385502.18421
  21445456.8944    3052270.78646   2378396.25062
  22323089.8474  -10234186.94046  -7873781.92061
 91  3 27 23 48 29.9990000  0  5G18G 2G11G19G 6
  24089594.7924   19311544.63444  15047907.87861
  20939292.4724  -14967875.87347 -11663210.50063
  23709657.1754    1814875.65446   1414194.31461
  21449248.284     3072186.267 6   2393914.78522
  22316908.714   -10266672.880 6  -7899095.50521
 91  3 27 23 48 44.9990000  0  5G18G 2G11G19G 6
  24099824.862    19365284.469 4  15089782.77821
  20936774.253   -14981108.411 7 -11673521.51223
  23716682.995     1851800.629 6   1442967.01921
  21453049.409     3092170.023 6   2409486.53622
  22310725.448   -10299152.258 6  -7924403.97221
 91  3 27 23 48 59.9990000  0  5G18G 2G11G19G 6
  24110049.1904   19419035.29844  15131666.22561
  20934267.5344  -14994281.81347 -11683786.44163
  23723729.0974    1888825.14646   1471817.27561
  21456868.0894    3112218.20146   2425108.48462
  22304546.464   -10331628.575 6  -7949710.06721
 91  3 27 23 49 14.9990000  0  5G18G 2G11G19G 6
  24120281.151    19472799.599 4  15173560.18521
  20931771.9014  -15007393.72747 -11694003.46063
  23730795.667     1925951.464 6   1500746.85421
  21460693.800     3132333.705 6   2440782.89522
  22298367.5584  -10364099.16846  -7975011.69361
 91  3 27 23 49 29.9990000  0  5G18G 2G11G19G 6
  24130514.7614   19526577.21044  15215464.50561
  20929289.1674  -15020444.01647 -11704172.45763
  23737879.183     1963179.528 6   1529755.71821
  21464534.940     3152516.576 6   2456509.78322
  22292190.159   -10396563.688 6  -8000308.58821
 91  3 27 23 49 44.9990000  0  5G18G 2G11G19G 6
  24140749.894    19580370.828 4  15257381.29521
  20926817.5034  -15033429.89347 -11714291.26263
  23744983.362     2000511.747 6   1558845.74621
  21468387.472     3172769.832 6   2472291.53422
  22286012.323   -10429019.210 6  -8025598.47221
 91  3 27 23 49 59.9990000  0  5G18G 2G11G19G 6
  24150988.1444   19634175.47244  15299306.68861
  20924357.6674  -15046355.90847 -11724363.42163
  23752105.878     2037943.268 6   1588013.14221
  21472254.933     3193088.724 6   2488124.40822
  22279836.823   -10461470.269 6  -8050884.87621
 91  3 27 23 50 14.9990000  0  5G18G 2G11G19G 6
  24161228.612    19687993.348 4  15341242.38621
  20921909.4484  -15059219.71747 -11734387.11063
  23759250.089     2075476.340 6   1617259.65421
  21476133.2144    3213476.12646   2504010.69662
  22273664.7144  -10493914.00146  -8076165.58061
 91  3 27 23 50 29.9990000  0  5G18G 2G11G19G 6
  24171474.394    19741824.042 4  15383188.07021
  20919472.6124  -15072021.36747 -11744362.36163
  23766409.8154    2113110.55746   1646584.98661
  21480027.761     3233931.975 6   2519950.29122
  22267491.050   -10526350.472 6  -8101440.62221
 91  3 27 23 50 44.9990000  0  5G18G 2G11G19G 6
  24181720.261    19795669.768 4  15425145.46521
  20917049.948   -15084758.494 7 -11754287.33923
  23773591.3394    2150847.91646   1675990.67961
  21483933.1754    3254458.74846   2535945.17962
  22261320.011   -10558777.123 6  -8126708.00921
 91  3 27 23 50 59.9990000  0  5G18G 2G11G19G 6
  24191969.206    19849528.452 5  15467112.95221
  20914637.737   -15097433.155 7 -11764163.64323
  23780790.7924    2188686.16646   1705474.99161
  21487852.995     3275054.477 6   2551993.77422
  22255151.667   -10591195.725 6  -8151969.12021
 91  3 27 23 51 14.9990000  0  5G18G 2G11G19G 6
  24202225.761    19903402.267 5  15509092.23521
  20912237.8474  -15110042.72147 -11773989.22263
  23788011.901     2226627.653 6   1735039.74021
  21491784.4014    3295721.85946   2568098.22462
  22248983.956   -10623603.646 6  -8177221.91521
 91  3 27 23 51 29.9990000  0  5G18G 2G11G19G 6
  24212481.1364   19957290.91545  15551083.04961
  20909850.425   -15122587.384 7 -11783764.22823
  23795251.1364    2264672.10146   1764684.73261
  21495733.636     3316461.151 6   2584258.69322
  22242820.5344  -10656000.70446  -8202466.24661
 91  3 27 23 51 44.9990000  0  4G 2G11G19G 6
  20907474.9094  -15135069.52147 -11793490.51163
  23802509.425     2302816.732 6   1794407.81721
  21499690.9564    3337269.88946   2600473.28762
  22236654.855   -10688388.971 6  -8227703.72421
 91  3 27 23 51 59.9990000  0  4G 2G11G19G 6
  20905111.9404  -15147489.70347 -11803168.51463
  23809788.7144    2341060.65046   1824208.22861
  21503666.175     3358147.503 6   2616741.53522
  22230495.6284  -10720769.02446  -8252934.80561
 91  3 27 23 52 14.9990000  0  4G 2G11G19G 6
  20902760.8314  -15159849.11747 -11812799.16763
  23817084.4334    2379402.46146   1854084.90261
  21507650.6674    3379092.74446   2633062.51462
  22224331.761   -10753141.890 6  -8278160.28121
 91  3 27 23 52 29.9990000  0  4G 2G11G19G 6
  20900419.6444  -15172148.71447 -11822383.19863
  23824398.409     2417840.911 6   1884036.87921
  21511649.198     3400105.042 6   2649435.70622
  22218175.339   -10785508.300 6  -8303380.72321
 91  3 27 23 52 44.9990000  0  4G 2G11G19G 6
  20898090.2694  -15184387.84747 -11831920.12563
  23831731.698     2456376.446 6   1914064.52721
  21515662.4014    3421185.22346   2665861.82862
  22212015.1904  -10817867.39746  -8328595.47261
 91  3 27 23 52 59.9990000  0  4G 2G11G19G 6
  20895772.1124  -15196567.44647 -11841410.65463
  23839082.9874    2495007.94046   1944166.95561
  21519684.308     3442332.412 6   2682340.13722
  22205859.136   -10850219.889 6  -8353805.07221
 91  3 27 23 53 14.9990000  0  4G 2G11G19G 6
  20893466.9094  -15208685.42947 -11850853.17863
  23846453.1904    2533737.26846   1974345.62461
  21523721.9804    3463548.92646   2698872.48162
  22199705.4644  -10882563.39446  -8379007.67561
 91  3 27 23 53 29.9990000  0  4G 2G11G19G 6
  20891172.2304  -15220741.53447 -11860247.48363
  23853840.847     2572564.415 6   2004600.52621
  21527773.003     3484835.212 6   2715459.19022
  22193551.3084  -10914897.46046  -8404202.92161
 91  3 27 23 53 44.9990000  0  4G 2G11G19G 6
  20888889.8394  -15232732.71247 -11869591.19463
  23861249.909     2611492.161 6   2034933.82321
  21531836.8704    3506194.22946   2732102.57262
  22187402.6594  -10947218.90246  -8429388.33561
 91  3 27 23 53 59.9990000  0  4G 2G11G19G 6
  20886620.9404  -15244658.70847 -11878884.11363
  23868676.6124    2650520.30546   2065345.32661
  21535913.917     3527626.215 6   2748802.81022
  22181254.0504  -10979527.45246  -8454563.70061
 91  3 27 23 54 14.9990000  0  4G 2G11G19G 6
  20884362.6444  -15256525.67547 -11888131.03563
  23876120.487     2689642.379 6   2095830.02021
  21540007.8704    3549125.24446   2765555.30562
  22175107.2454  -11011828.98546  -8479733.59661
 91  3 27 23 54 29.9990000  0  4G 2G11G19G 6
  20882115.8554  -15268331.15747 -11897330.04563
  23883582.5584    2728860.68146   2126389.67661
  21544110.7694    3570693.85246   2782362.00762
  22168962.4644  -11044120.70446  -8504895.84661
 91  3 27 23 54 44.9990000  0  4G 2G11G19G 6
  20879881.1594  -15280074.11447 -11906480.33563
  23891064.339     2768176.049 6   2157024.99321
  21548228.9724    3592333.24446   2799223.84962
  22162819.4874  -11076401.43646  -8530049.55261
 91  3 27 23 54 59.9990000  0  4G 2G11G19G 6
  20877658.5814  -15291754.65647 -11915581.99263
  23898564.315     2807588.112 6   2187735.67621
  21552359.4014    3614043.42346   2816140.88362
  22156679.026   -11108670.980 6  -8555194.52021
 91  3 27 23 55 14.9990000  0  4G 2G11G19G 6
  20875447.0894  -15303374.15947 -11924636.08863
  23906082.8944    2847095.33346   2218520.48461
  21556504.917     3635823.371 6   2833112.24622
  22150537.7144  -11140930.53446  -8580331.71261
 91  3 27 23 55 29.9990000  0  4G 2G11G19G 6
  20873248.0424  -15314932.53948 -11933642.55563
  23913619.3864    2886697.50446   2249379.28061
  21560665.0814    3657673.25046   2850138.13862
  22144404.605   -11173179.774 6  -8605460.87321
 91  3 27 23 55 44.9990000  0  4G 2G11G19G 6
  20871060.3944  -15326431.98248 -11942603.09663
  23921173.9874    2926392.08946   2280310.11561
  21564834.3084    3679590.95046   2867216.85962
  22138267.3554  -11205420.78146  -8630583.62061
 91  3 27 23 55 59.9990000  0  4G 2G11G19G 6
  20868883.2304  -15337871.25648 -11951516.74963
  23928743.6204    2966179.90946   2311313.59361
  21569016.3704    3701577.64846   2884349.34162
  22132132.5424  -11237652.15246  -8655698.85261
 91  3 27 23 56 14.9990000  0  4G 2G11G19G 6
  20866718.1364  -15349248.11248 -11960381.76363
  23936334.0344    3006063.21545   2342391.44461
  21573215.3554    3723636.00946   2901537.67362
  22126000.425   -11269871.278 6  -8680804.55421
 91  3 27 23 56 29.9990000  0  4G 2G11G19G 6
  20864563.7454  -15360567.74348 -11969202.19163
  23943938.6364    3046036.34746   2373539.27661
  21577426.1674    3745760.64846   2918777.65362
  22119871.1674  -11302083.30446  -8705904.71661
 91  3 27 23 56 44.9990000  0  4G 2G11G19G 6
  20862421.3624  -15371827.82948 -11977976.22463
  23951564.011     3086101.476 6   2404758.85721
  21581648.581     3767954.036 6   2936071.18122
  22113743.761   -11334285.601 6  -8730997.29621
 91  3 27 23 56 59.9990000  0  4G 2G11G19G 6
  20860290.4014  -15383028.78648 -11986704.17963
  23959206.8234    3126257.87645   2436049.55361
  21585885.940     3790215.957 6   2953418.14122
  22107617.534   -11366478.433 6  -8756082.51121
 91  3 27 23 57 14.9990000  0  4G 2G11G19G 6
  20858168.2924  -15394170.95148 -11995386.32163
  23966863.4724    3166504.95045   2467410.87461
  21590132.511     3812546.147 6   2970818.28622
  22101493.980   -11398661.754 6  -8781160.31521
 91  3 27 23 57 29.9990000  0  4G 2G11G19G 6
  20856060.7064  -15405253.56548 -12004022.07063
  23974541.050     3206843.096 5   2498843.16921
  21594401.1754    3834945.68946   2988272.45662
  22095373.675   -11430834.826 6  -8806230.12821
 91  3 27 23 57 44.9990000  0  4G 2G11G19G 6
  20853962.3864  -15416277.32148 -12012611.94763
  23982233.440     3247271.335 5   2530345.67621
  21598673.0734    3857413.63346   3005779.95662
  22089251.2614  -11462998.06446  -8831292.26961
 91  3 27 23 57 59.9990000  0  4G 2G11G19G 6
  20851876.2694  -15427239.81148 -12021154.09063
  23989943.323     3287791.970 5   2561920.17721
  21602962.800     3879952.733 6   3023342.87622
  22083132.073   -11495148.833 6  -8856344.70721
 91  3 27 23 58 14.9990000  0  4G 2G11G19G 6
  20849801.0894  -15438145.19848 -12029651.73463
  23997669.737     3328400.454 5   2593563.14121
  21607262.0814    3902558.96846   3040958.12562
  22077017.4174  -11527291.10046  -8881390.51261
 91  3 27 23 58 29.9990000  0  4G 2G11G19G 6
  20847736.7614  -15448989.50948 -12038101.78663
  24005418.2374    3369100.49945   2625277.45661
  21611578.4014    3925236.13746   3058628.64262
  22070901.550   -11559420.707 6  -8906426.45321
 91  3 27 23 58 44.9990000  0  4G 2G11G19G 6
  20845684.4724  -15459776.74448 -12046507.36563
  24013179.1904    3409887.79045   2657059.76261
  21615906.0814    3947980.41046   3076351.44762
  22064789.0194  -11591541.44846  -8931455.47761
 91  3 27 23 58 59.9990000  0  4G 2G11G19G 6
  20843642.448   -15470505.471 8 -12054867.35723
  24020957.8944    3450763.61146   2688911.04461
  21620246.175     3970793.559 6   3094127.90922
  22058678.8864  -11623651.50846  -8956476.18661
 91  3 27 23 59 14.9990000  0  4G 2G11G19G 6
  20841611.7144  -15481174.37348 -12063180.72863
  24028754.2144    3491729.05046   2720832.15361
  21624602.4954    3993676.86246   3111959.06262
  22052569.5894  -11655749.38346  -8981487.39661
 91  3 27 23 59 29.9990000  0  4G 2G11G19G 6
  20839593.894   -15491783.185 8 -12071447.27723
  24036563.9954    3532783.90746   2752822.95061
  21628970.7374    4016630.67046   3129845.12462
  22046464.7454  -11687834.72246  -9006488.84461
 91  3 27 23 59 44.9990000  0  4G 2G11G19G 6
  20837587.105   -15502330.442 8 -12079665.87023
  24044395.573     3573929.513 6   2784884.49021
  21633353.2144    4039656.72546   3147787.49762
  22040361.0734  -11719905.77446  -9031479.15861
 91  3 27 23 59 59.9990000  0  4G 2G11G19G 6
  20835590.362   -15512820.936 8 -12087840.22523
  24052240.901     3615160.750 5   2817012.71421
  21637746.0424    4062750.26846   3165782.46362
  22034260.9094  -11751967.05646  -9056461.85561
 91  3 28  0  0 14.9990000  0  4G 2G11G19G 6
  20833606.0114  -15523250.82648 -12095967.35663
  24060103.597     3656481.241 5   2849210.44721
  21642154.394     4085915.363 6   3183833.16022
  22028161.1594  -11784014.55146  -9081433.81361
 91  3 28  0  0 29.9990000  0  4G 2G11G19G 6
  20831633.448   -15533621.049 8 -12104047.99823
  24067985.706     3697889.746 6   2881476.79221
  21646577.3554    4109150.95946   3201938.81862
  22022066.1284  -11816049.02746  -9106395.62061
 91  3 28  0  0 44.9990000  0  4G 2G11G19G 6
  20829670.347   -15543933.594 8 -12112083.69723
  24075881.034     3739383.826 6   2913809.85821
  21651011.058     4132455.147 6   3220097.91222
  22015972.644   -11848072.305 6  -9131348.71521
 91  3 28  0  0 59.9990000  0  4G 2G11G19G 6
  20827718.659   -15554187.100 8 -12120073.39223
  24083790.9254    3780964.76046   2946210.60761
  21655457.9014    4155829.45046   3238311.63962
  22009880.8704  -11880082.64346  -9156291.71761
 91  3 28  0  1 14.9990000  0  4G 2G11G19G 6
  20825778.573   -15564385.260 8 -12128019.96423
  24091722.2454    3822628.38246   2978675.78161
  21659919.698     4179270.189 6   3256577.13822
  22003792.1984  -11912083.75346  -9181227.53261
 91  3 28  0  1 29.9990000  0  4G 2G11G19G 6
  20823847.222   -15574524.964 8 -12135920.97923
  24099666.3474    3864377.74146   3011207.74461
  21664396.0974    4202780.69946   3274897.00562
  21997704.9724  -11944072.11146  -9206153.40161
 91  3 28  0  1 44.9990000  0  4G 2G11G19G 6
  20821930.534   -15584604.025 8 -12143774.74323
  24107624.440     3906214.641 5   3043807.89921
  21668881.081     4226363.392 6   3293273.11522
  21991620.4644  -11976045.36646  -9231067.51461
 91  3 28  0  1 59.9990000  0  4G 2G11G19G 6
  20820023.409   -15594624.541 8 -12151582.88823
  24115604.745     3948136.918 5   3076474.65221
  21673382.1204    4250016.20046   3311703.85862
  21985537.2924  -12008005.33646  -9255971.26761
 91  3 28  0  2 14.9990000  0  4G 2G11G19G 6
  20818128.878   -15604581.249 8 -12159341.30723
  24123599.3314    3990149.45645   3109211.66061
  21677896.8234    4273744.65746   3330193.56562
  21979460.034   -12039946.464 6  -9280860.34021
 91  3 28  0  2 29.9990000  0  4G 2G11G19G 6
  20816246.503   -15614476.567 8 -12167051.89323
  24131608.909     4032249.408 5   3142016.77721
  21682426.347     4297546.188 6   3348740.18922
  21973384.2304  -12071871.11946  -9305736.57261
 91  3 28  0  2 44.9990000  0  4G 2G11G19G 6
  20814373.237   -15624315.485 8 -12174718.53423
  24139638.3624    4074431.38145   3174885.81861
  21686968.3864    4321415.97946   3367340.01962
  21967310.511   -12103784.116 6  -9330603.73921
 91  3 28  0  2 59.9990000  0  4G 2G11G19G 6
  20812511.792   -15634096.327 8 -12182339.92123
  24147680.526     4116696.922 5   3207819.94621
  21691525.073     4345355.875 6   3385994.47122
  21961241.940   -12135683.366 6  -9355460.18421
 91  3 28  0  3 14.9990000  0  4G 2G11G19G 6
  20810660.706   -15643821.118 8 -12189917.63123
  24155737.9334    4159043.88146   3240817.55561
  21696094.2064    4369363.98046   3404702.07662
  21955172.206   -12167570.735 6  -9380307.37721
 91  3 28  0  3 29.9990000  0  4G 2G11G19G 6
  20808822.183   -15653486.548 8 -12197449.08823
  24163813.847     4201475.321 6   3273881.02521
  21700675.3864    4393443.74446   3423465.52062
  21949107.948   -12199442.542 6  -9405142.44521
 91  3 28  0  3 44.9990000  0  4G 2G11G19G 6
  20806995.089   -15663092.297 8 -12204934.03723
  24171903.815     4243991.171 5   3307010.22621
  21705273.1364    4417595.45246   3442285.02362
  21943045.323   -12231298.360 6  -9429965.04121
 91  3 28  0  3 59.9990000  0  4G 2G11G19G 6
  20805177.800   -15672640.066 8 -12212373.81323
  24180011.769     4286589.571 6   3340203.78921
  21709882.4334    4441817.56346   3461159.39262
  21936985.089   -12263139.511 6  -9454776.21921
 91  3 28  0  4 14.9990000  0  4G 2G11G19G 6
  20803371.855   -15682129.222 8 -12219767.91923
  24188133.5264    4329270.77446   3373461.84761
  21714504.245     4466110.823 6   3480089.18922
  21930930.042   -12294965.281 6  -9479575.41921
 91  3 28  0  4 29.9990000  0  4G 2G11G19G 6
  20801575.495   -15691564.293 8 -12227119.87523
  24196269.565     4372029.922 6   3406780.65321
  21719139.1364    4490470.53346   3499070.77462
  21924876.167   -12326780.045 6  -9504366.03921
 91  3 28  0  4 44.9990000  0  4G 2G11G19G 6
  20799792.401   -15700942.802 8 -12234427.76023
  24204421.894     4414869.519 5   3440162.12321
  21723787.073     4514899.728 6   3518106.48622
  21918825.519   -12358580.808 6  -9529145.74621
 91  3 28  0  4 59.9990000  0  4G 2G11G19G 6
  20798018.753   -15710261.000 8 -12241688.64823
  24212588.9014    4457792.90045   3473608.92061
  21728449.5344    4539402.20746   3537199.31462
  21912776.3474  -12390363.70846  -9553911.54161
 91  3 28  0  5 14.9990000  0  4G 2G11G19G 6
  20796256.737   -15719519.713 8 -12248903.18723
  24220773.081     4500798.864 5   3507120.08821
  21733125.8234    4563976.96746   3556348.48062
  21906730.386   -12422129.414 6  -9578663.92721
 91  3 28  0  5 29.9990000  0  4G 2G11G19G 6
  20794504.464   -15728722.511 8 -12256074.15523
  24228969.7844    4543883.41645   3540692.45761
  21737816.964     4588620.622 6   3575551.30522
  21900689.776   -12453881.310 6  -9603405.56621
 91  3 28  0  5 44.9990000  0  4G 2G11G19G 6
  20792764.5584  -15737866.03348 -12263198.93763
  24237185.3394    4587049.69845   3574328.49661
  21742519.6444    4613336.73146   3594810.60362
  21894650.6674  -12485615.74146  -9628133.59461
 91  3 28  0  5 59.9990000  0  4G 2G11G19G 6
  20791036.089   -15746949.966 8 -12270277.28323
  24245416.5734    4630297.81045   3608028.31661
  21747236.636     4638125.570 6   3614126.55722
  21888613.550   -12517332.204 6  -9652847.61521
 91  3 28  0  6 14.9990000  0  4G 2G11G19G 6
  20789317.7614  -15755977.70448 -12277311.84863
  24253661.823     4673623.950 5   3641788.91321
  21751967.0734    4662983.87446   3633496.65862
  21882581.9484  -12549033.87946  -9677550.12161
 91  3 28  0  6 29.9990000  0  4G 2G11G19G 6
  20787609.9724  -15764953.14948 -12284305.65563
  24261920.9174    4717024.08145   3675607.21361
  21756709.464     4687907.884 6   3652917.95222
  21876553.120   -12580724.295 6  -9702243.85022
 91  3 28  0  6 44.9990000  0  4G 2G11G19G 6
  20785912.3004  -15773873.89448 -12291256.84563
  24270192.5734    4760500.29545   3709484.78761
  21761466.097     4712900.208 6   3672392.46522
  21870522.862   -12612400.792 6  -9726926.73521
 91  3 28  0  6 59.9990000  0  4G 2G11G19G 6
  20784225.5814  -15782740.53948 -12298165.87863
  24278478.5194    4804051.83545   3743421.01461
  21766232.6444    4737960.29246   3691919.80262
  21864498.1124  -12644063.74446  -9751599.06961
 91  3 28  0  7 14.9990000  0  4G 2G11G19G 6
  20782548.0584  -15791551.59748 -12305031.60263
  24286782.8624    4847679.69445   3777416.70361
  21771015.534     4763089.514 6   3711500.99922
  21858475.4174  -12675711.56046  -9776259.60761
 91  3 28  0  7 29.9990000  0  4G 2G11G19G 6
  20780883.1124  -15800304.65348 -12311852.12463
  24295099.464     4891386.053 5   3811473.56121
  21775813.401     4788290.474 6   3731138.08722
  21852456.6834  -12707341.63546  -9800906.32261
 91  3 28  0  7 44.9990000  0  4G 2G11G19G 6
  20779228.769   -15808997.459 8 -12318625.70123
  24303431.1834    4935172.82945   3845593.04161
  21780621.1904    4813565.51346   3750832.91562
  21846441.1054  -12738951.35046  -9825537.18161
 91  3 28  0  7 59.9990000  0  4G 2G11G19G 6
  20777585.8154  -15817633.18348 -12325354.79763
  24311779.769     4979036.686 5   3879772.62121
  21785449.503     4838911.636 6   3770583.11522
  21840428.9174  -12770543.61646  -9850154.44061
 91  3 28  0  8 14.9990000  0  4G 2G11G19G 6
  20775951.6754  -15826214.08448 -12332041.17663
  24320139.9404    5022975.15645   3914010.39361
  21790281.714     4864326.663 6   3790387.01522
  21834421.7534  -12802120.37646  -9874759.60961
 91  3 28  0  8 29.9990000  0  4G 2G11G19G 6
  20774330.7844  -15834738.06348 -12338683.20463
  24328516.7144    5066989.90945   3948307.58361
  21795132.472     4889812.813 6   3810246.33822
  21828416.4954  -12833679.37646  -9899350.94461
 91  3 28  0  8 44.9990000  0  3G 2G19G 6
  20772718.5194  -15843207.29848 -12345282.57263
  21799995.800     4915367.791 6   3830159.28222
  21822412.9334  -12865222.65746  -9923930.02761
 91  3 28  0  8 59.9990000  0  3G 2G19G 6
  20771118.5584  -15851622.12148 -12351839.54363
  21804871.870     4940991.629 6   3850125.89222
  21816412.5814  -12896750.01046  -9948496.70562
 91  3 28  0  9 14.9990000  0  4G15G 2G19G 6
  24072323.8314         -0.28055
  20769527.1204  -15859982.11248 -12358353.78463
  21809761.128     4966684.918 6   3870146.61622
  21810415.7304  -12928261.00146  -9973050.62261
 91  3 28  0  9 29.9990000  0  4G15G 2G19G 6
  24066775.5584     -29155.31445
  20767946.4874  -15868286.55548 -12364824.74163
  21814662.573     4992448.357 6   3890222.01322
  21804423.4484  -12959754.56346  -9997590.96961
 91  3 28  0  9 44.9990000  0  4G15G 2G19G 6
  24061241.792      -58238.774 5
  20766375.6514  -15876535.37048 -12371252.35163
  21819577.9404    5018282.14646   3910352.20061
  21798433.8004  -12991230.41546 -10022117.51061
 91  3 28  0  9 59.9990000  0  4G15G 2G19G 6
  24055721.4874     -87254.80444
  20764815.8864  -15884732.81048 -12377639.93163
  21824510.659     5044181.928 6   3930533.83522
  21792446.7304  -13022692.61746 -10046633.42462
 91  3 28  0 10 14.9990000  0  4G15G 2G19G 6
  24050210.7844    -116197.56944        -0.39971
  20763266.5194  -15892873.44248 -12383983.24263
  21829449.2144    5070153.19146   3950771.17962
  21786462.9874  -13054135.49246 -10071134.27562
 91  3 28  0 10 29.9990000  0  4G15G 2G19G 6
  24044719.284     -145066.452 4    -22495.53121
  20761728.0974  -15900956.85848 -12390281.96963
  21834405.3314    5096196.43846   3971064.58962
  21780483.1834  -13085558.45246 -10095619.60862
 91  3 28  0 10 44.9990000  0  4G15G 2G19G 6
  24039239.081     -173863.432 5    -44934.67621
  20760200.7374  -15908986.07048 -12396538.46563
  21839374.206     5122308.941 6   3991411.98021
  21774506.7454  -13116963.99346 -10120091.37362
 91  3 28  0 10 59.9990000  0  4G15G 2G19G 6
  24033773.1364    -202586.54045    -67316.27161
  20758683.8554  -15916959.37448 -12402751.39063
  21844353.2064    5148492.48646   4011814.73662
  21768534.136   -13148350.151 6 -10144548.03822
 91  3 28  0 11 14.9990000  0  4G15G 2G19G 6
  24028318.0504    -231236.69445    -89641.00561
  20757177.0264  -15924877.89948 -12408921.63363
  21849353.081     5174746.134 6   4032272.10622
  21762565.745   -13179717.938 6 -10168990.38522
 91  3 28  0 11 29.9990000  0  4G15G 2G19G 6
  24022884.987     -259815.472 5   -111910.11521
  20755680.8154  -15932744.02548 -12415051.04863
  21854361.636     5201067.470 6   4052782.22022
  21756599.2304  -13211069.52946 -10193420.11362
 91  3 28  0 11 44.9990000  0  4G15G 2G19G 6
  24017459.0734    -288318.23445   -134119.97361
  20754194.2064  -15940553.46948 -12421136.29363
  21859384.237     5227460.844 6   4073348.46622
  21750636.675   -13242400.213 6 -10217833.55322
 91  3 28  0 11 59.9990000  0  4G15G 2G19G 6
  24012050.7064    -316746.61845   -156271.88161
  20752718.1284  -15948308.53948 -12427179.16863
  21864421.698     5253924.112 6   4093969.17622
  21744679.300   -13273712.193 6 -10242232.42122
 91  3 28  0 12 14.9990000  0  4G15G 2G19G 6
  24006654.0114    -345101.03645   -178366.14561
  20751252.4484  -15956009.74148 -12433180.06463
  21869468.651     5280456.638 6   4114643.85322
  21738723.769   -13305005.819 6 -10266616.98622
 91  3 28  0 12 29.9990000  0  4G15G 2G19G 6
  24001272.605     -373378.642 5   -200400.56721
  20749798.3864  -15963654.49548 -12439136.98063
  21874530.972     5307060.959 6   4135374.47122
  21732773.3554  -13336278.17647 -10290984.97062
 91  3 28  0 12 44.9990000  0  4G15G 2G19G 6
  23995904.597     -401578.498 5   -222374.40821
  20748353.9094  -15971242.40948 -12445049.60563
  21879608.097     5333737.665 6   4156161.50922
  21726825.948   -13367528.801 6 -10315336.03322
 91  3 28  0 12 59.9990000  0  4G15G 2G19G 6
  23990553.8944    -429701.55245   -244288.41861
  20746921.5974  -15978775.01248 -12450919.13363
  21884699.2614    5360485.58846   4177004.00762
  21720882.815   -13398758.610 6 -10339670.87122
 91  3 28  0 13 14.9990000  0  4G15G 2G19G 6
  23985217.4564    -457748.49145   -266143.13061
  20745497.1444  -15986253.14248 -12456746.20763
  21889800.5034    5387303.71746   4197901.23962
  21714943.519   -13429968.351 6 -10363990.07022
 91  3 28  0 13 29.9990000  0  4G15G 2G19G 6
  23979895.159     -485720.333 5   -287939.28321
  20744084.847   -15993678.303 8 -12462532.00423
  21894916.245     5414190.719 6   4218852.14422
  21709008.1754  -13461159.33046 -10388294.65862
 91  3 28  0 13 44.9990000  0  4G15G 2G19G 6
  23974587.886     -513614.727 5   -309675.07621
  20742681.3004  -16001048.63848 -12468275.08463
  21900046.9874    5441148.75846   4239858.37762
  21703076.714   -13492329.360 6 -10412582.92021
 91  3 28  0 13 59.9990000  0  4G15G 2G19G 6
  23969292.073     -541434.510 5   -331352.73421
  20741289.7144  -16008367.47948 -12473978.03763
  21905192.698     5468174.354 6   4260917.26522
  21697148.214   -13523481.535 6 -10436857.26422
 91  3 28  0 14 14.9990000  0  4G15G 2G19G 6
  23964016.073     -569176.146 5   -352969.51921
  20739907.0034  -16015631.72148 -12479638.44763
  21910346.339     5495270.696 6   4282031.28622
  21691226.073   -13554612.444 6 -10461115.04422
 91  3 28  0 14 29.9990000  0  4G15G 2G19G 6
  23958750.925     -596839.264 5   -374525.13021
  20738534.9254  -16022841.73548 -12485256.60163
  21915516.5344    5522437.69546   4303200.34862
  21685304.378   -13585722.065 6 -10485356.22822
 91  3 28  0 14 44.9990000  0  4G15G 2G19G 6
  23953500.620     -624422.216 5   -396018.26021
  20737173.5584  -16029996.07548 -12490831.37363
  21920699.120     5549676.608 6   4324425.46222
  21679389.519   -13616808.834 6 -10509579.61222
 91  3 28  0 14 59.9990000  0  4G15G 2G19G 6
  23948266.8004    -651927.84045   -417451.14461
  20735822.308   -16037097.678 8 -12496365.04823
  21925897.722     5576984.500 6   4345704.31522
  21673476.5814  -13647875.58146 -10533787.39862
 91  3 28  0 15 14.9990000  0  4G15G 2G19G 6
  23943047.769     -679353.373 5   -438821.60621
  20734479.581   -16044144.476 8 -12501856.01923
  21931106.355     5604363.662 6   4367038.71722
  21667569.3474  -13678919.72046 -10557977.57662
 91  3 28  0 15 29.9990000  0  4G15G 2G19G 6
  23937843.417     -706700.645 5   -460131.07521
  20733149.347   -16051138.673 8 -12507305.99823
  21936329.128     5631812.182 6   4388427.15222
  21661665.2764  -13709943.31646 -10582151.74862
 91  3 28  0 15 44.9990000  0  4G15G 2G19G 6
  23932656.4954    -733963.36445   -481374.67361
  20731829.784   -16058074.512 8 -12512710.50623
  21941567.026     5659335.661 6   4409873.99822
  21655766.401   -13740940.375 6 -10606305.21922
 91  3 28  0 15 59.9990000  0  4G15G 2G19G 6
  23927483.0894    -761145.45545   -502555.42761
  20730520.5504  -16064956.35448 -12518072.93963
  21946816.6904    5686929.83546   4431375.94762
  21649872.7844  -13771914.90446 -10630441.15462
 91  3 28  0 16 14.9990000  0  4G15G 2G19G 6
  23922325.6754    -788248.40045   -523674.52861
  20729222.0034  -16071785.95148 -12523394.66563
  21952082.542     5714593.026 6   4452931.66222
  21643982.3084  -13802868.56846 -10654560.82562
 91  3 28  0 16 29.9990000  0  4G15G 2G19G 6
  23917182.3864    -815269.74145   -544730.03461
  20727931.5034  -16078561.32948 -12528674.14063
  21957363.089     5742327.385 6   4474542.82822
  21638097.6514  -13833798.98047 -10678662.38762
 91  3 28  0 16 44.9990000  0  4G15G 2G19G 6
  23912054.7454    -842209.87545   -565722.30361
  20726652.1054  -16085283.38848 -12533912.07163
  21962648.8394    5770131.95446   4496208.73161
  21632215.3554  -13864706.73447 -10702746.28462
 91  3 28  0 16 59.9990000  0  4G15G 2G19G 6
  23906946.2534    -869066.55845   -586649.50161
  20725382.8784  -16091950.15348 -12539106.91363
  21967955.933     5798008.646 6   4517930.80122
  21626337.808   -13895589.787 7 -10726810.92622
 91  3 28  0 17 14.9990000  0  4G15G 2G19G 6
  23901849.8084    -895842.81645   -607514.06061
  20724124.2764  -16098564.93048 -12544261.24563
  21973273.808     5825954.400 6   4539706.69621
  21620466.6364  -13926451.07246 -10750858.62362
 91  3 28  0 17 29.9990000  0  4G15G 2G19G 6
  23896769.050     -922539.394 5   -628316.52021
  20722876.1364  -16105129.23848 -12549376.25463
  21978603.722     5853967.839 6   4561535.33521
  21614597.6284  -13957291.79246 -10774890.28162
 91  3 28  0 17 44.9990000  0  4G15G 2G19G 6
  23891704.4874    -949151.87445   -649053.41061
  20721637.0344  -16111638.90548 -12554448.67963
  21983949.495     5882053.077 6   4583419.91621
  21608732.753   -13988107.539 6 -10798902.49022
 91  3 28  0 17 59.9990000  0  4G15G 2G19G 6
  23886658.9334    -975679.42645   -669724.14161
  20720408.8624  -16118093.85748 -12559478.47263
  21989307.737     5910210.437 6   4605360.69422
  21602874.534   -14018897.799 6 -10822894.81522
 91  3 28  0 18 14.9990000  0  4G15G 2G19G 6
  23881625.1364   -1002123.21045   -690329.59361
  20719190.9804  -16124495.67648 -12564466.86463
  21994679.105     5938438.333 6   4627356.43421
  21597016.9014  -14049664.01546 -10846868.43162
 91  3 28  0 18 29.9990000  0  4G15G 2G19G 6
  23876609.1594   -1028480.72045   -710867.87361
  20717982.3314  -16130841.75948 -12569411.82063
  22000063.8624    5966739.21346   4649409.06161
  21591168.8154  -14080403.52446 -10870821.23162
 91  3 28  0 18 44.9990000  0  4G15G 2G19G 6
  23871609.8704   -1054758.41445   -731343.93961
  20716783.8554  -16137139.18048 -12574318.86063
  22005463.292     5995106.298 6   4671513.26522
  21585322.1284  -14111122.88046 -10894758.32462
 91  3 28  0 18 59.9990000  0  4G15G 2G19G 6
  23866626.636    -1080952.966 5   -751755.18821
  20715595.9874  -16143384.91148 -12579185.63063
  22010872.792     6023542.683 6   4693671.46721
  21579481.1674  -14141818.80746 -10918677.16062
 91  3 28  0 19 14.9990000  0  5G15G 2G13G19G 6
  23861657.675    -1107062.034 5   -772099.87421
  20714417.6204  -16149577.14748 -12584010.70863
  23833999.9174         -0.50054
  22016299.0974    6052050.22546   4715885.12461
  21573645.8704  -14172489.23247 -10942576.12362
 91  3 28  0 19 29.9990000  0  5G15G 2G13G19G 6
  23856704.558    -1133087.166 5   -792379.11221
  20713248.378   -16155717.766 8 -12588795.56823
  23822361.1754     -61140.12944
  22021735.901     6080627.128 6   4738152.83421
  21567812.0584  -14203135.84647 -10966456.53762
 91  3 28  0 19 44.9990000  0  5G15G 2G13G19G 6
  23851767.5194   -1159028.15045   -812592.79461
  20712090.1054  -16161806.93048 -12593540.32963
  23810731.8154    -122252.68844
  22027187.511     6109273.014 6   4760474.27622
  21561984.753   -14233758.651 7 -10990318.41322
 91  3 28  0 19 59.9990000  0  5G15G 2G13G19G 6
  23846844.026    -1184881.491 5   -832738.17621
  20710941.0584  -16167841.73748 -12598242.74563
  23799110.9174    -183334.58544
  22032652.042     6137990.990 6   4782851.89921
  21556164.0894  -14264354.33647 -11014159.15362
 91  3 28  0 20 14.9990000  0  5G15G 2G13G19G 6
  23841939.972    -1210646.958 5   -852815.09021
  20709803.9564  -16173822.39348 -12602902.95663
  23787493.433     -244385.584 4
  22038129.355     6166781.004 5   4805285.67121
  21550346.5814  -14294922.75047 -11037978.62562
 91  3 28  0 20 29.9990000  0  5G15G 2G13G19G 6
  23837058.6754   -1236326.08345   -872824.72261
  20708675.5114  -16179750.75548 -12607522.42663
  23775882.042     -305407.181 4
  22043627.565     6195641.220 6   4827774.12222
  21544534.9724  -14325465.62747 -11061778.21162
 91  3 28  0 20 44.9990000  0  5G15G 2G13G19G 6
  23832186.4724   -1261921.73245   -892769.30461
  20707557.5424  -16185630.18948 -12612103.76363
  23764276.472     -366402.336 4        -0.37131
  22049127.198     6224568.506 6   4850314.84222
  21538727.2924  -14355985.88847 -11085560.17462
 91  3 28  0 20 59.9990000  0  5G15G 2G13G19G 6
  23827334.315    -1287431.157 5   -912646.72121
  20706447.7454  -16191458.17148 -12616645.01863
  23752678.222     -427368.170 4    -47505.74821
  22054643.597     6253565.492 6   4872909.86521
  21532924.081   -14386480.970 7 -11109322.50422
 91  3 28  0 21 14.9990000  0  5G15G 2G13G19G 6
  23822496.1514   -1312854.12445   -932456.76861
  20705348.6904  -16197235.21348 -12621146.58263
  23741081.5974    -488304.54844    -94988.18761
  22060175.925     6282631.494 6   4895558.68521
  21527127.714   -14416950.917 7 -11133065.24122
 91  3 28  0 21 29.9990000  0  5G15G 2G13G19G 6
  23817672.5424   -1338190.35145   -952199.22761
  20704259.2844  -16202961.30448 -12625608.44063
  23729488.6984    -549211.00144
  22065720.409     6311766.518 6   4918261.28722
  21521332.7844  -14447395.51347 -11156788.23462
 91  3 28  0 21 44.9990000  0  5G15G 2G13G19G 6
  23812868.940    -1363433.623 5   -971869.22821
  20703180.1284  -16208630.47148 -12630025.94363
  23717907.3154    -610080.80545
  22071277.1054    6340976.78946   4941022.50262
  21515545.308   -14477808.359 7 -11180486.48022
 91  3 28  0 21 59.9990000  0  5G15G 2G13G19G 6
  23808082.284    -1388589.199 5   -991470.91121
  20702110.9804  -16214248.54748 -12634403.63063
  23706326.9014    -670919.43945
  22076851.183     6370256.643 6   4963837.96122
  21509761.980   -14508194.994 7 -11204164.30122
 91  3 28  0 22 14.9990000  0  5G15G 2G13G19G 6
  23803310.8234   -1413658.48945  -1011005.35561
  20701050.245   -16219817.480 8 -12638743.03323
  23694751.6594    -731728.73745
  22082437.0584    6399604.08246   4986706.08761
  21503983.7304  -14538557.15047 -11227823.05062
 91  3 28  0 22 29.9990000  0  5G15G 2G13G19G 6
  23798558.151    -1438639.199 5  -1030470.76521
  20700001.456   -16225335.018 8 -12643042.38923
  23683186.612     -792505.795 5        -0.41131
  22088036.4014    6429021.30145   5009628.55962
  21498211.8784  -14568892.41847 -11251460.85662
 91  3 28  0 22 44.9990000  0  5G15G 2G13G19G 6
  23793823.511    -1463531.132 5  -1049867.01121
  20698961.347   -16230801.544 8 -12647301.99423
  23671628.214     -853250.680 5    -47333.61821
  22093644.776     6458508.142 6   5032605.29922
  21492443.7694  -14599200.86247 -11275077.75062
 91  3 28  0 22 59.9990000  0  5G15G 2G13G19G 6
  23789100.198    -1488333.788 5  -1069193.67821
  20697930.6054  -16236217.04448 -12651521.83863
  23660074.1904    -913962.96645    -94641.41061
  22099270.401     6488064.659 6   5055636.33922
  21486681.9804  -14629482.26347 -11298673.58462
 91  3 28  0 23 14.9990000  0  5G15G 2G13G19G 6
  23784401.9954   -1513046.12645  -1088450.00161
  20696909.5504  -16241580.57948 -12655701.18363
  23648530.0114    -974641.09645   -141922.64961
  22104905.6674    6517691.73646   5078722.34262
  21480924.8474  -14659735.32247 -11322247.32762
 91  3 28  0 23 29.9990000  0  5G15G 2G13G19G 6
  23779712.792    -1537669.173 5  -1107636.75621
  20695898.042   -16246893.862 8 -12659841.38523
  23636988.706    -1035286.341 5   -189178.25821
  22110559.9484    6547387.67046   5101862.00262
  21475174.073   -14689961.517 7 -11345800.13422
 91  3 28  0 23 44.9990000  0  5G15G 2G13G19G 6
  23775045.339    -1562204.233 5  -1126754.91821
  20694895.214   -16252158.617 8 -12663943.76523
  23625458.1904   -1095900.03245   -236409.21861
  22116221.987     6577150.873 6   5125054.08621
  21469426.831   -14720162.220 7 -11369333.07822
 91  3 28  0 23 59.9990000  0  5G15G 2G13G19G 6
  23770390.8084   -1586647.81445  -1145801.78861
  20693904.292   -16257371.622 8 -12668005.81823
  23613926.620    -1156478.552 5   -283612.81021
  22121898.886     6606984.599 6   5148301.12721
  21463684.0114  -14750333.93547 -11392843.43862
 91  3 28  0 24 14.9990000  0  5G15G 2G13G19G 6
  23765758.870    -1611002.845 5  -1164779.70221
  20692921.0894  -16262536.20648 -12672030.14163
  23602406.612    -1217024.930 5   -330791.34021
  22127587.4954    6636885.46546   5171600.47362
  21457947.4564  -14780479.81847 -11416333.67162
 91  3 28  0 24 29.9990000  0  5G15G 2G13G19G 6
  23761143.2374   -1635264.89745  -1183685.14861
  20691948.3864  -16267648.12548 -12676013.42563
  23590890.081    -1277534.441 5   -377941.21921
  22133294.1204    6666857.82146   5194955.53262
  21452217.8084  -14810595.24947 -11439800.16462
 91  3 28  0 24 44.9990000  0  5G15G 2G13G19G 6
  23756541.5424   -1659431.84745  -1202516.46861
  20690985.565   -16272705.914 8 -12679954.53523
  23579380.073    -1338004.845 4   -425060.58321
  22139011.3154    6696903.37046   5218367.61161
  21446491.4874  -14840678.37847 -11463241.50062
 91  3 28  0 24 59.9990000  0  5G15G 2G13G19G 6
  23751962.7614   -1683502.47245  -1221272.75261
  20690034.1284  -16277708.94248 -12683852.96763
  23567877.815    -1398434.937 4   -472148.51621
  22144739.761     6727022.774 6   5241837.25921
  21440775.1904  -14870728.39147 -11486657.03462
 91  3 28  0 25 14.9990000  0  5G15G 2G13G19G 6
  23747400.745    -1707480.997 5  -1239957.29321
  20689091.9334  -16282661.62848 -12687712.17463
  23556387.558    -1458828.809 5   -519208.25421
  22150485.003     6757211.595 6   5265361.00421
  21435062.0424  -14900749.37247 -11510049.93862
 91  3 28  0 25 29.9990000  0  5G15G 2G13G19G 6
  23742854.5894   -1731369.39345  -1258571.56161
  20688158.6834  -16287566.43948 -12691534.07563
  23544900.065    -1519188.589 5   -566241.42721
  22156245.3624    6787467.28346   5288936.83161
  21429353.2064  -14930743.61847 -11533422.01362
 91  3 28  0 25 44.9990000  0  5G15G 2G13G19G 6
  23738322.651    -1755164.840 5  -1277113.40421
  20687234.636   -16292420.696 8 -12695316.58623
  23533423.8314   -1579511.37445   -613245.76961
  22162015.1364    6817792.53946   5312566.86261
  21423652.1444  -14960708.23647 -11556771.00062
 91  3 28  0 25 59.9990000  0  5G15G 2G13G19G 6
  23733811.761    -1778865.698 5  -1295581.58421
  20686320.5654  -16297223.35248 -12699058.88563
  23521945.730    -1639795.406 4   -660219.91521
  22167799.073     6848188.649 6   5336252.12721
  21417954.4174  -14990641.74747 -11580095.74862
 91  3 28  0 26 14.9990000  0  5G15G 2G13G19G 6
  23729323.4724   -1802473.21045  -1313976.99861
  20685416.9874  -16301976.11748 -12702762.30763
  23510482.0194   -1700042.15445   -707165.02261
  22173596.4254    6878653.99446   5359991.31961
  21412264.6364  -15020545.61447 -11603397.40262
 91  3 28  0 26 29.9990000  0  5G15G 2G13G19G 6
  23724849.511    -1825983.871 5  -1332296.92321
  20684521.7844  -16306675.68148 -12706424.27663
  23499026.9954   -1760247.86245   -754078.19061
  22179408.9334    6909191.75646   5383786.93361
  21406580.1364  -15050416.19447 -11626673.11562
 91  3 28  0 26 44.9990000  0  5G15G 2G13G19G 6
  23720390.8004   -1849402.87145  -1350545.46461
  20683636.9404  -16311327.58248 -12710049.10563
  23487574.6594   -1820417.57445   -800963.25861
  22185232.050     6939796.435 6   5407634.72921
  21400901.0814  -15080258.84547 -11649927.07862
 91  3 28  0 26 59.9990000  0  5G15G 2G13G19G 6
  23715956.073    -1872723.947 5  -1368717.64621
  20682763.0114  -16315925.89048 -12713632.17563
  23476134.511    -1880544.874 5   -847815.29821
  22191067.3474    6970474.07445   5431539.35761
  21395229.0194  -15110067.23147 -11673154.33062
 91  3 28  0 27 14.9990000  0  5G15G 2G13G19G 6
  23711534.0034   -1895946.65745  -1386813.20861
  20681897.8084  -16320470.79048 -12717173.62463
  23464700.730    -1940629.404 5   -894634.01721
  22196922.5264    7001224.53746   5455500.72061
  21389563.9254  -15139841.39347 -11696354.91662
 91  3 28  0 27 29.9990000  0  5G15G 2G13G19G 6
  23707134.2064   -1919073.20045  -1404833.85361
  20681042.1514  -16324964.96648 -12720675.54863
  23453272.112    -2000673.335 5   -941421.12821
  22202788.323     7032045.116 6   5479516.74221
  21383904.1834  -15169583.56147 -11719530.57162
 91  3 28  0 27 44.9990000  0  5G15G 2G13G19G 6
  23702753.651    -1942103.522 5  -1422779.50721
  20680196.339   -16329408.760 8 -12724138.22023
  23441857.815    -2060676.573 5   -988176.50721
  22208664.440     7062935.638 5   5503587.26021
  21378250.503   -15199293.794 7 -11742681.35122
 91  3 28  0 27 59.9990000  0  5G15G 2G13G19G 6
  23698387.6364   -1965034.35245  -1440647.61561
  20679360.5504  -16333799.16048 -12727559.28064
  23430448.8784   -2120635.57545  -1034897.41161
  22214556.3234    7093899.21446   5527714.69561
  21372603.4404  -15228968.71047 -11765804.60462
 91  3 28  0 28 14.9990000  0  5G15G 2G13G19G 6
  23694040.456    -1987864.707 5  -1458437.47021
  20678534.3864  -16338135.30448 -12730938.06363
  23419049.245    -2180549.187 5  -1081582.96021
  22220463.4724    7124936.62446   5551899.65461
  21366963.339   -15258607.448 7 -11788899.66922
 91  3 28  0 28 29.9990000  0  5G15G 2G13G19G 6
  23689718.9254   -2010598.60145  -1476152.12561
  20677719.1514  -16342422.08948 -12734278.38763
  23407655.3474   -2240421.77645  -1128236.53861
  22226380.8624    7156043.22546   5576138.53861
  21361327.300   -15288214.238 7 -11811969.84622
 91  3 28  0 28 44.9990000  0  5G15G 2G13G19G 6
  23685410.964    -2033232.420 5  -1493788.82021
  20676913.2224  -16346655.86448 -12737577.39564
  23396266.815    -2300249.453 5  -1174855.10821
  22232316.5114    7187222.47146   5600434.02961
  21355700.636   -15317785.489 7 -11835012.32722
 91  3 28  0 28 59.9990000  0  5G15G 2G13G19G 6
  23681119.1984   -2055769.25645  -1511349.93561
  20676117.1594  -16350840.21548 -12740837.90064
  23384888.565    -2360035.337 5  -1221441.13621
  22238264.308     7218470.727 6   5624783.29521
  21350081.714   -15347324.396 7 -11858029.60422
 91  3 28  0 29 14.9990000  0  5G15G 2G13G19G 6
  23676853.0264   -2078202.79945  -1528830.58161
  20675332.1754  -16354969.31848 -12744055.35464
  23373521.5194   -2419773.09445  -1267989.67461
  22244223.081     7249794.014 6   5649191.02221
  21344467.519   -15376824.807 7 -11881016.89222
 91  3 28  0 29 29.9990000  0  5G15G 2G13G19G 6
  23672600.644    -2100537.673 5  -1546234.34021
  20674555.9564  -16359048.14048 -12747233.61764
  23362162.581    -2479467.176 5  -1314504.17521
  22250195.6364    7281187.42846   5673653.38661
  21338860.362   -15406291.390 7 -11903977.81622
 91  3 28  0 29 44.9990000  0  5G15G 2G13G19G 6
  23668373.261    -2122772.886 5  -1563560.42521
  20673788.0344  -16363075.89248 -12750372.09564
  23350810.4484   -2539116.29445  -1360983.68761
  22256184.0584    7312651.65646   5698170.95261
  21333258.714   -15435723.164 7 -11926911.61422
 91  3 28  0 29 59.9990000  0  5G15G 2G13G19G 6
  23664160.386    -2144905.426 5  -1580806.47921
  20673031.5974  -16367050.09248 -12753468.84164
  23339467.847    -2598717.799 5  -1407426.04321
  22262184.2614    7344189.22145   5722745.66261
  21327665.269   -15465117.337 7 -11949816.11822
 91  3 28  0 30 14.9990000  0  5G15G 2G13G19G 6
  23659966.3624   -2166932.37045  -1597970.29061
  20672285.9254  -16370968.05548 -12756521.76964
  23328132.3624   -2658268.68945  -1453829.00861
  22268199.542     7375802.595 5   5747379.41121
  21322079.355   -15494471.031 7 -11972689.08022
 91  3 28  0 30 29.9990000  0  5G15G 2G13G19G 6
  23655795.0114   -2188856.08045  -1615053.66661
  20671551.2304  -16374832.53348 -12759533.01664
  23316810.5344   -2717770.89045  -1500193.99561
  22274231.2064    7407489.28446   5772070.30461
  21316500.214   -15523786.705 7 -11995532.41923
 91  3 28  0 30 44.9990000  0  5G15G 2G13G19G 6
  23651642.847    -2210671.940 5  -1632052.98721
  20670826.7534  -16378639.52448 -12762499.47064
  23305500.2224   -2777219.77545  -1546517.44561
  22280274.855     7439253.629 5   5796821.72921
  21310929.159   -15553059.684 7 -12018342.48423
 91  3 28  0 30 59.9990000  0  5G15G 2G13G19G 6
  23647512.808    -2232385.503 5  -1648972.58621
  20670112.2764  -16382394.89648 -12765425.70064
  23294196.6834   -2836620.78745  -1592803.59161
  22286335.2764    7471089.58945   5821628.93761
  21305366.933   -15582295.714 7 -12041123.75223
 91  3 28  0 31 14.9990000  0  5G15G 2G13G19G 6
  23643399.7694   -2253995.67745  -1665811.59961
  20669408.4174  -16386097.65948 -12768310.93964
  23282902.7614   -2895972.78745  -1639051.54461
  22292404.440     7502998.176 5   5846492.71921
  21299809.308   -15611493.612 7 -12063875.30623
 91  3 28  0 31 29.9990000  0  5G15G 2G13G19G 6
  23639308.4804   -2275502.51045  -1682570.11661
  20668712.3864  -16389748.50548 -12771155.72464
  23271617.269    -2955276.017 5  -1685261.49921
  22298488.815     7534978.687 6   5871412.56921
  21294260.9334  -15640653.78847 -12086597.46463
 91  3 28  0 31 44.9990000  0  5G15G 2G13G19G 6
  23635234.1594   -2296904.34745  -1699246.80461
  20668028.8704  -16393346.25648 -12773959.13764
  23260340.4334   -3014528.78945  -1731432.15061
  22304590.792     7567032.503 5   5896389.55521
  21288720.269   -15669774.742 7 -12109289.07023
 91  3 28  0 31 59.9990000  0  5G15G 2G13G19G 6
  23631182.1124   -2318202.04645  -1715842.35161
  20667354.1054  -16396892.00148 -12776722.02464
  23249076.1594   -3073731.68445  -1777563.95761
  22310703.026     7599158.556 6   5921422.79621
  21283184.9804  -15698857.04047 -12131950.53763
 91  3 28  0 32 14.9990000  0  5G15G 2G13G19G 6
  23627149.3004   -2339393.52745  -1732355.16861
  20666689.0894  -16400383.87748 -12779442.93664
  23237816.886    -3132882.532 5  -1823655.19821
  22316830.8554    7631358.58746   5946513.69961
  21277659.167   -15727898.715 7 -12154580.36422
 91  3 28  0 32 29.9990000  0  5G15G 2G13G19G 6
  23623139.3944   -2360478.53845  -1748785.00261
  20666035.3004  -16403822.04048 -12782121.99764
  23226571.409    -3191981.017 5  -1869705.60921
  22322972.2304    7663632.51546   5971662.18961
  21272139.339   -15756899.699 7 -12177178.47922
 91  3 28  0 32 44.9990000  0  5G15G 2G13G19G 6
  23619144.714    -2381453.450 5  -1765129.01021
  20665392.0114  -16407203.54448 -12784756.90664
  23215335.159    -3251023.800 5  -1915712.66021
  22329130.4564    7695983.25646   5996870.53161
  21266629.815   -15785856.670 7 -12199742.30122
 91  3 28  0 32 59.9990000  0  5G15G 2G13G19G 6
  23615172.3394   -2402324.19645  -1781391.86161
  20664757.519   -16410534.188 8 -12787352.18424
  23204110.4724   -3310016.06545  -1961680.33761
  22335303.495     7728405.016 6   6022134.22121
  21261127.245   -15814775.073 7 -12222276.06722
 91  3 28  0 33 14.9990000  0  5G15G 2G13G19G 6
  23611220.659    -2423088.858 5  -1797572.04521
  20664133.7144  -16413812.59748 -12789906.76664
  23192895.1364   -3368955.84445  -2007607.13961
  22341481.5894    7760899.28346   6047454.40361
  21255631.323   -15843653.325 7 -12244778.54822
 91  3 28  0 33 29.9990000  0  5G15G 2G13G19G 6
  23607290.5654   -2443745.91545  -1813668.41161
  20663519.651   -16417037.736 8 -12792419.83324
  23181688.495    -3427841.863 5  -2053492.02421
  22347680.792     7793467.154 6   6072831.94121
  21250145.331   -15872490.041 7 -12267248.65822
 91  3 28  0 33 44.9990000  0  5G15G 2G13G19G 6
  23603379.198    -2464297.264 5  -1829682.41621
  20662915.3234  -16420211.65248 -12794892.98863
  23170491.651    -3486675.789 5  -2099336.33321
  22353891.9094    7826106.28946   6098265.01261
  21244664.136   -15901287.157 7 -12289687.91722
 91  3 28  0 33 59.9990000  0  5G15G 2G13G19G 6
  23599491.269    -2484740.903 5  -1845612.49221
  20662321.331   -16423332.964 8 -12797325.15823
  23159305.7304   -3545455.98045  -2145138.77361
  22360117.292     7858818.419 6   6123754.96221
  21239191.3554  -15930042.80947 -12312094.86362
 91  3 28  0 34 14.9990000  0  5G15G 2G13G19G 6
  23595621.3944   -2505075.19445  -1861457.34061
  20661738.292   -16426400.481 8 -12799715.40524
  23148128.425    -3604180.666 5  -2190897.95921
  22366354.7374    7891604.71745   6149302.69461
  21233728.105   -15958755.566 7 -12334468.38922
 91  3 28  0 34 29.9990000  0  5G15G 2G13G19G 6
  23591768.378    -2525302.596 5  -1877218.86621
  20661164.276   -16429416.860 8 -12802065.80723
  23136964.136    -3662851.942 5  -2236615.54621
  22372604.2304    7924462.64845   6174906.24061
  21228272.698   -15987427.598 7 -12356810.17922
 91  3 28  0 34 44.9990000  0  5G15G 2G13G19G 6
  23587942.034    -2545419.841 5  -1892894.58421
  20660599.831   -16432379.147 8 -12804374.05823
  23125812.331    -3721466.489 5  -2282288.87921
  22378875.2534    7957395.04745   6200567.84161
  21222824.7374  -16016055.81847 -12379117.81762
 91  3 28  0 34 59.9990000  0  5G15G 2G13G19G 6
  23584136.5114   -2565431.17145  -1908487.76361
  20660046.565   -16435291.797 8 -12806643.63223
  23114668.4334   -3780028.30645  -2327921.17061
  22385157.4254    7990397.47345   6226283.97961
  21217385.1204  -16044644.39847 -12401394.57762
 91  3 28  0 35 14.9990000  0  5G15G 2G13G19G 6
  23580348.011    -2585333.515 5  -1923996.03221
  20659501.3474  -16438152.32448 -12808872.58563
  23103535.3314   -3838534.44045  -2373510.06261
  22391448.2694    8023472.32445   6252056.54961
  21211951.0504  -16073190.46747 -12423638.21062
 91  3 28  0 35 29.9990000  0  5G15G 2G13G19G 6
  23576581.440    -2605126.346 5  -1939418.99121
  20658966.472   -16440960.606 8 -12811060.83423
  23092412.6514   -3896984.23845  -2419055.06361
  22397757.9254    8056619.89045   6277885.79361
  21206527.112   -16101693.672 7 -12445848.44922
 91  3 28  0 35 44.9990000  0  5G15G 2G13G19G 6
  23572836.792    -2624806.949 5  -1954754.46821
  20658443.097   -16443714.170 8 -12813206.44723
  23081301.3474   -3955374.83645  -2464553.92061
  22404077.0194    8089842.80045   6303773.73461
  21201112.151   -16130151.141 7 -12468023.04922
 91  3 28  0 35 59.9990000  0  5G15G 2G13G19G 6
  23569107.1054   -2644380.70745  -1970006.66361
  20657929.034   -16446418.468 8 -12815313.66823
  23070201.9484   -4013711.36645  -2510010.66361
  22410413.589     8123135.407 5   6329715.99221
  21195704.698   -16158568.111 7 -12490166.09322
 91  3 28  0 36 14.9990000  0  5G15G 2G13G19G 6
  23565404.581    -2663846.285 5  -1985174.60521
  20657423.558   -16449072.753 8 -12817381.91823
  23059110.4334   -4071992.37245  -2555424.13961
  22416764.472     8156498.475 5   6355713.16921
  21190304.7764  -16186943.61347 -12512276.81862
 91  3 28  0 36 29.9990000  0  5G15G 2G13G19G 6
  23561723.1984   -2683201.96345  -2000256.92461
  20656928.776   -16451675.590 8 -12819410.07823
  23048028.378    -4130216.246 5  -2600793.09621
  22423124.409     8189933.477 5   6381766.36221
  21184914.034   -16215275.886 7 -12534353.86022
 91  3 28  0 36 44.9990000  0  5G15G 2G13G19G 6
  23558062.097    -2702446.078 5  -2015252.28521
  20656443.034   -16454225.786 8 -12821397.22223
  23036959.1444   -4188381.40445  -2646116.29461
  22429503.784     8223441.613 5   6407876.58021
  21179530.222   -16243563.311 7 -12556395.95622
 91  3 28  0 36 59.9990000  0  5G15G 2G13G19G 6
  23554420.042    -2721577.904 5  -2030160.16821
  20655968.5814  -16456722.86348 -12823342.96963
  23025901.6444   -4246486.98845  -2691393.08461
  22435893.6594    8257023.35945   6434044.16861
  21174155.495   -16271805.195 7 -12578402.56222
 91  3 28  0 37 14.9990000  0  5G15G 2G13G19G 6
  23550803.0734   -2740598.56345  -2044981.39261
  20655502.4094  -16459168.51348 -12825248.64263
  23014854.8624   -4304534.04545  -2736624.25861
  22442298.0654    8290677.13746   6460267.86461
  21168790.683   -16300002.974 7 -12600374.80822
 91  3 28  0 37 29.9990000  0  5G15G 2G13G19G 6
  23547204.659    -2759503.250 5  -2059712.26021
  20655048.1284  -16461558.07648 -12827110.61163
  23003820.6754   -4362517.35545  -2781805.79961
  22448714.2764    8324407.61846   6486551.32061
  21163432.9724  -16328151.52847 -12622308.68462
 91  3 28  0 37 44.9990000  0  5G15G 2G13G19G 6
  23543628.7064   -2778296.25245  -2074356.12361
  20654602.808   -16463896.273 8 -12828932.56223
  22992798.8784   -4420441.68745  -2826941.33661
  22455147.933     8358210.052 5   6512890.83221
  21158085.940   -16356255.393 7 -12644207.74822
 91  3 28  0 37 59.9990000  0  5G15G 2G13G19G 6
  23540073.550    -2796978.487 5  -2088913.69721
  20654167.605   -16466184.202 8 -12830715.33723
  22981787.573    -4478307.483 5  -2872031.27621
  22461594.0504    8392083.32745   6539285.58361
  21152746.3944  -16384315.40547 -12666072.63362
 91  3 28  0 38 14.9990000  0  5G15G 2G13G19G 6
  23536538.730    -2815547.050 5  -2103382.66721
  20653742.2454  -16468419.52248 -12832457.11763
  22970788.9254   -4536111.71146  -2917073.26461
  22468053.9564    8426030.00545   6565737.52761
  21147415.964   -16412328.676 7 -12687901.10522
 91  3 28  0 38 29.9990000  0  5G15G 2G13G19G 6
  23533025.808    -2834002.408 5  -2117763.38621
  20653326.003   -16470602.940 8 -12834158.45523
  22959797.7374   -4593854.67545  -2962067.49261
  22474527.1124    8460049.19645   6592245.92161
  21142093.440   -16440295.662 7 -12709693.49822
 91  3 28  0 38 44.9990000  0  5G15G 2G13G19G 6
  23529537.8394   -2852345.37445  -2132056.56861
  20652919.2924  -16472735.67448 -12835820.29963
  22948822.0654   -4651537.27645  -3007014.66361
  22481013.683     8494139.550 6   6618809.80221
  21136778.933   -16468217.440 7 -12731450.68223
 91  3 28  0 38 59.9990000  0  5G15G 2G13G19G 6
  23526068.386    -2870577.590 5  -2146263.43821
  20652524.3784  -16474819.58848 -12837444.10063
  22937856.394    -4709160.925 5  -3051915.91921
  22487515.4874    8528299.14845   6645427.65261
  21131474.565   -16496095.657 7 -12753173.91722
 91  3 28  0 39 14.9990000  0  5G15G 2G13G19G 6
  23522618.4954   -2888694.83245  -2160380.73961
  20652137.0034  -16476850.78848 -12839026.82263
  22926901.636    -4766721.259 5  -3096767.85121
  22494028.347     8562532.150 5   6672102.67821
  21126179.534   -16523925.982 7 -12774859.83723
 91  3 28  0 39 29.9990000  0  5G15G 2G13G19G 6
  23519191.894    -2906699.818 5  -2174410.56821
  20651760.1204  -16478832.22348 -12840570.76863
  22915962.1674   -4824221.02745  -3141572.58561
  22500555.4484    8596835.58045   6698832.58361
  21120891.800   -16551711.081 7 -12796510.51422
 91  3 28  0 39 44.9990000  0  5G15G 2G13G19G 6
  23515786.831    -2924588.691 5  -2188349.91521
  20651393.683   -16480760.381 8 -12842073.20323
  22905031.7924   -4881656.19845  -3186326.97261
  22507100.3624    8631212.89145   6725620.07861
  21115613.589   -16579447.089 7 -12818122.94223
 91  3 28  0 39 59.9990000  0  5G15G 2G13G19G 6
  23512404.4954   -2942367.35045  -2202203.35061
  20651034.5734  -16482641.54548 -12843539.01863
  22894113.3554   -4939032.71045  -3231035.66261
  22513652.753     8665657.765 5   6752460.19121
  21110343.698   -16607140.062 7 -12839701.83822
 91  3 28  0 40 14.9990000  0  5G15G 2G13G19G 6
  23509045.3944   -2960031.69045  -2215967.73161
  20650687.2764  -16484472.14048 -12844965.42463
  22883204.9334   -4996346.36445  -3275695.36861
  22520220.558     8700173.846 5   6779355.79121
  21105082.917   -16634786.019 7 -12861244.09623
 91  3 28  0 40 29.9990000  0  5G15G 2G13G19G 6
  23505703.1754   -2977581.07445  -2229642.54861
  20650349.058   -16486251.685 8 -12846352.06123
  22872310.597    -5053596.406 5  -3320305.50221
  22526802.1834    8734761.42845   6806307.12461
  21099831.597   -16662384.368 7 -12882749.26222
 91  3 28  0 40 44.9990000  0  5G15G 2G13G19G 6
  23502385.581    -2995012.264 5  -2243225.27221
  20650020.636   -16487977.117 8 -12847696.53023
  22861429.3474   -5110779.27645  -3364863.29961
  22533397.800     8769423.689 5   6833316.65221
  21094588.909   -16689931.691 7 -12904214.66323
 91  3 28  0 40 59.9990000  0  5G15G 2G13G19G 6
  23499092.206    -3012328.682 5  -2256718.54721
  20649701.487   -16489652.472 8 -12849001.97123
  22850557.4254   -5167898.37245  -3409371.42061
  22540007.730     8804156.661 5   6860381.27721
  21089355.5424  -16717431.54047 -12925643.07563
 91  3 28  0 41 14.9990000  0  5G15G 2G13G19G 6
  23495819.003    -3029528.676 5  -2270121.09321
  20649392.339   -16491276.363 8 -12850267.31723
  22839702.409    -5224952.033 5  -3453828.54121
  22546631.0034    8838962.01345   6887502.26961
  21084130.7064  -16744882.24247 -12947033.19163
 91  3 28  0 41 29.9990000  0  5G15G 2G13G19G 6
  23492569.675    -3046613.811 5  -2283434.13721
  20649092.987   -16492850.683 8 -12851494.04123
  22828857.284    -5281941.786 5  -3498235.89421
  22553270.917     8873837.656 5   6914678.04421
  21078917.2454  -16772285.35647 -12968386.22863
 91  3 28  0 41 44.9990000  0  5G15G 2G13G19G 6
  23489338.8704   -3063583.41545  -2296657.16861
  20648803.230   -16494374.958 8 -12852681.76323
  22818021.6284   -5338866.87945  -3542592.83361
  22559919.308     8908783.989 5   6941908.93221
  21073710.995   -16799640.081 7 -12989701.54623
 91  3 28  0 41 59.9990000  0  5G15G 2G13G19G 6
  23486131.8154   -3080435.44745  -2309788.59161
  20648522.644   -16495847.702 8 -12853829.33723
  22807205.065    -5395725.165 5  -3586897.74721
  22566581.175     8943802.543 5   6969196.08121
  21068517.065   -16826944.681 7 -13010977.81323
 91  3 28  0 42 14.9990000  0  5G15G 2G13G19G 6
  23482947.628    -3097172.842 5  -2322830.66921
  20648251.480   -16497272.160 8 -12854939.28523
  22796395.737    -5452519.323 5  -3631152.68321
  22573258.5344    8978890.04445   6996536.92061
  21063328.292   -16854202.091 7 -13032217.31123
 91  3 28  0 42 29.9990000  0  5G15G 2G13G19G 6
  23479783.6834   -3113792.70145  -2335781.14661
  20647990.784   -16498645.378 8 -12856009.30323
  22785600.2924   -5509246.24945  -3675355.21461
  22579948.894     9014049.199 5   7023933.63221
  21058152.7144  -16881409.18747 -13053417.61063
 91  3 28  0 42 44.9990000  0  5G15G 2G13G19G 6
  23476644.620    -3130295.416 5  -2348640.35021
  20647739.175   -16499968.230 8 -12857040.07023
  22774818.526    -5565906.501 5  -3719505.78521
  22586654.1904    9049279.29045   7051385.63161
  21052984.620   -16908566.559 7 -13074579.15423
 91  3 28  0 42 59.9990000  0  5G15G 2G13G19G 6
  23473526.495    -3146680.581 5  -2361407.99021
  20647496.776   -16501240.363 8 -12858031.32123
  22764049.5114   -5622499.32046  -3763603.84761
  22593371.2694    9084580.53945   7078893.03861
  21047825.503   -16935673.434 7 -13095701.35323
 91  3 28  0 43 14.9990000  0  5G15G 2G13G19G 6
  23470435.175    -3162947.711 5  -2374083.66221
  20647264.003   -16502461.730 8 -12858983.01423
  22753292.9564   -5679024.10345  -3807648.87461
  22600103.386     9119952.919 5   7106455.87621
  21042676.073   -16962729.569 7 -13116784.01023
 91  3 28  0 43 29.9990000  0  5G15G 2G13G19G 6
  23467356.4174   -3179101.71245  -2386671.16161
  20647039.948   -16503638.021 8 -12859899.58023
  22742550.855    -5735485.792 6  -3851644.73521
  22606846.4014    9155391.27145   7134070.14561
  21037536.440   -16989740.030 7 -13137831.08123
 91  3 28  0 43 44.9990000  0  5G15G 2G13G19G 6
  23464303.4724   -3195137.41645  -2399166.46061
  20646826.565   -16504764.222 8 -12860777.11923
  22731817.6984   -5791879.15346  -3895587.37061
  22613601.4094    9190900.41545   7161739.56361
  21032405.831   -17016699.661 7 -13158838.54423
 91  3 28  0 43 59.9990000  0  5G15G 2G13G19G 6
  23461275.5504   -3211056.19645  -2411570.64761
  20646620.956   -16505841.970 8 -12861616.90223
  22721098.6674   -5848205.55946  -3939477.84761
  22620375.151     9226478.494 5   7189462.68521
  21027285.7924  -17043609.87447 -13179807.50763
 91  3 28  0 44 14.9990000  0  5G15G 2G13G19G 6
  23458267.784    -3226857.319 5  -2423883.19221
  20646425.878   -16506870.600 8 -12862418.41223
  22710394.503    -5904463.908 6  -3983315.26121
  22627158.9484    9262126.07745   7217239.97961
  21022175.034   -17070469.622 7 -13200737.13323
 91  3 28  0 44 29.9990000  0  5G15G 2G13G19G 6
  23455282.3004   -3242539.69445  -2436103.22861
  20646238.847   -16507849.586 8 -12863181.23323
  22699700.519    -5960653.166 6  -4027098.85721
  22633955.9874    9297843.99845   7245072.08261
  21017073.4014  -17097278.08447 -13221626.80763
 91  3 28  0 44 44.9990000  0  5G15G 2G13G19G 6
  23452324.683    -3258100.151 5  -2448228.22521
  20646063.878   -16508775.664 8 -12863902.83323
  22689023.409    -6016769.948 6  -4070825.96821
  22640765.0504    9333635.09545   7272961.22361
  21011981.980   -17124031.789 7 -13242473.81123
 91  3 28  0 44 59.9990000  0  5G15G 2G13G19G 6
  23449387.3554   -3273542.29245  -2460260.99961
  20645894.651   -16509653.012 8 -12864586.46123
  22678357.300    -6072817.570 6  -4114499.22921
  22647589.558     9369495.570 5   7300904.39621
  21006901.144   -17150734.395 7 -13263280.98923
 91  3 28  0 45 14.9990000  0  5G15G 2G13G19G 6
  23446470.3864   -3288866.51545  -2472201.91361
  20645738.683   -16510482.414 8 -12865232.72523
  22667703.5194   -6128796.45046  -4158118.89261
  22654425.659     9405424.514 5   7328900.89021
  21001829.0974  -17177386.36147 -13284048.71963
 91  3 28  0 45 29.9990000  0  5G15G 2G13G19G 6
  23443575.7144   -3304070.63345  -2484049.23861
  20645589.847   -16511261.897 8 -12865840.09123
  22657063.8864   -6184704.16446  -4201683.09961
  22661279.675     9441423.947 5   7356952.35421
  20996767.159   -17203985.527 7 -13304775.30123
 91  3 28  0 45 44.9990000  0  5G15G 2G13G19G 6
  23440703.347    -3319157.798 5  -2495805.44321
  20645449.675   -16511994.970 8 -12866411.29523
  22646439.8004   -6240543.81846  -4245194.31061
  22668139.9804    9477490.24145   7385055.96261
  20991715.7614  -17230535.05647 -13325463.21063
 91  3 28  0 45 59.9990000  0  5G15G 2G13G19G 6
  23437855.9014   -3334122.77246  -2507466.45061
  20645319.745   -16512676.708 8 -12866942.49923
  22635827.261    -6296310.290 6  -4288648.48721
  22675016.0894    9513628.14745   7413215.31661
  20986673.1754  -17257029.77447 -13346108.40363
 91  3 28  0 46 14.9990000  0  5G15G 2G13G19G 6
  23435031.7844   -3348963.61745  -2519030.72661
  20645198.605   -16513305.327 8 -12867432.31223
  22625229.362    -6352001.518 6  -4332044.00321
  22681909.2454    9549839.56545   7441431.94261
  20981642.815   -17283467.672 7 -13366709.31923
 91  3 28  0 46 29.9990000  0  5G15G 2G13G19G 6
  23432231.214    -3363686.255 5  -2530502.85721
  20645087.370   -16513887.349 8 -12867885.81223
  22614642.7614   -6407623.25846  -4375385.38261
  22688814.050     9586118.127 5   7469700.88821
  20976620.8554  -17309854.72647 -13387270.62363
 91  3 28  0 46 44.9990000  0  5G15G 2G13G19G 6
  23429452.0344   -3378290.37345  -2541882.64361
  20644986.534   -16514422.504 8 -12868302.79623
  22604072.026    -6463175.098 6  -4418672.31021
  22695728.0974    9622463.93045   7498022.25961
  20971609.1754  -17336190.53947 -13407791.99763
 91  3 28  0 46 59.9990000  0  5G15G 2G13G19G 6
  23426696.6904   -3392775.59746  -2553169.83161
  20644895.573   -16514910.641 8 -12868683.14523
  22593514.6054   -6518656.15346  -4461904.07161
  22702654.425     9658877.094 5   7526396.11221
  20966607.355   -17362474.586 7 -13428273.02923
 91  3 28  0 47 14.9990000  0  5G15G 2G13G19G 6
  23423963.105    -3407138.286 5  -2564361.53121
  20644812.347   -16515348.311 8 -12869024.16623
  22582970.3084   -6574062.67846  -4505077.74761
  22709599.0344    9695361.12945   7554825.17161
  20961615.8784  -17388703.02847 -13448710.73863
 91  3 28  0 47 29.9990000  0  5G15G 2G13G19G 6
  23421251.5034   -3421379.19145  -2575458.28161
  20644738.261   -16515736.728 8 -12869326.81023
  22572442.347    -6629395.505 6  -4548194.02821
  22716560.1984    9731914.68045   7583308.41561
  20956636.2374  -17414876.79647 -13469105.84063
 91  3 28  0 47 44.9990000  0  5G15G 2G13G19G 6
  23418565.581    -3435499.461 5  -2586461.02821
  20644674.026   -16516077.375 8 -12869592.22923
  22561926.222    -6684655.669 6  -4591253.67521
  22723525.3864    9768536.29645   7611844.70161
  20951664.9564  -17440997.13747 -13489459.32163
 91  3 28  0 47 59.9990000  0  5G15G 2G13G19G 6
  23415902.1364   -3449499.54646  -2597370.17561
  20644615.206   -16516371.025 8 -12869821.03123
  22551424.1364   -6739843.54746  -4634257.00361
  22730508.464     9805225.062 5   7640433.29521
  20946705.0194  -17467064.54547 -13509771.54563
 91  3 28  0 48 14.9990000  0  5G15G 2G13G19G 6
  23413259.6364   -3463377.46545  -2608184.14261
  20644571.175   -16516615.991 8 -12870011.89823
  22540932.784    -6794957.033 6  -4677202.35421
  22737502.1284    9841982.82445   7669075.64161
  20941753.9874  -17493076.93147 -13530040.90063
 91  3 28  0 48 29.9990000  0  5G15G 2G13G19G 6
  23410640.6364   -3477132.46745  -2618902.26761
  20644533.308   -16516811.496 8 -12870164.22023
  22530461.175    -6849995.084 6  -4720088.95221
  22744504.925     9878810.292 5   7697772.32721
  20936815.7764  -17519033.27147 -13550266.58263
 91  3 28  0 48 44.9990000  0  5G15G 2G13G19G 6
  23408047.6054   -3490769.76346  -2629528.67261
  20644503.753   -16516963.034 8
  22519999.730    -6904962.991 6  -4762920.86621
  22751529.472     9915701.688 5   7726518.82521
  20931885.9094  -17544938.84847 -13570452.70763
 91  3 28  0 48 59.9990000  0  5G15G 2G13G19G 6
  23405476.511    -3504282.433 6  -2640057.99421
  20644486.003   -16517064.404 8
  22509557.487    -6959854.022 6  -4805692.90221
  22758561.128     9952663.436 5   7755320.13421
  20926966.9014  -17570786.96147 -13590594.05663
 91  3 28  0 49 14.9990000  0  5G15G 2G13G19G 6
  23402926.4874   -3517674.13645  -2650493.07661
  20644473.605   -16517119.533 8
  22499124.862    -7014671.599 6  -4848407.69321
  22765606.784     9989691.454 5   7784173.10021
  20922057.8474  -17596581.26447 -13610693.47763
 91  3 28  0 49 29.9990000  0  5G15G 2G13G19G 6
  23400402.675    -3530939.452 5  -2660829.68621
  20644471.136   -16517123.198 8
  22488708.6834   -7069409.98046  -4891060.76861
  22772669.6444   10026791.07245   7813081.82261
  20917161.3704  -17622316.12047 -13630746.58063
 91  3 28  0 49 44.9990000  0  5G15G 2G13G19G 6
  23397902.3394   -3544082.71646  -2671071.12261
  20644483.237   -16517079.748 8
  22478305.605    -7124073.134 6  -4933655.23021
  22779743.698    10063957.794 5   7842042.83821
  20912275.2924  -17647995.74147 -13650756.63663
 91  3 28  0 49 59.9990000  0  5G15G 2G13G19G 6
  23395424.1674   -3557106.25546  -2681219.30161
  20644497.769   -16516991.911 8
  22467918.2534   -7178663.41846  -4976192.91461
  22786824.987    10101188.839 5   7871054.03621
  20907398.4954  -17673622.47347 -13670725.48063
 91  3 28  0 50 14.9990000  0  5G15G 2G13G19G 6
  23392970.5584   -3570003.95646  -2691269.42761
  20644526.0584  -16516853.80648
  22457543.534    -7233174.563 6  -5018668.93421
  22793926.159    10138490.438 5   7900120.17921
  20902532.6444  -17699189.93747 -13690648.14263
 91  3 28  0 50 29.9990000  0  5G15G 2G13G19G 6
  23390539.4014   -3582775.73546  -2701221.44361
  20644561.9804  -16516665.56548
  22447185.5034   -7287606.26046  -5061083.04761
  22801036.511    10175862.264 5   7929240.99521
  20897678.2844  -17724698.16947 -13710524.64663
 91  3 28  0 50 44.9990000  0  5G15G 2G13G19G 6
  23388131.8784   -3595426.35446  -2711079.05961
  20644604.886   -16516432.502 8 -12869868.73224
  22436842.190    -7341963.218 6  -5103438.92321
  22808160.456    10213298.980 5   7958412.41321
  20892834.628   -17750152.023 7 -13730358.77723
 91  3 28  0 50 59.9990000  0  5G15G 2G13G19G 6
  23385747.917    -3607953.167 5  -2720840.19621
  20644656.909   -16516152.367 8 -12869650.42024
  22426514.151    -7396242.779 6  -5145734.48621
  22815295.4954   10250802.84845   7987636.19361
  20888002.0974  -17775548.81347 -13750148.44563
 91  3 28  0 51 14.9990000  0  5G15G 2G13G19G 6
  23383388.292    -3620358.620 5  -2730506.72921
  20644718.534   -16515827.526 8 -12869397.27824
  22416197.276    -7450447.233 6  -5187971.51921
  22822445.6594   10288371.32845   8016910.30361
  20883178.5424  -17800890.91047 -13769895.49163
 91  3 28  0 51 29.9990000  0  5G15G 2G13G19G 6
  23381051.620    -3632636.422 6  -2740073.81721
  20644791.034   -16515451.900 8 -12869104.56024
  22405899.894    -7504570.136 6  -5230145.03821
  22829610.0424   10326010.54745   8046239.49561
  20878369.7924  -17826171.90547 -13789594.92863
 91  3 28  0 51 44.9990000  0  5G15G 2G13G19G 6
  23378737.534    -3644790.183 5  -2749544.26721
  20644869.886   -16515029.378 8 -12868775.29924
  22395613.620    -7558614.644 6  -5272257.44921
  22836784.2614   10363716.44845   8075620.65561
  20873569.3394  -17851395.23447 -13809249.43563
 91  3 28  0 51 59.9990000  0  5G15G 2G13G19G 6
  23376448.011    -3656819.771 5  -2758917.92921
  20644963.183   -16514560.031 8 -12868409.55923
  22385345.042    -7612580.774 6  -5314308.78621
  22843971.6904   10401488.85845   8105053.64061
  20868780.7924  -17876560.86447 -13828858.98263
 91  3 28  0 52 14.9990000  0  5G15G 2G13G19G 6
  23374181.4954   -3668726.05445  -2768195.51161
  20645058.167   -16514044.988 8 -12868008.20623
  22375091.198    -7666469.472 6  -5356299.82721
  22851172.417    10439326.526 5   8134537.51721
  20864002.6444  -17901669.40947 -13848424.04163
 91  3 28  0 52 29.9990000  0  5G15G 2G13G19G 6
  23371942.206    -3680504.456 6  -2777373.47921
  20645164.972   -16513479.939 8 -12867567.88923
  22364850.300    -7720275.775 6  -5398226.61721
  22858389.3474   10477233.70745   8164075.54161
  20859236.167   -17926716.405 7 -13867941.15023
 91  3 28  0 52 44.9990000  0  5G15G 2G13G19G 6
  23369724.2844   -3692155.86746  -2786452.47961
  20645283.480   -16512866.290 8 -12867089.70023
  22354626.1984   -7774000.45746  -5440089.83161
  22865611.4014   10515209.17845   8193666.75761
  20854479.9334  -17951702.76247 -13887410.99463
 91  3 28  0 52 59.9990000  0  5G15G 2G13G19G 6
  23367528.7614   -3703684.26645  -2795435.61761
  20645409.019   -16512208.074 8 -12866576.78224
  22344417.511    -7827647.282 6  -5481892.38621
  22872848.597    10553248.681 5   8223307.85521
  20849736.0894  -17976632.35947 -13906836.61763
 91  3 28  0 53 14.9990000  0  5G15G 2G13G19G 6
  23365360.1054   -3715087.47145  -2804321.18961
  20645543.355   -16511503.367 8 -12866027.63823
  22334225.4874   -7881213.88846  -5523632.41261
  22880103.839    10591354.169 5   8253000.38421
  20845002.7694  -18001502.91847 -13926216.23163
 91  3 28  0 53 29.9990000  0  5G15G 2G13G19G 6
  23363216.190    -3726367.336 6  -2813110.66721
  20645684.144   -16510754.556 8 -12865444.12423
  22324045.3554   -7934702.38846  -5565311.58061
  22887366.183    10629523.554 5   8282742.72221
  20840281.933   -18026316.336 7 -13945551.32123
 91  3 28  0 53 44.9990000  0  5G15G 2G13G19G 6
  23361091.6834   -3737517.14546  -2821798.80161
  20645838.073   -16509954.969 8 -12864821.04723
  22313883.605    -7988105.744 6  -5606924.40921
  22894639.690    10667763.132 5   8312539.74721
  20835570.722   -18051065.822 7 -13964836.59223
 91  3 28  0 53 59.9990000  0  5G15G 2G13G19G 6
  23358994.7144   -3748534.63245  -2830383.83261
  20645999.0344  -16509102.59448 -12864156.83764
  22303735.675    -8041421.447 6  -5648468.96421
  22901930.3704   10706074.74244   8342392.88061
  20830874.3554  -18075749.04947 -13984070.23363
 91  3 28  0 54 14.9990000  0  5G15G 2G13G19G 6
  23356924.190    -3759425.031 6  -2838869.82321
  20646171.011   -16508202.796 8 -12863455.67424
  22293606.964    -8094654.301 6  -5689948.92721
  22909234.823    10744453.163 5   8372298.05921
  20826189.3784  -18100370.92147 -14003256.07163
 91  3 28  0 54 29.9990000  0  5G15G 2G13G19G 6
  23354873.362    -3770193.720 5  -2847260.94321
  20646350.253   -16507261.347 8 -12862722.05624
  22283494.5584   -8147809.76646  -5731368.62061
  22916549.7924   10782892.57345   8402250.80461
  20821513.9404  -18124936.93347 -14022398.38463
 91  3 28  0 54 44.9990000  0  5G15G 2G13G19G 6
  23352849.8084   -3780837.79145  -2855555.00461
  20646538.401   -16506275.540 8 -12861953.87524
  22273393.8704   -8200884.76146  -5772725.58061
  22923875.1984   10821395.74845   8432253.25061
  20816850.675   -18149444.008 7 -14041494.76223
 91  3 28  0 54 59.9990000  0  5G15G 2G13G19G 6
  23350848.667    -3791352.025 5  -2863747.86721
  20646733.987   -16505240.376 8 -12861147.23124
  22263308.651    -8253873.942 6  -5814015.68421
  22931218.073    10859967.462 5   8462309.06021
  20812199.5114  -18173886.96847 -14060541.18963
 91  3 28  0 55 14.9990000  0  5G15G 2G13G19G 6
  23348871.1054   -3801742.63445  -2871844.44261
  20646939.120   -16504162.402 8 -12860307.22924
  22253241.8314   -8306783.66546  -5855243.89161
  22938569.972    10898600.986 5   8492413.01921
  20807559.6124  -18198271.97947 -14079542.45663
 91  3 28  0 55 29.9990000  0  5G15G 2G13G19G 6
  23346916.097    -3812003.062 5  -2879839.53921
  20647154.237   -16503035.008 8 -12859428.72524
  22243189.956    -8359606.801 6  -5896404.59621
  22945933.933    10937303.045 5   8522570.42121
  20802931.2694  -18222592.18447 -14098493.22963
 91  3 28  0 55 44.9990000  0  5G15G 2G13G19G 6
  23344988.6124   -3822135.03245  -2887734.52461
  20647377.448   -16501860.363 8 -12858513.39924
  22233153.5194   -8412345.19846  -5937499.28761
  22953311.605    10976071.246 5   8552779.37321
  20798315.2304  -18246849.43547 -14117394.94263
 91  3 28  0 55 59.9990000  0  5G15G 2G13G19G 6
  23343084.7224   -3832137.87645  -2895528.91661
  20647609.542   -16500638.183 8 -12857561.03224
  22223132.9334   -8464997.94646  -5978527.24161
  22960701.1204   11014906.00545   8583040.18261
  20793712.3004  -18271043.12047 -14136247.12663
 91  3 28  0 56 14.9990000  0  5G15G 2G13G19G 6
  23341203.7844   -3842015.12645  -2903225.47161
  20647850.956   -16499372.033 8 -12856574.40224
  22213129.690    -8517568.394 6  -6019491.06221
  22968104.386    11053803.627 5   8613349.93921
  20789119.3864  -18295176.53147 -14155052.34263
 91  3 28  0 56 29.9990000  0  5G15G 2G13G19G 6
  23339350.9334   -3851764.08145  -2910822.03761
  20648100.019   -16498059.183 8 -12855551.38324
  22203139.581    -8570053.482 6  -6060388.36121
  22975517.933    11092766.944 5   8643710.90021
  20784538.6284  -18319246.60947 -14173808.21063
 91  3 28  0 56 44.9990000  0  5G15G 2G13G19G 6
  23337521.659    -3861381.307 5  -2918315.93021
  20648358.839   -16496696.706 8 -12854489.69724
  22193171.526    -8622449.751 6  -6101216.48721
  22982947.2764   11131798.72445   8674125.21361
  20779970.5584  -18343250.17047 -14192512.24663
 91  3 28  0 56 59.9990000  0  5G15G 2G13G19G 6
  23335717.651    -3870869.043 5  -2925708.94721
  20648627.667   -16495287.090 8 -12853391.27724
  22183215.6674   -8674759.49946  -6141977.13861
  22990384.8084   11170896.25145   8704590.75361
  20775415.9334  -18367189.35547 -14211166.12463
 91  3 28  0 57 14.9990000  0  5G15G 2G13G19G 6
  23333932.6514   -3880230.19345  -2933003.31161
  20648903.940   -16493833.497 8 -12852258.59224
  22173277.8314   -8726985.39846  -6182672.49961
  22997839.5424   11210056.55345   8735105.21861
  20770871.0504  -18391066.78647 -14229771.88063
 91  3 28  0 57 29.9990000  0  5G15G 2G13G19G 6
  23332176.9094   -3889463.11445  -2940197.75361
  20649188.386   -16492334.591 8 -12851090.59424
  22163354.698    -8779125.773 6  -6223301.20721
  23005304.6514   11249280.84145   8765669.54561
  20766339.2374  -18414881.05147 -14248328.41363
 91  3 28  0 57 44.9990000  0  5G15G 2G13G19G 6
  23330445.269    -3898564.973 5  -2947290.05921
  20649483.034   -16490787.908 8 -12849885.37424
  22153449.417    -8831177.737 6  -6263861.00521
  23012781.065    11288571.645 5   8796285.67021
  20761820.7064  -18438629.19447 -14266833.43063
 91  3 28  0 57 59.9990000  0  5G15G 2G13G19G 6
  23328739.269    -3907536.762 5  -2954281.04421
  20649787.878   -16489194.342 8 -12848643.62024
  22143562.690    -8883141.900 6  -6304352.41021
  23020270.2694   11327927.92445   8826952.82861
  20757313.8704  -18462311.92747 -14285287.47663
 91  3 28  0 58 14.9990000  0  5G15G 2G13G19G 6
  23327054.1834   -3916380.89445  -2961172.56961
  20650098.6124  -16487556.49948 -12847367.36964
  22133691.5584   -8935020.30246  -6344776.97561
  23027769.480    11367347.127 5   8857669.04321
  20752820.0504  -18485931.42047 -14303692.24863
 91  3 28  0 58 29.9990000  0  5G15G 2G13G19G 6
  23325396.675    -3925097.017 5  -2967964.30721
  20650418.003   -16485874.238 8 -12846056.50124
  22123834.839    -8986812.584 6  -6385134.44021
  23035284.0264   11406829.17745   8888434.21661
  20748336.6054  -18509487.33347 -14322047.47463
 91  3 28  0 58 44.9990000  0  5G15G 2G13G19G 6
  23323764.5814   -3933682.24245  -2974654.02861
  20650747.7694  -16484144.98548 -12844709.02064
  22113995.6204   -9038515.54446  -6425422.30561
  23042809.7694   11446376.43945   8919250.20761
  20743867.495   -18532976.769 7 -14340350.90523
 91  3 28  0 58 59.9990000  0  5G15G 2G13G19G 6
  23322154.6754   -3942134.88546  -2981240.47561
  20651086.003   -16482367.471 8 -12843323.92824
  22104173.4484   -9090127.99846  -6465639.64961
  23050347.120    11485990.162 5   8950117.95321
  20739410.0504  -18556398.26847 -14358601.39563
 91  3 28  0 59 14.9990000  0  5G15G 2G13G19G 6
  23320569.4014   -3950457.47245  -2987725.59961
  20651434.034   -16480544.160 8 -12841903.15224
  22094369.9724   -9141651.93046  -6505788.00161
  23057894.878    11525667.854 5   8981035.55921
  20734965.7924  -18579753.92747 -14376800.57863
 91  3 28  0 59 29.9990000  0  5G15G 2G13G19G 6
  23319011.909    -3958648.811 5  -2994108.43121
  20651788.901   -16478674.062 8 -12840445.92024
  22084579.7694   -9193085.81646  -6545866.20961
  23065456.5814   11565410.43045   9012003.73161
  20730532.7064  -18603042.17147 -14394947.22963
 91  3 28  0 59 44.9990000  0  5G15G 2G13G19G 6
  23317479.0344   -3966709.70845  -3000389.60361
  20652153.409   -16476758.131 7 -12838952.97324
  22074810.7454   -9244430.24146  -6585874.70061
  23073035.6754   11605216.87145   9043021.67461
  20726115.1444  -18626263.88647 -14413042.04563
 91  3 28  0 59 59.9990000  0  5G15G 2G13G19G 6
  23315969.511    -3974642.414 5  -3006570.89421
  20652525.839   -16474798.935 7 -12837426.31924
  22065057.3704   -9295687.39246  -6625815.19761
  23080623.4174   11645084.71644   9074087.46061
  20721708.2454  -18649421.18147 -14431086.66263
 91  3 28  1  0 14.9990000  0  5G15G 2G13G19G 6
  23314483.0974   -3982443.63645  -3012649.71561
  20652907.870   -16472793.443 7 -12835863.58424
  22055319.9874   -9346853.86246  -6665685.02961
  23088218.784    11685016.931 4   9105203.39321
  20717315.323   -18672510.860 7 -14449078.59323
 91  3 28  1  0 29.9990000  0  5G15G 2G13G19G 6
  23313023.112    -3990113.917 5  -3018626.56021
  20653297.8704  -16470742.49347 -12834265.43264
  22045598.8554   -9397930.23046  -6705484.64861
  23095830.292    11725012.449 5   9136368.64821
  20712933.011   -18695533.471 7 -14467018.26523
 91  3 28  1  0 44.9990000  0  5G15G 2G13G19G 6
  23311586.4564   -3997652.93645  -3024501.08861
  20653697.183   -16468645.901 7 -12832631.71424
  22035898.300    -9448916.037 6  -6745213.70721
  23103454.9014   11765071.42845   9167583.37161
  20708564.433   -18718488.473 7 -14484905.25323
 91  3 28  1  0 59.9990000  0  5G15G 2G13G19G 6
  23310180.019    -4005059.479 5  -3030272.37321
  20654105.3944  -16466502.52547 -12830961.54064
  22026213.440    -9499809.490 6  -6784870.79321
  23111089.815    11805194.818 5   9198848.28821
  20704210.894   -18741374.326 7 -14502738.36223
 91  3 28  1  1 14.9990000  0  5G15G 2G13G19G 6
  23308797.9404   -4012334.50745  -3035941.18761
  20654520.901   -16464313.387 7 -12829255.70624
  22016546.0584   -9550611.32546  -6824456.49461
  23118736.7144   11845381.73645   9230162.69761
  20699868.081   -18764191.710 7 -14520518.11523
 91  3 28  1  1 29.9990000  0  5G15G 2G13G19G 6
  23307436.5034   -4019482.59845  -3041511.09061
  20654944.995   -16462083.651 7 -12827518.23724
  22006896.401    -9601326.506 6  -6863974.67321
  23126395.737    11885626.784 5   9261522.40221
  20695538.0814  -18786945.59247 -14538248.38363
 91  3 28  1  1 44.9990000  0  5G15G 2G13G19G 6
  23306101.6364   -4026497.54645  -3046977.25661
  20655379.487   -16459807.101 7 -12825744.29324
  21997263.5814   -9651948.26046  -6903420.05961
  23134065.9174   11925936.14545   9292932.22861
  20691221.7454  -18809629.34347 -14555924.01063
 91  3 28  1  1 59.9990000  0  5G15G 2G13G19G 6
  23304790.761    -4033378.941 5  -3052339.34721
  20655821.761   -16457483.615 8 -12823933.76824
  21987646.2304   -9702476.18046  -6942792.30661
  23141748.9724   11966309.74145   9324392.10561
  20686917.7844  -18832242.65847 -14573544.74063
 91  3 28  1  2 14.9990000  0  5G15G 2G13G19G 6
  23303505.284    -4040126.427 5  -3057597.09621
  20656272.675   -16455112.852 8 -12822086.41324
  21978049.409    -9752909.308 6  -6982090.72021
  23149442.440    12006748.192 5   9355902.51521
  20682629.3154  -18854784.66447 -14591109.90963
 91  3 28  1  2 29.9990000  0  5G15G 2G13G19G 6
  23302249.308    -4046741.773 5  -3062751.86721
  20656731.831   -16452697.120 8 -12820204.00324
  21968469.620    -9803249.863 6  -7021316.97921
  23157150.4014   12047248.94145   9387461.47361
  20678351.6594  -18877257.41147 -14608621.11163
 91  3 28  1  2 44.9990000  0  5G15G 2G13G19G 6
  23301012.6904   -4053224.44445  -3067803.26261
  20657200.886   -16450235.791 8 -12818286.07124
  21958907.714    -9853496.799 6  -7060470.30221
  23164871.190    12087812.395 5   9419069.30121
  20674089.4484  -18899660.06347 -14626077.69663
 91  3 28  1  2 59.9990000  0  5G15G 2G13G19G 6
  23299804.847    -4059570.980 5  -3072748.57321
  20657678.737   -16447725.668 8 -12816330.11524
  21949365.214    -9903646.639 6  -7099547.96121
  23172604.112    12128441.862 5   9450728.58221
  20669838.5194  -18921989.10947 -14643476.91963
 91  3 28  1  3 14.9990000  0  5G15G 2G13G19G 6
  23298625.417    -4065779.026 5  -3077585.98721
  20658165.550   -16445164.562 8 -12814334.43024
  21939839.972    -9953696.923 6  -7138548.03521
  23180349.253    12169139.355 5   9482440.82921
  20665604.2064  -18944242.18447 -14660816.94663
 91  3 28  1  3 29.9990000  0  5G15G 2G13G19G 6
  23297467.7374   -4071857.22745  -3082322.23061
  20658660.800   -16442561.104 8 -12812305.74824
  21930332.433   -10003655.755 6  -7177476.87521
  23188104.386    12209896.210 5   9514199.33421
  20661382.7374  -18966427.50247 -14678104.16863
 91  3 28  1  3 44.9990000  0  5G15G 2G13G19G 6
  23296336.503    -4077802.682 5  -3086954.99821
  20659165.019   -16439912.548 8 -12810241.91724
  21920843.980   -10053520.119 6  -7216332.08521
  23195870.480    12250715.299 4   9546006.33321
  20657174.9564  -18988541.84247 -14695336.08863
 91  3 28  1  3 59.9990000  0  5G15G 2G13G19G 6
  23295231.206    -4083613.733 6  -3091483.02721
  20659677.808   -16437217.733 8 -12808142.04524
  21911373.073   -10103288.492 6  -7255112.49821
  23203651.425    12291597.417 4   9577862.45721
  20652980.6514  -19010583.93347 -14712511.70463
 91  3 28  1  4 14.9990000  0  5G15G 2G13G19G 6
  23294152.4174   -4089287.79046  -3095904.32961
  20660199.855   -16434473.959 8 -12806004.01924
  21901922.2064  -10152957.94546  -7293815.83261
  23211440.7064   12332544.94044   9609769.55161
  20648800.0264  -19032550.69547 -14729628.62563
 91  3 28  1  4 29.9990000  0  5G15G 2G13G19G 6
  23293096.776    -4094826.258 6  -3100220.00221
  20660731.136   -16431683.034 7 -12803829.25324
  21892487.081   -10202529.895 6  -7332443.19121
  23219245.9254   12373556.28645   9641726.38461
  20644634.1444  -19054443.55547 -14746687.95863
 91  3 28  1  4 44.9990000  0  5G15G 2G13G19G 6
  23292070.1054   -4100227.48945  -3104428.72161
  20661270.761   -16428843.652 7 -12801616.73224
  21883074.7924  -10252002.41146  -7370993.09261
  23227063.8154   12414632.69645   9673733.91361
  20640483.1754  -19076260.86847 -14763688.42563
 91  3 28  1  4 59.9990000  0  5G15G 2G13G19G 6
  23291066.7614   -4105491.56145  -3108530.53661
  20661821.370   -16425956.098 8 -12799366.67024
  21873679.0194  -10301375.57746  -7409465.55161
  23234893.3864   12455773.77045   9705791.81061
  20636344.6834  -19098002.57547 -14780629.97963
 91  3 28  1  5 14.9990000  0  5G15G 2G13G19G 6
  23290091.644    -4110624.256 6  -3112530.01721
  20662378.886   -16423026.086 8 -12797083.52224
  21864298.4174  -10350654.47246  -7447864.56461
  23242733.581    12496973.859 5   9737895.70021
  20632220.7924  -19119674.06247 -14797516.81663
 91  3 28  1  5 29.9990000  0  5G15G 2G13G19G 6
  23289137.0734   -4115620.14345  -3116422.87961
  20662945.425   -16420048.186 8 -12794763.05724
  21854943.5734  -10399833.73846  -7486185.94261
  23250583.034    12538238.176 4   9770049.64421
  20628111.8474  -19141269.83347 -14814344.65363
 91  3 28  1  5 44.9990000  0  5G15G 2G13G19G 6
  23288213.565    -4120482.998 5  -3120212.07421
  20663520.097   -16417026.376 8 -12792408.38824
  21845602.7764  -10448916.90146  -7524432.43961
  23258446.331    12579562.687 4   9802250.47921
  20624015.9094  -19162793.46947 -14831116.28263
 91  3 28  1  5 59.9990000  0  5G15G 2G13G19G 6
  23287316.4094   -4125207.93145  -3123893.80461
  20664104.237   -16413956.255 8 -12790016.07024
  21836281.1204  -10497899.05146  -7562600.22861
  23266321.3084   12620951.65944   9834501.55061
  20619934.5814  -19184240.20147 -14847827.98263
 91  3 28  1  6 14.9990000  0  5G15G 2G13G19G 6
  23286445.112    -4129792.056 6  -3127465.82021
  20664697.987   -16410834.809 8 -12787583.75524
  21826979.8234  -10546777.00446  -7600686.81861
  23274213.370    12662407.677 4   9866804.86321
  20615868.2924  -19205606.77547 -14864477.22963
 91  3 28  1  6 29.9990000  0  5G15G 2G13G19G 6
  23285598.4564   -4134234.94745  -3130927.78461
  20665301.831   -16407661.779 8 -12785111.25124
  21817697.2534  -10595550.21446  -7638691.78861
  23282117.440    12703931.096 4   9899160.69221
  20611817.8004  -19226892.72447 -14881063.64763
 91  3 28  1  6 44.9990000  0  5G15G 2G13G19G 6
  23284777.8554   -4138541.52045  -3134283.49061
  20665915.534   -16404442.140 8 -12782602.42424
  21808436.0114  -10644223.43146  -7676618.85961
  23290026.4334   12745517.00544   9931565.22761
  20607781.8784  -19248102.60247 -14897590.78863
 91  3 28  1  6 59.9990000  0  5G15G 2G13G19G 6
  23283984.0344   -4142708.25045  -3137530.26861
  20666536.714   -16401172.531 8 -12780054.66124
  21799193.245   -10692792.833 6  -7714465.01321
  23297952.5894   12787168.66444   9964020.99361
  20603760.4484  -19269232.83447 -14914055.87063
 91  3 28  1  7 14.9990000  0  5G15G 2G13G19G 6
  23283216.894    -4146738.181 5  -3140670.43421
  20667167.706   -16397856.611 8 -12777470.81424
  21789970.8474  -10741261.52546  -7752232.70661
  23305890.4404   12828882.38144   9996525.13861
  20599753.7224  -19290286.48147 -14930461.27863
 91  3 28  1  7 29.9990000  0  5G15G 2G13G19G 6
  23282477.9014   -4150633.32945  -3143705.57561
  20667805.933   -16394496.298 8 -12774852.36724
  21780766.2694  -10789631.14846  -7789923.19761
  23313843.534    12870656.071 5  10029075.99721
  20595762.2064  -19311265.35947 -14946808.42563
 91  3 28  1  7 44.9990000  0  5G15G 2G13G19G 6
  23281760.956    -4154393.372 5  -3146635.44121
  20668455.073   -16391091.354 8 -12772199.15124
  21771580.9094  -10837901.27746  -7827536.15561
  23321800.7304   12912489.80745  10061673.63461
  20591784.8704  -19332168.86947 -14963096.84563
 91  3 28  1  7 59.9990000  0  5G15G 2G13G19G 6
  23281068.980    -4158014.256 5  -3149456.85921
  20669111.339   -16387638.050 8 -12769508.24624
  21762413.6594  -10886067.98246  -7865068.53461
  23329775.628    12954387.337 4  10094320.97921
  20587821.3624  -19352992.91647 -14979323.33963
 91  3 28  1  8 14.9990000  0  5G15G 2G13G19G 6
  23280411.690    -4161497.568 5  -3152171.08221
  20669777.870   -16384138.076 8 -12766780.97924
  21753266.237   -10934132.545 6  -7902521.33221
  23337760.0424   12996346.73344  10127016.53361
  20583875.3234  -19373739.10647 -14995489.16563
 91  3 28  1  8 29.9990000  0  5G15G 2G13G19G 6
  23279771.136    -4164842.399 5  -3154777.42421
  20670452.878   -16380590.359 8 -12764016.51124
  21744141.8394  -10982093.35046  -7939893.26261
  23345758.5814   13038368.91244  10159761.00761
  20579940.5114  -19394406.01247 -15011593.21763
 91  3 28  1  8 44.9990000  0  5G15G 2G13G19G 6
  23279161.5654   -4168046.51045  -3157274.10961
  20671137.706   -16376993.052 8 -12761213.39824
  21735033.9644  -11029948.03146  -7977182.49961
  23353766.2924   13080456.09345  10192556.15961
  20576023.4404  -19414991.17647 -15027633.57164
 91  3 28  1  8 59.9990000  0  5G15G 2G13G19G 6
  23278580.995    -4171110.510 5  -3159661.58621
  20671831.190   -16373346.824 8 -12758372.16724
  21725946.1514  -11077697.39946  -8014389.68461
  23361787.339    13122607.197 4  10225401.12621
  20572123.0114  -19435495.21647 -15043610.71363
 91  3 28  1  9 14.9990000  0  5G15G 2G13G19G 6
  23278023.5584   -4174036.63145  -3161941.63061
  20672534.589   -16369654.176 8 -12755494.76424
  21716882.597   -11125343.409 6  -8051516.33121
  23369818.425    13164819.511 4  10258293.76921
  20568235.261   -19455920.302 7 -15059526.33623
 91  3 28  1  9 29.9990000  0  5G15G 2G13G19G 6
  23277490.4954   -4176825.38145  -3164114.63261
  20673246.503   -16365915.727 8 -12752581.67024
  21707834.5584  -11172886.41646  -8088562.70761
  23377866.0974   13207092.44543  10291233.62361
  20564363.9404  -19476266.72947 -15075380.66764
 91  3 28  1  9 44.9990000  0  5G15G 2G13G19G 6
  23276990.855    -4179471.991 5  -3166176.88721
  20673966.855   -16362126.778 8 -12749629.23124
  21698805.5814  -11220321.19446  -8125524.75661
  23385920.3314   13249430.71543  10324224.36961
  20560507.026   -19496529.361 7 -15091169.70723
 91  3 28  1  9 59.9990000  0  5G15G 2G13G19G 6
  23276513.4724   -4181979.02445  -3168130.38661
  20674697.198   -16358290.092 8 -12746639.59024
  21689798.4874  -11267650.24646  -8162404.42461
  23393984.3084   13291831.14043  10357263.59761
  20556667.7694  -19516710.88947 -15106895.54363
 91  3 28  1 10 14.9990000  0  5G15G 2G13G19G 6
  23276061.292    -4184348.271 5  -3169976.50321
  20675435.550   -16354407.336 8 -12743614.05224
  21680813.9874  -11314875.27046  -8199203.02561
  23402068.3864   13334291.86843  10390349.82261
  20552841.9724  -19536812.65247 -15122559.22564
 91  3 28  1 10 29.9990000  0  5G15G 2G13G19G 6
  23275637.9404   -4186578.52145  -3171714.32661
  20676183.722   -16350477.899 8 -12740552.14324
  21671848.7374  -11361995.01846  -8235919.59361
  23410163.722    13376813.780 3  10423483.69421
  20549031.7764  -19556833.49747 -15138159.85763
 91  3 28  1 10 44.9990000  0  5G15G 2G13G19G 6
  23275240.0894   -4188668.03345  -3173342.44761
  20676941.058   -16346499.938 8 -12737452.41924
  21662899.214   -11409007.142 6  -8272552.30321
  23418262.7224   13419398.59843  10456666.57361
  20545238.6754  -19576771.25347 -15153695.74163
 91  3 28  1 10 59.9990000  0  5G15G 2G13G19G 6
  23274868.315    -4190617.158 5  -3174861.20721
  20677706.917   -16342473.959 8 -12734315.27324
  21653975.6444  -11455912.08346  -8309101.49361
  23426379.440    13462045.450 4  10489897.80221
  20541460.1834  -19596626.40047 -15169167.25863
 91  3 28  1 11 14.9990000  0  5G15G 2G13G19G 6
  23274523.323    -4192425.395 6  -3176270.19221
  20678481.776   -16338399.612 7 -12731140.45024
  21645070.2694  -11502709.32146  -8345566.76061
  23434508.237    13504754.559 4  10523177.57121
  20537698.3784  -19616398.22247 -15184573.84663
 91  3 28  1 11 29.9990000  0  5G15G 2G13G19G 6
  23274207.8314   -4194091.21646  -3177568.19761
  20679266.980   -16334275.247 8 -12727926.64524
  21636184.9644  -11549396.83346  -8381946.52261
  23442649.222    13547527.676 4  10556507.19621
  20533951.034   -19636084.808 7 -15199914.02123
 91  3 28  1 11 44.9990000  0  5G15G 2G13G19G 6
  23273919.878    -4195615.176 6  -3178755.66421
  20680059.948   -16330101.750 8 -12724674.55124
  21627320.6904  -11595975.15146  -8418241.20361
  23450798.3784   13590363.77744  10589885.90761
  20530221.9254  -19655686.72247 -15215188.21363
 91  3 28  1 11 59.9990000  0  5G15G 2G13G19G 6
  23273651.901    -4196997.448 5  -3179832.70621
  20680865.136   -16325879.580 8 -12721384.53624
  21618478.487   -11642444.104 6  -8454450.66021
  23458962.003    13633262.343 4  10623313.28521
  20526507.190   -19675203.975 7 -15230396.43423
 91  3 28  1 12 14.9990000  0  5G15G 2G13G19G 6
  23273417.628    -4198235.605 5  -3180797.46021
  20681676.815   -16321606.083 8 -12718054.52324
  21609656.222   -11688800.794 6  -8490572.63821
  23467141.5814   13676225.80145  10656791.21561
  20522810.2144  -19694633.58347 -15245536.35563
 91  3 28  1 12 29.9990000  0  5G15G 2G13G19G 6
  23273208.331    -4199332.474 5  -3181652.14121
  20682500.081   -16317284.235 8 -12714686.83924
  21600857.2454  -11735048.00846  -8526609.31261
  23475328.0264   13719250.91445  10690317.23861
  20519128.9254  -19713978.25547 -15260610.09963
 91  3 28  1 12 44.9990000  0  5G15G 2G13G19G 6
  23273024.1754   -4200291.51945  -3182399.44261
  20683330.808   -16312918.022 8 -12711284.58024
  21592076.2924  -11781189.66446  -8562563.73161
  23483526.9724   13762333.68345  10723888.15461
  20515462.1984  -19733241.72347 -15275620.56463
 91  3 28  1 12 59.9990000  0  5G15G 2G13G19G 6
  23272870.0814   -4201108.67545  -3183036.13461
  20684170.823   -16308503.378 8 -12707844.58224
  21583315.362   -11827221.117 6  -8598432.28221
  23491736.034    13805478.212 5  10757507.19521
  20511814.034   -19752419.570 7 -15290564.31823
 91  3 28  1 13 14.9990000  0  5G15G 2G13G19G 6
  23272745.198    -4201784.431 5  -3183562.65321
  20685019.269   -16304040.554 8 -12704367.04324
  21574578.3474  -11873142.54146  -8634215.09861
  23499957.019    13848683.986 4  10791173.95221
  20508181.1124  -19771512.03347 -15305441.52963
 91  3 28  1 13 29.9990000  0  5G15G 2G13G19G 6
  23272640.089    -4202315.476 5  -3183976.42021
  20685879.519   -16299526.613 8 -12700849.67124
  21565863.3314  -11918950.41646  -8669909.42661
  23508189.4954   13891953.85044  10824890.64161
  20504564.3004  -19790515.65147 -15320249.51563
 91  3 28  1 13 44.9990000  0  5G15G 2G13G19G 6
  23272565.2694   -4202704.51545  -3184279.52761
  20686746.800   -16294964.185 8 -12697294.51724
  21557164.995   -11964646.918 6  -8705516.97921
  23516434.8554   13935285.28344  10858655.31461
  20500964.0504  -19809432.67947 -15334990.02963
 91  3 28  1 13 59.9990000  0  5G15G 2G13G19G 6
  23272519.9644   -4202952.38445  -3184472.64261
  20687624.683   -16290354.334 8 -12693702.40624
  21548490.9484  -12010233.00546  -8741038.49261
  23524692.7764   13978676.97144  10892466.95061
  20497380.6904  -19828263.86947 -15349663.65463
 91  3 28  1 14 14.9990000  0  5G15G 2G13G19G 6
  23272502.800    -4203059.580 5
  20688510.573   -16285697.645 8 -12690073.79624
  21539834.917   -12055709.149 6  -8776474.33221
  23532962.9724   14022128.14744  10926324.92261
  20493813.4564  -19847009.74947 -15364270.80263
 91  3 28  1 14 29.9990000  0  5G15G 2G13G19G 6
  23272505.839    -4203026.992 5
  20689405.753   -16280995.231 8 -12686409.56024
  21531202.745   -12101076.011 6  -8811825.03121
  23541240.3314   14065637.66744  10960228.35761
  20490262.7534  -19865670.92047 -15378811.93663
 91  3 28  1 14 44.9990000  0  5G15G 2G13G19G 6
  23272538.6124   -4202850.88345
  20690308.440   -16276243.445 7 -12682706.84724
  21522591.683   -12146329.439 6  -8847087.32421
  23549532.964    14109208.989 4  10994179.95321
  20486726.7534  -19884243.43447 -15393283.98663
 91  3 28  1 14 59.9990000  0  5G15G 2G13G19G 6
  23272595.230    -4202533.724 5
  20691222.120   -16271444.604 7 -12678967.47024
  21514001.4724  -12191471.74846  -8882263.03261
  23557833.558    14152839.649 4  11028177.75821
  20483210.2534  -19902729.35947 -15407688.56963
 91  3 28  1 15 14.9990000  0  5G15G 2G13G19G 6
  23272684.378    -4202076.482 5  -3183789.98021
  20692145.1514  -16266599.84747 -12675192.31164
  21505431.0424  -12236503.74446  -8917352.80261
  23566147.948    14196528.384 4  11062220.84721
  20479707.7694  -19921129.52047 -15422026.31963
 91  3 28  1 15 29.9990000  0  5G15G 2G13G19G 6
  23272801.253    -4201478.439 6  -3183323.93421
  20693075.105   -16261708.564 7 -12671380.89924
  21496883.808   -12281424.407 6  -8952355.80321
  23574477.3314   14240275.63844  11096309.56461
  20476223.2924  -19939442.99747 -15436296.52163
 91  3 28  1 15 44.9990000  0  5G15G 2G13G19G 6
  23272944.339    -4200737.888 5  -3182746.85321
  20694015.276   -16256769.233 7 -12667532.04924
  21488356.690   -12326231.865 6  -8987270.59321
  23582810.9334   14284083.07244  11130445.17861
  20472756.2304  -19957668.09947 -15450497.86263
 91  3 28  1 15 59.9990000  0  5G15G 2G13G19G 6
  23273108.128    -4199853.393 5  -3182057.59121
  20694964.7844  -16251780.49947 -12663644.69264
  21479851.651   -12370924.513 6  -9022095.93421
  23591160.7694   14327951.77944  11164628.53661
  20469306.0194  -19975802.96447 -15464628.89163
 91  3 28  1 16 14.9990000  0  5G15G 2G13G19G 6
  23273304.503    -4198826.598 5  -3181257.43521
  20695923.394   -16246743.941 7 -12659720.08724
  21471369.526   -12415503.719 6  -9056832.87521
  23599513.6364   14371879.92544  11198858.19061
  20465870.7694  -19993849.02847 -15478690.72663
 91  3 28  1 16 29.9990000  0  5G15G 2G13G19G 6
  23273531.0734   -4197656.88046  -3180345.96561
  20696890.214   -16241659.218 7 -12655757.93924
  21462909.355   -12459968.894 6  -9091480.95521
  23607889.8234   14415867.69544  11233134.28961
  20462453.6124  -20011805.67847 -15492682.87863
 91  3 28  1 16 44.9990000  0  5G15G 2G13G19G 6
  23273778.292    -4196340.552 5  -3179320.23121
  20697868.3624  -16236522.86147 -12651755.57264
  21454468.1674  -12504316.11846  -9126037.13561
  23616271.972    14459918.582 4  11267459.54221
  20459054.339   -20029668.902 7 -15506602.25423
 91  3 28  1 16 59.9990000  0  5G15G 2G13G19G 6
  23274056.144    -4194876.983 5  -3178179.77121
  20698854.526   -16231333.915 7 -12647712.21424
  21446050.847   -12548544.488 6  -9160500.69821
  23624665.4564   14504033.18745  11301834.47161
  20455672.0504  -20047437.76347 -15520448.08363
 91  3 28  1 17 14.9990000  0  5G15G 2G13G19G 6
  23274366.901    -4193263.015 5  -3176922.07321
  20699853.9804  -16226089.56848 -12643625.68364
  21437659.261   -12592650.451 6  -9194868.87121
  23633069.9334   14548214.45544  11336261.36961
  20452308.6754  -20065108.93547 -15534217.79563
 91  3 28  1 17 29.9990000  0  5G15G 2G13G19G 6
  23274695.4254   -4191507.60245  -3175554.18461
  20700860.019   -16220798.632 7 -12639502.84724
  21429287.3554  -12636642.44146  -9229148.23161
  23641490.159    14592453.283 4  11370733.11721
  20448965.0734  -20082691.15647 -15547918.19063
 91  3 28  1 17 44.9990000  0  5G15G 2G13G19G 6
  23275057.6904   -4189611.69745  -3174076.82661
  20701875.917   -16215462.380 8 -12635344.70724
  21420937.245   -12680521.627 6  -9263339.69721
  23649922.8864   14636748.41544  11405248.78561
  20445635.1904  -20100185.24847 -15561549.91563
 91  3 28  1 17 59.9990000  0  5G15G 2G13G19G 6
  23275444.5734   -4187575.15645  -3172489.89161
  20702899.901   -16210080.867 8 -12631151.30724
  21412610.136   -12724287.650 6  -9297442.98321
  23658356.7764   14681099.72043  11439808.16661
  20442323.4804  -20117590.79247 -15575112.64763
 91  3 28  1 18 14.9990000  0  5G15G 2G13G19G 6
  23275863.784    -4185397.189 5  -3170792.73221
  20703932.394   -16204653.158 8 -12626921.90124
  21404301.6284  -12767939.51146  -9331457.32761
  23666813.862    14725507.816 3  11474411.76221
  20439028.5344  -20134906.78447 -15588605.59563
 91  3 28  1 18 29.9990000  0  5G15G 2G13G19G 6
  23276305.511    -4183077.341 5  -3168985.01521
  20704974.237   -16199178.633 8 -12622656.02024
  21396017.714   -12811476.499 6  -9365382.14421
  23675269.855    14769972.954 3  11509059.80521
  20435749.5114  -20152132.43647 -15602028.15363
 91  3 28  1 18 44.9990000  0  5G15G 2G13G19G 6
  23276774.722    -4180605.422 5  -3167058.82021
  20706026.503   -16193647.290 8 -12618345.86324
  21387755.690   -12854888.148 6  -9399209.30021
  23683743.7144   14814505.35543  11543760.30561
  20432491.269   -20169257.357 7 -15615372.22023
 91  3 28  1 18 59.9990000  0  5G15G 2G13G19G 6
  23277273.042    -4177988.913 5  -3165019.94621
  20707088.5114  -16188066.72448 -12613997.34364
  21379517.690   -12898181.846 6  -9432944.54521
  23692235.972    14859097.313 3  11578507.19921
  20429250.5814  -20186288.82847 -15628643.46563
 91  3 28  1 19 14.9990000  0  5G15G 2G13G19G 6
  23277797.9014   -4175218.00245  -3162860.74061
  20708162.042   -16182427.324 8 -12609602.98924
  21371303.0894  -12941347.68246  -9466580.16461
  23700727.2614   14903758.31242  11613307.88361
  20426028.6514  -20203216.94347 -15641834.17563
 91  3 28  1 19 29.9990000  0  5G15G 2G13G19G 6
  23278349.0344   -4172303.61845  -3160589.75961
  20709243.620   -16176740.269 8 -12605171.49824
  21363111.151   -12984396.555 7  -9500124.63821
  23709242.4724   14948477.02543  11648153.56961
  20422824.7304  -20220052.47647 -15654952.74063
 91  3 28  1 19 44.9990000  0  5G15G 2G13G19G 6
  23278932.8474   -4169247.49945  -3158208.33861
  20710335.214   -16171006.966 8 -12600703.96724
  21354942.331   -13027329.631 7  -9533578.88021
  23717763.3234   14993251.63743  11683042.82761
  20419638.9564  -20236796.78547 -15668000.22063
 91  3 28  1 19 59.9990000  0  5G15G 2G13G19G 6
  23279545.808    -4166049.582 5  -3155716.42721
  20711434.901   -16165227.486 8 -12596200.45424
  21346791.4334  -13070146.76847  -9566942.78561
  23726293.4804   15038082.03244  11717975.54361
  20416469.8234  -20253449.50147 -15680976.33263
 91  3 28  1 20 14.9990000  0  5G15G 2G13G19G 6
  23280175.4094   -4162712.07545  -3153115.73761
  20712542.573   -16159404.020 7 -12591662.66524
  21338668.3004  -13112849.70047  -9600217.70361
  23734832.956    15082965.858 4  11752949.86821
  20413318.2534  -20270012.54247 -15693882.56963
 91  3 28  1 20 29.9990000  0  5G15G 2G13G19G 6
  23280842.144    -4159233.791 5  -3150405.35421
  20713659.855   -16153535.614 7 -12587089.86124
  21330562.964   -13155437.255 7  -9633402.71121
  23743382.6364   15127903.93943  11787966.48761
  20410184.1594  -20286484.70047 -15706717.98963
 91  3 28  1 20 44.9990000  0  5G15G 2G13G19G 6
  23281527.3554   -4155610.96645  -3147582.33961
  20714786.136   -16147618.954 7 -12582479.45624
  21322480.3474  -13197905.60747  -9666494.83961
  23751947.370    15172899.698 3  11823028.02321
  20407066.761   -20302862.108 7 -15719479.57523
 91  3 28  1 20 59.9990000  0  5G15G 2G13G19G 6
  23282248.542    -4151845.107 6  -3144647.87121
  20715919.886   -16141655.263 7 -12577832.40224
  21314422.6054  -13240255.69947  -9699494.81561
  23760515.706    15217951.699 3  11858133.37121
  20403966.9014  -20319145.92147 -15732168.23263
 91  3 28  1 21 14.9990000  0  5G15G 2G13G19G 6
  23282987.8704   -4147935.24845  -3141601.19161
  20717065.019   -16135643.444 7 -12573147.84924
  21306385.1284  -13282486.20547  -9732401.60761
  23769108.7144   15263060.91043  11893283.32361
  20400886.8004  -20335334.71847 -15744782.85063
 91  3 28  1 21 29.9990000  0  5G15G 2G13G19G 6
  23283759.8784   -4143882.53645  -3138443.19161
  20718217.855   -16129584.736 7 -12568426.75424
  21298372.3004  -13324598.47147  -9765216.26761
  23777699.6054   15308225.92143  11928476.72861
  20397824.5264  -20351429.61147 -15757324.29663
 91  3 28  1 21 44.9990000  0  5G15G 2G13G19G 6
  23284562.284    -4139687.754 6  -3135174.50921
  20719379.058   -16123479.827 7 -12563669.65924
  21290381.4724  -13366592.70547  -9797938.95161
  23786306.245    15353445.572 3  11963712.77721
  20394779.6444  -20367430.94347 -15769792.83763
 91  3 28  1 21 59.9990000  0  5G15G 2G13G19G 6
  23285386.870    -4135348.098 6  -3131792.93121
  20720549.933   -16117325.998 8 -12558874.44524
  21282412.0424  -13408465.91047  -9830567.33161
  23794917.136    15398722.734 3  11998993.61921
  20391753.2844  -20383335.63247 -15782186.07363
 91  3 28  1 22 14.9990000  0  5G15G 2G13G19G 6
  23286236.870    -4130863.569 5  -3128298.46121
  20721731.6674  -16111123.53148 -12554041.33264
  21274467.534   -13450218.044 7  -9863101.36421
  23803549.1754   15444056.98743  12034318.96061
  20388745.0654  -20399143.67247 -15794503.99863
 91  3 28  1 22 29.9990000  0  5G15G 2G13G19G 6
  23287116.230    -4126235.267 5  -3124691.97221
  20722920.605   -16104873.590 8 -12549171.22324
  21266544.5424  -13491850.11147  -9895541.83761
  23812182.5654   15489446.96643  12069687.69661
  20385754.7304  -20414855.86447 -15806747.23363
 91  3 28  1 22 44.9990000  0  5G15G 2G13G19G 6
  23288027.4804   -4121462.81646  -3120973.12761
  20724118.089   -16098575.635 8 -12544263.70424
  21258645.4014  -13533361.31847  -9927888.13861
  23820833.5034   15534892.98343  12105100.08961
  20382782.1284  -20430471.56247 -15818915.27763
 91  3 28  1 22 59.9990000  0  5G15G 2G13G19G 6
  23288961.722    -4116547.394 6  -3117142.87421
  20725325.315   -16092231.263 8 -12539320.01524
  21250769.9094  -13574752.92347  -9960141.24161
  23829495.2374   15580393.35742  12140554.84061
  20379830.0974  -20445991.83047 -15831008.95963
 91  3 28  1 23 14.9990000  0  5G15G 2G13G19G 6
  23289926.9174   -4111486.51046  -3113199.29961
  20726541.1904  -16085837.62148 -12534337.93064
  21242916.792   -13616022.027 7  -9992298.89521
  23838162.0654   15625950.79943  12176054.03561
  20376895.4564  -20461413.77747 -15843026.02463
 91  3 28  1 23 29.9990000  0  5G15G 2G13G19G 6
  23290916.8154   -4106280.92146  -3109142.97061
  20727767.980   -16079395.460 8 -12529318.04324
  21235085.730   -13657169.241 7 -10024361.55621
  23846842.5584   15671564.41043  12211597.01661
  20373979.0734  -20476737.85247 -15854966.82563
 91  3 28  1 23 44.9990000  0  5G15G 2G13G19G 6
  23291933.5584   -4100929.42146  -3104972.94461
  20729004.198   -16072904.158 8 -12524259.86524
  21227277.6514  -13698193.32447 -10056328.28361
  23855530.2224   15717234.61543  12247184.08461
  20371082.6444  -20491963.04347 -15866830.57963
 91  3 28  1 23 59.9990000  0  5G15G 2G13G19G 6
  23292979.245    -4095431.155 6  -3100688.55121
  20730247.151   -16066362.666 8 -12519162.57324
  21219496.573   -13739093.020 7 -10088198.06921
  23864236.073    15762962.394 3  12282816.02821
  20368203.9954  -20507087.96247 -15878616.19663
 91  3 28  1 24 14.9990000  0  5G15G 2G13G19G 6
  23294056.0424   -4089793.20845  -3096295.31661
  20731500.581   -16059777.843 8 -12514031.52424
  21211736.0264  -13779875.07647 -10119976.20761
  23872947.6124   15808740.81343  12318487.44861
  20365343.0264  -20522119.28047 -15890328.87863
 91  3 28  1 24 29.9990000  0  5G15G 2G13G19G 6
  23295150.5424   -4084007.71145  -3091787.10761
  20732763.581   -16053141.988 8 -12508860.70424
  21203999.4804  -13820531.35147 -10151656.32761
  23881663.2454   15854577.44643  12354204.17961
  20362501.1754  -20537048.94747 -15901962.35663
 91  3 28  1 24 44.9990000  0  5G15G 2G13G19G 6
  23296285.698    -4078077.070 5  -3087165.81421
  20734035.237   -16046457.437 8 -12503651.94424
  21196285.4254  -13861063.92147 -10183240.05261
  23890401.190    15900469.507 3  12389964.14921
  20359680.8314  -20551879.14147 -15913518.31363
 91  3 28  1 24 59.9990000  0  5G15G 2G13G19G 6
  23297436.5504   -4072003.08945  -3082432.81861
  20735316.605   -16039726.048 8 -12498406.68424
  21188595.2694  -13901474.63647 -10214728.82961
  23899147.5814   15946415.08643  12425765.80961
  20356876.5584  -20566611.44347 -15924997.99763
 91  3 28  1 25 14.9990000  0  5G15G 2G13G19G 6
  23298623.362    -4065783.545 6  -3077586.37621
  20736606.401   -16032945.480 8 -12493123.10724
  21180929.0584  -13941760.80147 -10246120.55961
  23907897.3394   15992416.45443  12461610.91761
  20354091.7064  -20581243.19547 -15936399.32763
 91  3 28  1 25 29.9990000  0  5G15G 2G13G19G 6
  23299834.558    -4059417.746 5  -3072625.97621
  20737905.581   -16026115.411 8 -12487800.95324
  21173286.7924  -13981921.81747 -10277414.76361
  23916661.3394   16038473.71643  12497499.57161
  20351327.0584  -20595773.82747 -15947721.86163
 91  3 28  1 25 44.9990000  0  5G15G 2G13G19G 6
  23301071.331    -4052906.354 6  -3067552.13721
  20739215.823   -16019236.175 8 -12482440.48524
  21165667.2304  -14021957.64547 -10308611.42161
  23925433.6834   16084586.51742  12533431.52561
  20348581.8004  -20610203.31347 -15958965.58563
 91  3 28  1 25 59.9990000  0  5G15G 2G13G19G 6
  23302334.784    -4046253.178 5  -3062367.80921
  20740533.315   -16012311.635 8 -12477044.72224
  21158072.2844  -14061872.11047 -10339713.51261
  23934217.230    16130750.604 2  12569403.42221
  20345853.886   -20624535.249 7 -15970133.30123
 91  3 28  1 26 14.9990000  0  5G15G 2G13G19G 6
  23303631.2144   -4039452.29746  -3057068.38861
  20741862.058   -16005335.820 8 -12471609.00024
  21150499.4564  -14101659.04047 -10370716.22161
  23943017.7614   16176971.92943  12605419.93861
  20343146.7224  -20638763.62447 -15981220.31863
 91  3 28  1 26 29.9990000  0  4G15G 2G13G 6
  23304952.9094   -4032504.83346
  20743197.784   -15998310.166 8
  21142954.7614  -14141319.71647 -10401620.54461
  20340458.7614  -20652889.29447 -15992227.30563
 91  3 28  1 26 44.9990000  0  5G15G 2G13G19G 6
  23306300.901    -4025413.764 5
  20744543.784   -15991237.483 8 -12460623.24524
  21135430.9724  -14180856.74147 -10432428.53061
  23960635.4874         -0.20753
  20337789.4014  -20666914.88847 -16003156.31063
 91  3 28  1 26 59.9990000  0  5G15G 2G13G19G 6
  23307677.144    -4018177.874 5
  20745899.120   -15984116.644 8 -12455074.51824
  21127928.9724  -14220268.34146 -10463138.77161
  23969466.6284      46383.30843
  20335138.7374  -20680838.96247 -16014006.20963
 91  3 28  1 27 14.9990000  0  5G15G 2G13G19G 6
  23309084.394    -4010795.337 6
  20747262.581   -15976945.926 8 -12449486.92724
  21120455.581   -14259552.742 6 -10493749.90821
  23978302.0264      92821.86643
  20332509.5504  -20694659.59747 -16024775.50863
 91  3 28  1 27 29.9990000  0  5G15G 2G13G19G 6
  23310520.440    -4003268.852 6
  20748636.683   -15969727.657 8 -12443862.27924
  21113001.761   -14298712.296 6 -10524263.75021
  23987152.972      139312.880 3        -0.19031
  20329897.6444  -20708378.89247 -16035465.84163
 91  3 28  1 27 44.9990000  0  5G15G 2G13G19G 6
  23311980.019    -3995598.887 6        -0.26231
  20750019.269   -15962462.719 8 -12438201.26824
  21105573.487   -14337747.454 6 -10554680.66921
  23996005.4564     185855.44343     36266.64361
  20327306.4404  -20721997.59647 -16046077.78563
 91  3 28  1 27 59.9990000  0  5G15G 2G13G19G 6
  23313461.2304   -3987783.89946      6089.39061
  20751411.753   -15955148.991 8 -12432502.23724
  21098170.7144  -14376656.03347 -10584998.95661
  24004874.690      232451.531 3     72575.17121
  20324736.151   -20735513.188 7 -16056609.39123
 91  3 28  1 28 14.9990000  0  5G15G 2G13G19G 6
  23314980.276    -3979821.442 6     12293.89721
  20752812.065   -15947784.575 8 -12426763.71024
  21090790.878   -14415435.672 7 -10615216.76821
  24013751.9404     279102.94143    108926.81861
  20322182.784   -20748923.448 7 -16067058.92023
 91  3 28  1 28 29.9990000  0  5G15G 2G13G19G 6
  23316523.784    -3971714.796 6     18610.78121
  20754222.378   -15940372.725 8 -12420988.22324
  21083434.3784  -14454089.37447 -10645336.44961
  24022639.4804     325806.17143    145318.82061
  20319650.3474  -20762231.33847 -16077428.67663
 91  3 28  1 28 44.9990000  0  5G15G 2G13G19G 6
  23318092.261    -3963462.634 6     25041.05421
  20755642.401   -15932911.919 8 -12415174.58624
  21076105.1834  -14492615.69547 -10675356.86261
  24031538.776      372562.440 3    181752.17521
  20317138.6124  -20775435.09947 -16087717.29063
 91  3 28  1 28 59.9990000  0  5G15G 2G13G19G 6
  23319691.4954   -3955065.69446     31584.13161
  20757071.980   -15925403.016 8 -12409323.47324
  21068797.3944  -14531014.94947 -10705278.27361
  24040443.7694     419370.95643    218226.22361
  20314644.4334  -20788535.36147 -16097925.25663
 91  3 28  1 29 14.9990000  0  5G15G 2G13G19G 6
  23321316.8084   -3946524.70745     38239.48161
  20758508.995   -15917846.783 8 -12403435.47824
  21061514.4564  -14569287.69547 -10735101.10261
  24049355.5584     466230.75342    254740.27561
  20312172.4644  -20801532.57247 -16108052.92463
 91  3 28  1 29 29.9990000  0  5G15G 2G13G19G 6
  23322967.0974   -3937840.38946     45006.51661
  20759956.753   -15910243.706 8 -12397510.97824
  21054254.9954  -14607434.39947 -10764825.71461
  24058286.4094     513141.28342    291293.82061
  20309718.9724  -20814426.90247 -16118100.42363
 91  3 28  1 29 44.9990000  0  4G15G 2G13G 6
  23324647.480    -3929013.075 6     51884.96621
  20761411.534   -15902593.654 8 -12391549.87924
  21047020.2454  -14645454.60147 -10794451.75861
  20307284.1594  -20827218.10947 -16128067.57063
 91  3 28  1 29 59.9990000  0  4G15G 2G13G 6
  23326355.683    -3920038.742 5     58877.96121
  20762877.573   -15894893.270 8 -12385549.56524
  21039808.8864  -14683344.55347 -10823976.30261
  20304869.761   -20839902.232 7 -16137951.27723
 91  3 28  1 30 14.9990000  0  4G15G 2G13G 6
  23328091.6124   -3910918.00245     65985.06761
  20764350.433   -15887143.195 8 -12379510.52324
  21032623.4874  -14721104.84947 -10853399.82261
  20302477.073   -20852479.897 7 -16147752.03223
 91  3 28  1 30 29.9990000  0  4G15G 2G13G 6
  23329857.1204   -3901656.45246     73201.88061
  20765833.089   -15879348.940 8 -12373437.05724
  21025460.9804  -14758740.97747 -10882726.58761
  20300103.1054  -20864956.29347 -16157473.86963
 91  3 28  1 30 44.9990000  0  4G15G 2G13G 6
  23331646.8004   -3892246.81546     80534.05861
  20767328.073   -15871503.100 8 -12367323.39424
  21018324.151   -14796244.947 7 -10911950.37421
  20297749.6834  -20877323.72447 -16167110.79863
 91  3 28  1 30 59.9990000  0  4G15G 2G13G 6
  23333463.6284   -3882691.82546     87979.54061
  20768830.542   -15863608.327 8 -12361171.60324
  21011211.9484  -14833619.43847 -10941073.26261
  20295415.8004  -20889584.81347 -16176664.86763
 91  3 28  1 31 14.9990000  0  4G15G 2G13G 6
  23335308.026    -3872991.137 5     95538.53321
  20770342.128   -15855664.309 8 -12354981.44224
  21004125.011   -14870864.068 7 -10970094.97021
  20293103.190   -20901738.806 7 -16186135.48623
 91  3 28  1 31 29.9990000  0  4G15G 2G13G 6
  23337178.089    -3863147.196 5    103209.18721
  20771862.230   -15847673.474 8 -12348754.79724
  20997060.9254  -14907980.82747 -10999017.03361
  20290810.0814  -20913787.89847 -16195524.35963
 91  3 28  1 31 44.9990000  0  4G15G 2G13G 6
  23339085.300    -3853164.310 6    110988.08121
  20773391.839   -15839640.091 8 -12342494.99824
  20990020.659   -14944973.822 7 -11027842.65521
  20288535.9174  -20925736.11047 -16204834.62063
 91  3 28  1 31 59.9990000  0  4G15G 2G13G 6
  23341011.042    -3843036.698 6    118879.74121
  20774929.284   -15831558.346 8 -12336197.51624
  20983006.4404  -14981836.99547 -11056567.11962
  20286284.1444  -20937577.30247 -16214061.49463
 91  3 28  1 32 14.9990000  0  4G15G 2G13G 6
  23342961.2694   -3832764.36545    126884.19761
  20776477.253   -15823428.203 8 -12329862.32624
  20976018.815   -15018569.970 7 -11085190.13422
  20284050.9174  -20949311.14847 -16223204.72263
 91  3 28  1 32 29.9990000  0  4G15G 2G13G 6
  23344948.144    -3822347.151 5    135001.52721
  20778031.440   -15815249.470 8 -12323489.26724
  20969052.5114  -15055172.48147 -11113711.48161
  20281839.2454  -20960937.20047 -16232263.95063
 91  3 28  1 32 44.9990000  0  4G15G 2G13G 6
  23346954.698    -3811784.594 6    143232.10821
  20779598.855   -15807021.963 8 -12317078.20324
  20962111.956   -15091644.433 7 -11142131.10222
  20279647.2304  -20972455.09747 -16241238.90163
 91  3 28  1 32 59.9990000  0  4G15G 2G13G 6
  23348996.7694   -3801078.37646    151574.64961
  20781171.667   -15798746.910 8 -12310630.09124
  20955195.5424  -15127986.65147 -11170449.62362
  20277473.7844  -20983865.75847 -16250130.29863
 91  3 28  1 33 14.9990000  0  4G15G 2G13G 6
  23351057.6444   -3790226.56946    160030.62961
  20782757.089   -15790422.193 8 -12304143.28324
  20948304.5584  -15164196.90047 -11198665.31861
  20275324.7374  -20995166.89147 -16258936.34963
 91  3 28  1 33 29.9990000  0  4G15G 2G13G 6
  23353149.4874   -3779230.92545    168598.70361
  20784350.581   -15782049.635 8 -12297619.19224
  20941438.964   -15200276.597 7 -11226779.28222
  20273194.347   -21006360.243 7 -16267658.41723
 91  3 28  1 33 44.9990000  0  4G15G 2G13G 6
  23355271.300    -3768088.803 5    177280.88821
  20785953.401   -15773626.694 8 -12291055.84424
  20934597.7534  -15236223.33947 -11254789.64262
  20271084.3154  -21017442.75647 -16276294.11263
 91  3 28  1 33 59.9990000  0  4G15G 2G13G 6
  23357421.276    -3756802.135 6    186075.71621
  20787565.589   -15765155.118 8 -12284454.60024
  20927782.386   -15272038.396 6 -11282697.39321
  20268996.4484  -21028416.04847 -16284844.69963
 91  3 28  1 34 14.9990000  0  4G15G 2G13G 6
  23359596.855    -3745363.870 5    194988.66921
  20789187.909   -15756628.091 8 -12277810.14024
  20920995.2144  -15307714.62946 -11310496.96362
  20266931.5194  -21039272.83047 -16293304.50463
 91  3 28  1 34 29.9990000  0  4G15G 2G13G 6
  23361801.433    -3733780.233 5    204014.89621
  20790820.136   -15748051.705 8 -12271127.22023
  20914229.0814  -15343258.22746 -11338193.18962
  20264886.3394  -21050019.11347 -16301678.19863
 91  3 28  1 34 44.9990000  0  4G15G 2G13G 6
  23364031.8394   -3722053.35445    213152.75461
  20792460.245   -15739428.000 8 -12264407.43124
  20907491.0584  -15378670.98646 -11365787.46062
  20262863.026   -21060656.573 7 -16309967.10323
 91  3 28  1 34 59.9990000  0  4G15G 2G13G 6
  23366291.862    -3710182.313 5    222402.95921
  20794111.136   -15730756.082 8 -12257650.06923
  20900777.3474  -15413951.80046 -11393278.90861
  20260857.6514  -21071184.07347 -16318170.32163
 91  3 28  1 35 14.9990000  0  4G15G 2G13G 6
  23368578.3704   -3698168.35045    231764.50561
  20795769.925   -15722037.233 8 -12250856.14023
  20894087.7454  -15449101.69846 -11420668.35261
  20258877.1364  -21081602.79047 -16326288.77363
 91  3 28  1 35 29.9990000  0  4G15G 2G13G 6
  23370887.8624   -3686013.66445    241235.73061
  20797437.886   -15713273.242 8 -12244027.03824
  20887424.4804  -15484122.21746 -11447956.97861
  20256914.3084  -21091914.27847 -16334323.66963
 91  3 28  1 35 44.9990000  0  4G15G 2G13G 6
  23373227.073    -3673716.272 5    250818.13121
  20799115.050   -15704461.924 8 -12237161.05323
  20880784.2614  -15519011.18646 -11475143.09561
  20254971.2454  -21102115.93747 -16342272.98163
 91  3 28  1 35 59.9990000  0  4G15G 2G13G 6
  23375597.370    -3661275.490 5    260512.26821
  20800799.823   -15695602.880 8 -12230257.88223
  20874171.050   -15553768.013 6 -11502226.25321
  20253053.2764  -21112207.33047 -16350136.37563
 91  3 28  1 36 14.9990000  0  4G15G 2G13G 6
  23377990.8944   -3648692.07645    270317.55961
  20802495.948   -15686697.023 8 -12223318.23424
  20867582.198   -15588393.160 6 -11529206.80321
  20251152.9484  -21122188.85147 -16357914.15963
 91  3 28  1 36 29.9990000  0  4G15G 2G13G 6
  23380411.097    -3635964.865 5    280234.88721
  20804198.753   -15677742.836 8 -12216340.92823
  20861019.519   -15622885.191 6 -11556083.63121
  20249272.839   -21132058.904 7 -16365605.08223
 91  3 28  1 36 44.9990000  0  4G15G 2G13G 6
  23382862.628    -3623095.957 5    290262.62521
  20805912.089   -15668742.352 8 -12209327.54223
  20854480.7844  -15657246.08946 -11582858.26961
  20247416.409   -21141819.141 7 -16373210.43623
 91  3 28  1 36 59.9990000  0  4G15G 2G13G 6
  23385338.0584   -3610083.89945    300401.90561
  20807633.472   -15659693.758 8 -12202276.67223
  20847966.261   -15691474.018 7 -11609529.30221
  20245581.0194  -21151467.88847 -16380728.91363
 91  3 28  1 37 14.9990000  0  4G15G 2G13G 6
  23387839.3784   -3596927.48645    310653.68561
  20809365.159   -15650596.068 8 -12195187.53923
  20841478.558   -15725567.780 7 -11636095.79221
  20243766.4484  -21161003.82947 -16388159.48763
 91  3 28  1 37 29.9990000  0  4G15G 2G13G 6
  23390374.980    -3583628.530 5    321016.53721
  20811104.815   -15641450.973 8 -12188061.47323
  20835015.769   -15759528.727 7 -11662558.78821
  20241973.339   -21170428.348 7 -16395503.24123
 91  3 28  1 37 44.9990000  0  4G15G 2G13G 6
  23392928.8554   -3570192.99345    331485.79661
  20812851.651   -15632264.504 8 -12180903.16723
  20828578.386   -15793362.581 7 -11688922.75721
  20240200.6754  -21179747.09947 -16402764.58263
 91  3 28  1 37 59.9990000  0  4G15G 2G13G 6
  23395509.2374   -3556611.88845    342068.49561
  20814611.097   -15623027.466 8 -12173705.45423
  20822164.120   -15827060.108 7 -11715180.48721
  20238448.6124  -21188950.61647 -16409936.12663
 91  3 28  1 38 14.9990000  0  4G15G 2G13G 6
  23398123.925    -3542887.265 5    352763.02621
  20816378.925   -15613742.079 8 -12166470.06623
  20815776.542   -15860623.074 7 -11741333.37021
  20236718.6674  -21198041.01247 -16417019.51963
 91  3 28  1 38 29.9990000  0  4G15G 2G13G 6
  23400757.3084   -3529023.25845    363566.17761
  20818154.206   -15604411.971 8 -12159199.84023
  20809416.550   -15894055.312 7 -11767384.39421
  20235009.855   -21207021.564 7 -16424017.33123
 91  3 28  1 38 44.9990000  0  4G15G 2G13G 6
  23403427.065    -3515017.003 5    374480.15421
  20819938.386   -15595034.380 8 -12151892.60623
  20803078.597   -15927353.809 7 -11793331.19721
  20233321.073   -21215889.383 7 -16430927.29523
 91  3 28  1 38 59.9990000  0  4G15G 2G13G 6
  23406117.292    -3500867.290 5    385505.91221
  20821731.784   -15585607.909 7 -12144547.28223
  20796768.136   -15960516.966 7 -11819172.54521
  20231656.089   -21224642.849 7 -16437748.15323
 91  3 28  1 39 14.9990000  0  4G15G 2G13G 6
  23408837.9484   -3486573.00645    396644.32561
  20823534.714   -15576131.650 8 -12137163.16723
  20790483.0504  -15993543.64347 -11844907.54961
  20230013.253   -21233280.810 7 -16444479.00823
 91  3 28  1 39 29.9990000  0  4G15G 2G13G 6
  23411587.722    -3472137.554 5    407892.73321
  20825346.519   -15566608.864 7 -12129742.79723
  20784225.034   -16026437.042 7 -11870538.69521
  20228390.269   -21241806.132 7 -16451122.09223
 91  3 28  1 39 44.9990000  0  4G15G 2G13G 6
  23414362.5584   -3457561.54045    419250.69461
  20827167.792   -15557039.939 7 -12122286.47123
  20777988.6514  -16059197.41247 -11896066.18661
  20226789.808   -21250219.091 7 -16457677.62323
 91  3 28  1 39 59.9990000  0  4G15G 2G13G 6
  23417160.175    -3442845.620 5    430717.69021
  20828997.151   -15547425.629 7 -12114794.78523
  20771781.308   -16091825.473 7 -11921490.57921
  20225210.206   -21258520.259 7 -16464146.04523
 91  3 28  1 40 14.9990000  0  4G15G 2G13G 6
  23419989.386    -3427987.900 5    442295.15321
  20830836.5034  -15537763.77747 -12107266.04463
  20765596.6834  -16124318.71847 -11946809.92661
  20223651.503   -21266707.003 7 -16470525.30523
 91  3 28  1 40 29.9990000  0  4G15G 2G13G 6
  23422843.105    -3412988.650 5    453982.89121
  20832683.1444  -15528054.45847 -12099700.31463
  20759439.8154  -16156677.20047 -11972024.25861
  20222114.995   -21274779.498 7 -16476815.53923
 91  3 28  1 40 44.9990000  0  4G15G 2G13G 6
  23425725.565    -3397847.070 5    465781.54021
  20834538.636   -15518296.870 7 -12092096.97924
  20753307.417   -16188899.740 7 -11997132.66221
  20220600.831   -21282736.507 7 -16483015.78823
 91  3 28  1 40 59.9990000  0  4G15G 2G13G 6
  23428634.0034   -3382562.75845    477691.41661
  20836405.948   -15508490.640 7 -12084455.74323
  20747203.2304  -16220985.85747 -12022134.76461
  20219109.300   -21290577.446 7 -16489125.59423
 91  3 28  1 41 14.9990000  0  4G15G 2G13G 6
  23431568.940    -3367138.727 5    489710.16621
  20838281.417   -15498638.742 7 -12076778.92023
  20741122.7844  -16252938.58947 -12047032.92761
  20217638.769   -21298305.091 7 -16495147.11423
 91  3 28  1 41 29.9990000  0  4G15G 2G13G 6
  23434528.9094   -3351572.78445    501839.47761
  20840164.589   -15488739.050 7 -12069064.85324
  20735067.6754  -16284755.50247 -12071825.25361
  20216190.730   -21305916.955 7 -16501078.42023
 91  3 28  1 41 44.9990000  0  4G15G 2G13G 6
  23437518.6204   -3335865.04445    514079.29761
  20842059.597   -15478791.248 7 -12061313.30223
  20729040.081   -16316436.250 7 -12096511.48221
  20214762.917   -21313412.537 7 -16506919.11723
 91  3 28  1 41 59.9990000  0  4G15G 2G13G 6
  23440535.4644   -3320015.07045    526429.95461
  20843961.269   -15468794.686 7 -12053523.74823
  20723035.8314  -16347979.98347 -12121090.94661
  20213359.222   -21320791.152 7 -16512668.66823
 91  3 28  1 42 14.9990000  0  4G15G 2G13G 6
  23443577.542    -3304025.331 5    538889.50221
  20845869.894   -15458751.546 7 -12045697.90623
  20717060.269   -16379388.804 7 -12145565.27921
  20211978.097   -21328054.756 7 -16518328.59723
 91  3 28  1 42 29.9990000  0  4G15G 2G13G 6
  23446650.269    -3287895.097 5    551458.54321
  20847789.737   -15448661.235 7 -12037835.31123
  20711108.2614  -16410662.06847 -12169933.98961
  20210617.909   -21335202.670 7 -16523898.38423
 91  3 28  1 42 44.9990000  0  4G15G 2G13G 6
  23449745.2614   -3271620.32745    564140.21561
  20849720.526   -15438519.717 7 -12029932.80823
  20705184.6904  -16441795.37047 -12194193.64061
  20209280.081   -21342230.411 7 -16529374.52523
 91  3 28  1 42 59.9990000  0  4G15G 2G13G 6
  23452869.2304   -3255204.46145    576931.81161
  20851659.862   -15428330.437 7 -12021993.08923
  20699284.261   -16472792.232 7 -12218346.96021
  20207962.847   -21349141.158 7 -16534759.49723
 91  3 28  1 43 14.9990000  0  4G15G 2G13G 6
  23456020.3624   -3238649.88246    589831.51061
  20853607.753   -15418095.295 7 -12014017.63823
  20693413.1984  -16503654.39547 -12242395.33261
  20206671.058   -21355936.770 7 -16540054.75723
 91  3 28  1 43 29.9990000  0  4G15G 2G13G 6
  23459196.0504   -3221956.07946    602839.70161
  20855564.159   -15407813.881 7 -12006006.13123
  20687564.440   -16534381.384 7 -12266338.37121
  20205399.526   -21362616.546 7 -16545259.75423
 91  3 28  1 43 44.9990000  0  4G15G 2G13G 6
  23462396.5114   -3205123.35945    615956.12661
  20857529.519   -15397486.302 7 -11997958.65623
  20681743.6674  -16564973.16047 -12290176.05162
  20204151.495   -21369180.408 7 -16550374.43523
 91  3 28  1 43 59.9990000  0  4G15G 2G13G 6
  23465629.526    -3188154.381 5    629178.73021
  20859503.065   -15387115.317 7 -11989877.35123
  20675948.0344  -16595432.31447 -12313910.39362
  20202923.065   -21375630.776 7 -16555400.67223
 91  3 28  1 44 14.9990000  0  4G15G 2G13G 6
  23468882.4874   -3171046.16645    642509.80261
  20861484.956   -15376697.875 7 -11981759.84823
  20670176.3624  -16625755.83547 -12337539.04462
  20201719.550   -21381964.502 7 -16560336.02423
 91  3 28  1 44 29.9990000  0  4G15G 2G13G 6
  23472162.9404   -3153798.94445    655949.21261
  20863476.948   -15366233.684 7 -11973605.91724
  20664433.9174  -16655943.11947 -12361061.53462
  20200536.261   -21388180.858 7 -16565179.92023
 91  3 28  1 44 44.9990000  0  4G15G 2G13G 6
  23475475.4724   -3136410.59846    669498.60561
  20865477.362   -15355720.608 7 -11965413.88923
  20658714.1594  -16685991.81247 -12384476.03262
  20199375.487   -21394277.805 7 -16569930.76823
 91  3 28  1 44 59.9990000  0  4G15G 2G13G 6
  23478809.2064   -3118884.06846    683155.67361
  20867486.230   -15345161.547 7 -11957186.03523
  20653021.7764  -16715904.74347 -12407784.74162
  20198236.933   -21400257.857 7 -16574590.52723
 91  3 28  1 45 14.9990000  0  4G15G 2G13G 6
  23482173.3554   -3101216.92646    696922.26661
  20869503.784   -15334553.974 7 -11948920.37223
  20647355.081   -16745679.449 7 -12430985.73722
  20197122.526   -21406118.274 7 -16579157.06423
 91  3 28  1 45 29.9990000  0  4G15G 2G13G 6
  23485558.745    -3083414.260 6    710794.50021
  20871531.339   -15323902.579 7 -11940620.56324
  20641715.4174  -16775320.25247 -12454082.40062
  20196029.222   -21411863.651 7 -16583633.95823
 91  3 28  1 45 44.9990000  0  4G15G 2G13G 6
  23488972.511    -3065467.930 6    724778.67821
  20873569.714   -15313199.408 7 -11932280.41424
  20636100.5974  -16804819.17047 -12477068.50062
  20194959.089   -21417485.716 7 -16588014.76923
 91  3 28  1 45 59.9990000  0  4G15G 2G13G 6
  23492416.651    -3047380.074 5    738873.09321
  20875614.753   -15302446.616 7 -11923901.60124
  20630513.9874  -16834178.14147 -12499945.55362
  20193912.573   -21422986.284 7 -16592300.90523
 91  3 28  1 46 14.9990000  0  4G15G 2G13G 6
  23495886.4484   -3029156.27146    753073.46261
  20877669.933   -15291649.069 7 -11915487.91524
  20624953.940   -16863402.274 7 -12522717.53422
  20192887.753   -21428370.336 7 -16596496.24423
 91  3 28  1 46 29.9990000  0  4G15G 2G13G 6
  23499379.081    -3010792.120 6    767383.22721
  20879733.409   -15280802.827 7 -11907036.28023
  20619419.2694  -16892487.29447 -12545381.11862
  20191886.769   -21433633.493 7 -16600597.39023
 91  3 28  1 46 44.9990000  0  4G15G 2G13G 6
  23502899.175    -2992287.352 5    781802.56221
  20881807.597   -15269906.910 7 -11898545.93724
  20613911.4724  -16921432.11147 -12567935.45462
  20190907.222   -21438774.652 7 -16604603.46023
 91  3 28  1 46 59.9990000  0  4G15G 2G13G 6
  23506448.7064   -2973647.87646    796326.81861
  20883887.925   -15258967.437 7 -11890021.66124
  20608427.940   -16950242.835 7 -12590385.29822
  20189950.417   -21443799.699 7 -16608519.05423
 91  3 28  1 47 14.9990000  0  4G15G 2G13G 6
  23510020.542    -2954873.044 5    810956.58121
  20885979.261   -15247983.656 7 -11881462.85923
  20602971.2224  -16978918.62547 -12612729.99862
  20189018.815   -21448707.660 7 -16612343.41723
 91  3 28  1 47 29.9990000  0  4G15G 2G13G 6
  23513619.378    -2935961.099 5    825693.16621
  20888077.972   -15236953.424 8 -11872867.85824
  20597540.339   -17007457.147 7 -12634967.73822
  20188105.253   -21453496.258 7 -16616074.77323
 91  3 28  1 47 44.9990000  0  4G15G 2G13G 6
  23517245.5504   -2916909.53046    840538.57861
  20890186.284   -15225874.244 7 -11864234.71324
  20592136.7534  -17035855.78247 -12657096.47762
  20187216.198   -21458162.826 7 -16619711.03123
 91  3 28  1 47 59.9990000  0  4G15G 2G13G 6
  23520895.230    -2897718.614 6    855492.56521
  20892303.933   -15214746.246 7 -11855563.53124
  20586756.9094  -17064114.44947 -12679116.15162
  20186353.550   -21462707.226 7 -16623252.10223
 91  3 28  1 48 14.9990000  0  4G15G 2G13G 6
  23524573.159    -2878389.137 5    870554.48021
  20894429.886   -15203570.222 7 -11846854.92224
  20581409.6284  -17092233.90947 -12701027.35562
  20185511.878   -21467130.159 7 -16626698.52023
 91  3 28  1 48 29.9990000  0  4G15G 2G13G 6
  23528279.3474   -2858922.17245    885723.53761
  20896565.089   -15192347.087 7 -11838109.60524
  20576082.8154  -17120215.09547 -12722830.80762
  20184693.495   -21471432.182 7 -16630050.72123
 91  3 28  1 48 44.9990000  0  4G15G 2G13G 6
  23532009.2454   -2839319.41745    900998.44861
  20898709.495   -15181078.159 7 -11829328.60824
  20570785.8154  -17148059.28447 -12744527.51962
  20183897.355   -21475614.450 7 -16633309.61023
 91  3 28  1 48 59.9990000  0  4G15G 2G13G 6
  23535766.198    -2819576.814 5    916382.28621
  20900863.190   -15169758.998 7 -11820508.46824
  20565513.9014  -17175762.04447 -12766114.02262
  20183124.675   -21479672.432 7 -16636471.65323
 91  3 28  1 49 14.9990000  0  4G15G 2G13G 6
  23539546.6364   -2799698.30945    931872.00561
  20903026.362   -15158393.919 7 -11811652.55024
  20560267.0814  -17203327.46047 -12787593.50462
  20182376.526   -21483610.115 7 -16639539.96023
 91  3 28  1 49 29.9990000  0  4G15G 2G13G 6
  23543359.3004   -2779683.27445    947468.13861
  20905197.761   -15146982.103 7 -11802760.21024
  20555046.5344  -17230754.55247 -12808965.19962
  20181650.230   -21487426.661 7 -16642513.87023
 91  3 28  1 49 44.9990000  0  4G15G 2G13G 6
  23547192.6204   -2759531.42945    963170.91461
  20907379.245   -15135522.840 7 -11793830.89924
  20549854.7534  -17258042.43147 -12830228.41662
  20180947.339   -21491120.990 7 -16645392.54723
 91  3 28  1 49 59.9990000  0  4G15G 2G13G 6
  23551051.6364   -2739246.72045    978977.19861
  20909569.011   -15124019.977 7 -11784867.62124
  20544688.3154  -17285194.96247 -12851386.16962
  20180265.073   -21494696.823 7 -16648178.89223
 91  3 28  1 50 14.9990000  0  4G15G 2G13G 6
  23554939.7144   -2718819.95545    994894.13761
  20911765.730   -15112464.069 7 -11775863.00224
  20539549.3624  -17312202.79747 -12872431.17562
  20179610.745   -21498144.559 7 -16650865.41723
 91  3 28  1 50 29.9990000  0  4G15G 2G13G 6
  23558851.917    -2698263.516 5   1010912.16221
  20913973.3704  -15100867.41647 -11766826.64064
  20534434.3624  -17339078.13147 -12893372.93262
  20178975.745   -21501476.412 7 -16653461.64723
 91  3 28  1 50 44.9990000  0  4G15G 2G13G 6
  23562788.9014   -2677571.37045   1027035.93061
  20916188.972   -15089224.197 7 -11757753.99424
  20529348.3624  -17365814.91047 -12914206.72262
  20178364.042   -21504686.103 7 -16655962.68623
 91  3 28  1 50 59.9990000  0  4G15G 2G13G 6
  23566753.5194   -2656741.35345   1043267.12161
  20918413.292   -15077531.654 7 -11748642.90524
  20524285.0264  -17392410.38947 -12934930.40962
  20177777.980   -21507770.985 7 -16658366.46423
 91  3 28  1 51 14.9990000  0  4G15G 2G13G 6
  23570744.534    -2635774.216 6   1059605.19021
  20920648.9254  -15065790.47447 -11739493.92964
  20519251.5584  -17418865.09747 -12955544.41162
  20177214.175   -21510731.491 7 -16660673.32823
 91  3 28  1 51 29.9990000  0  4G15G 2G13G 6
  23574758.925    -2614670.649 5   1076049.54721
  20922892.659   -15054001.195 7 -11730307.45823
  20514245.6754  -17445179.58847 -12976049.15362
  20176673.175   -21513567.741 7 -16662883.37423
 91  3 28  1 51 44.9990000  0  4G15G 2G13G 6
  23578799.1204   -2593432.05345   1092599.10961
  20925144.292   -15042165.073 7 -11721084.49423
  20509264.714   -17471355.195 7 -12996445.67022
  20176157.425   -21516281.090 7 -16664997.65223
 91  3 28  1 51 59.9990000  0  4G15G 2G13G 6
  23582868.9174   -2572059.64145   1109252.92661
  20927404.769   -15030283.204 7 -11711825.88023
  20504307.409   -17497392.907 7 -13016734.73821
  20175664.855   -21518872.283 7 -16667016.73823
 91  3 28  1 52 14.9990000  0  4G15G 2G13G 6
  23586959.651    -2550557.001 5   1126008.27121
  20929674.683   -15018358.450 7 -11702533.85323
  20499378.7844  -17523295.19547 -13036918.28161
  20175195.300   -21521344.083 7 -16668942.79723
 91  3 28  1 52 29.9990000  0  4G15G 2G13G 6
  23591074.5814   -2528918.69445   1142869.30861
  20931952.956   -15006385.684 7 -11693204.40923
  20494476.956   -17549056.999 7 -13056992.36121
  20174748.901   -21523691.098 7 -16670771.61723
 91  3 28  1 52 44.9990000  0  4G15G 2G13G 6
  23595220.1514   -2507143.32145   1159837.12361
  20934241.019   -14994363.676 7 -11683836.59123
  20489602.214   -17574676.994 7 -13076955.93721
  20174324.808   -21525912.018 7 -16672502.18623
 91  3 28  1 52 59.9990000  0  4G15G 2G13G 6
  23599387.980    -2485237.655 5   1176906.47921
  20936537.159   -14982298.839 7 -11674435.40423
  20484751.323   -17600161.443 7 -13096813.89121
  20173926.214   -21528012.910 7 -16674139.23223
 91  3 28  1 53 14.9990000  0  4G15G 2G13G 6
  23603584.1444   -2463195.63445   1194082.14261
  20938841.597   -14970184.627 7 -11664995.74323
  20479930.2224  -17625503.91147 -13116561.21361
  20173550.362   -21529987.119 7 -16675677.55923
 91  3 28  1 53 29.9990000  0  4G15G 2G13G 6
  23607801.8394   -2441018.34445   1211363.19261
  20941156.190   -14958022.115 7 -11655518.44323
  20475134.4724  -17650705.35447 -13136198.64661
  20173197.956   -21531835.656 7 -16677117.96123
 91  3 28  1 53 44.9990000  0  4G15G 2G13G 6
  23612046.0814   -2418707.03745   1228748.60061
  20943479.167   -14945812.125 7 -11646004.14523
  20470364.362   -17675766.733 7 -13155726.94421
  20172869.269   -21533559.142 7 -16678460.92323
 91  3 28  1 53 59.9990000  0  4G15G 2G13G 6
  23616318.2454   -2396262.88045   1246237.52361
  20945811.901   -14933555.765 7 -11636453.71523
  20465621.487   -17700689.053 7 -13175146.88321
  20172565.534   -21535158.678 7 -16679707.29523
 91  3 28  1 54 14.9990000  0  4G15G 2G13G 6
  23620616.5734   -2373684.48545   1263831.11161
  20948153.628   -14921251.630 7 -11626866.06023
  20460906.347   -17725470.631 7 -13194457.14621
  20172284.253   -21536632.510 7 -16680855.71923
 91  3 28  1 54 29.9990000  0  4G15G 2G13G 6
  23624939.636    -2350972.488 5   1281528.81521
  20950504.370   -14908900.131 7 -11617241.50123
  20456217.4404  -17750111.86947 -13213658.05461
  20172026.987   -21537980.760 7 -16681906.28423
 91  3 28  1 54 44.9990000  0  4G15G 2G13G 6
  23629283.4094   -2328123.83445   1299332.96561
  20952863.206   -14896498.163 7 -11607577.61723
  20451555.331   -17774609.636 7 -13232747.16821
  20171796.862   -21539200.243 7 -16682856.50823
 91  3 28  1 54 59.9990000  0  4G15G 2G13G 6
  23633657.8624   -2305141.91345   1317240.95561
  20955232.456   -14884048.510 7 -11597876.57523
  20446920.378   -17798966.806 7 -13251726.73421
  20171588.394   -21540293.685 7 -16683708.52723
 91  3 28  1 55 14.9990000  0  4G15G 2G13G 6
  23638058.347    -2282022.927 5   1335255.75621
  20957611.776   -14871547.129 7 -11588135.21923
  20442312.9014  -17823179.23947 -13270593.50961
  20171404.331   -21541256.765 7 -16684458.96323
 91  3 28  1 55 29.9990000  0  4G15G 2G13G 6
  23642482.0344   -2258768.19745   1353376.34061
  20960000.495   -14858995.257 7 -11578354.52923
  20437731.800   -17847248.035 7 -13289348.37121
  20171248.815   -21542090.606 7 -16685108.69323
 91  3 28  1 55 44.9990000  0  4G15G 2G13G 6
  23646934.1124   -2235376.48145   1371603.64661
  20962398.003   -14846391.557 7 -11568533.45223
  20433178.667   -17871172.158 7 -13307990.48621
  20171112.167   -21542793.826 7 -16685656.63623
 91  3 28  1 55 59.9990000  0  4G15G 2G13G 6
  23651409.5034   -2211852.97645   1389933.67761
  20964806.753   -14833740.677 7 -11558675.60423
  20428653.948   -17894956.031 7 -13326523.33121
  20171001.886   -21543370.852 7 -16686106.25123
 91  3 28  1 56 14.9990000  0  4G15G 2G13G 6
  23655913.1444   -2188194.88545   1408368.60361
  20967224.331   -14821040.072 8 -11548779.01423
  20424155.190   -17918596.844 7 -13344944.69021
  20170919.472   -21543818.778 7 -16686455.26023
 91  3 28  1 56 29.9990000  0  4G15G 2G13G 6
  23660440.6204   -2164402.80245   1426907.92761
  20969649.159   -14808290.065 7 -11538843.92623
  20419684.183   -17942095.087 7 -13363254.95321
  20170855.065   -21544137.953 7 -16686703.94923
 91  3 28  1 56 44.9990000  0  4G15G 2G13G 6
  23664994.5264   -2140475.46145   1445552.62461
  20972085.401   -14795489.394 7 -11528869.36823
  20415238.644   -17965449.418 7 -13381453.08321
  20170819.245   -21544326.997 7
 91  3 28  1 56 59.9990000  0  4G15G 2G13G 6
  23669572.597    -2116413.442 5   1464302.25021
  20974530.214   -14782638.355 7 -11518855.55023
  20410822.167   -17988660.222 7 -13399539.37121
  20170809.823   -21544385.826 7
 91  3 28  1 57 14.9990000  0  4G15G 2G13G 6
  23674179.214    -2092215.493 5   1483157.85121
  20976986.183   -14769735.260 7 -11508801.17223
  20406432.878   -18011725.728 7 -13417512.43921
  20170822.308   -21544312.940 7
 91  3 28  1 57 29.9990000  0  4G15G 2G13G 6
  23678806.917    -2067886.840 5   1502115.26621
  20979449.683   -14756785.355 7 -11498710.32023
  20402071.222   -18034650.908 7 -13435376.16721
  20170860.394   -21544113.206 7
 91  3 28  1 57 44.9990000  0  4G15G 2G13G 6
  23683463.128    -2043423.686 5   1521177.49321
  20981925.136   -14743784.455 7 -11488579.73523
  20397735.019   -18057431.513 7 -13453127.23621
  20170924.355   -21543782.229 7
 91  3 28  1 57 59.9990000  0  4G15G 2G13G 6
  23688140.784    -2018828.312 5   1540342.70221
  20984407.722   -14730734.570 7 -11478410.97923
  20393427.659   -18080069.544 7 -13470767.21121
  20171009.909   -21543322.005 7 -16686068.04322
 91  3 28  1 58 14.9990000  0  4G15G 2G13G 6
  23692848.261    -1994101.760 5   1559610.13621
  20986900.519   -14717636.400 7 -11468204.60123
  20389145.823   -18102565.770 7 -13488296.68821
  20171124.206   -21542733.021 7 -16685609.07923
 91  3 28  1 58 29.9990000  0  4G15G 2G13G 6
  23697576.7374   -1969244.58745   1578979.38861
  20989401.456   -14704490.549 7 -11457961.07323
  20384892.081   -18124920.897 7 -13505716.22221
  20171259.605   -21542015.732 7 -16685050.14023
 91  3 28  1 58 44.9990000  0  4G15G 2G13G 6
  23702333.308    -1944255.115 5   1598451.74321
  20991912.730   -14691295.073 7 -11447678.86324
  20380664.073   -18147133.057 7 -13523024.34822
  20171422.730   -21541168.134 7 -16684389.65622
 91  3 28  1 58 59.9990000  0  4G15G 2G13G 6
  23707111.6054   -1919135.18345   1618025.69161
  20994432.425   -14678051.732 7 -11437359.35523
  20376465.964   -18169204.011 7 -13540222.43821
  20171608.667   -21540191.790 7 -16683628.85323
 91  3 28  1 59 14.9990000  0  4G15G 2G13G 6
  23711920.7454   -1893882.68345   1637702.96461
  20996962.894   -14664757.799 7 -11427000.43224
  20372291.839   -18191130.816 7 -13557308.20922
  20171818.698   -21539083.764 7 -16682765.43723
 91  3 28  1 59 29.9990000  0  4G15G 2G13G 6
  23716747.9564   -1868498.58245   1657482.81161
  20999500.917   -14651414.437 7 -11416602.98824
  20368147.120   -18212914.454 7 -13574282.42621
  20172055.144   -21537845.094 7 -16681800.21823
 91  3 28  1 59 44.9990000  0  4G15G 2G13G 6
  23721601.0344   -1842982.04345   1677365.85161
  21002049.792   -14638020.398 7 -11406166.05824
  20364028.417   -18234553.898 7 -13591144.28022
  20172316.112   -21536474.409 7 -16680732.13523
 91  3 28  1 59 59.9990000  0  4G15G 2G13G 6
  23726483.776    -1817333.825 5   1697351.49921
  21004608.487   -14624576.325 8 -11395690.14624
  20359939.011   -18256049.862 7 -13607894.33422
  20172601.386   -21534972.185 7 -16679561.55223
 91  3 28  2  0 14.9990000  0  4G15G 2G13G 6
  23731391.472    -1791555.759 5   1717438.30621
  21007176.120   -14611083.742 8 -11385176.42724
  20355874.448   -18277403.781 7 -13624533.70022
  20172911.737   -21533339.824 7 -16678289.56323
 91  3 28  2  0 29.9990000  0  4G15G 2G13G 6
  23736321.667    -1765646.106 5   1737627.70221
  21009754.394   -14597540.710 8 -11374623.40323
  20351840.394   -18298613.676 7 -13641060.84422
  20173247.605   -21531575.297 7 -16676914.59623
 91  3 28  2  0 44.9990000  0  4G15G 2G13G 6
  23741275.9404   -1739611.30445   1757914.55761
  21012340.175   -14583953.407 8 -11364035.88123
  20347827.933   -18319685.427 7 -13657480.33822
  20173606.230   -21529684.525 7 -16675441.25023
 91  3 28  2  0 59.9990000  0  4G15G 2G13G 6
  23746253.4404   -1713446.35445   1778302.83961
  21014933.9954  -14570316.99348 -11353410.09363
  20343846.370   -18340614.408 7 -13673788.58922
  20173990.956   -21527662.692 7 -16673865.78223
 91  3 28  2  1 14.9990000  0  4G15G 2G13G 6
  23751257.034    -1687151.372 5   1798792.45221
  21017538.862   -14556630.844 8 -11342745.54723
  20339890.464   -18361400.072 7 -13689985.15922
  20174401.815   -21525508.989 7 -16672187.56123
 91  3 28  2  1 29.9990000  0  4G15G 2G13G 6
  23756287.1834   -1660726.34945   1819383.39961
  21020152.003   -14542894.720 8 -11332042.06023
  20335962.909   -18382042.189 7 -13706069.88122
  20174834.839   -21523223.082 7 -16670406.32223
 91  3 28  2  1 44.9990000  0  4G15G 2G13G 6
  23761342.894    -1634170.683 5   1840076.17621
  21022775.073   -14529107.939 8 -11321299.10723
  20332061.237   -18402540.044 7 -13722042.18022
  20175296.730   -21520804.044 7 -16668521.34522
 91  3 28  2  1 59.9990000  0  4G15G 2G13G 6
  23766419.2694   -1607485.81545   1860869.60761
  21025408.706   -14515271.570 7 -11310517.50423
  20328188.964   -18422895.028 7 -13737903.16122
  20175781.2374  -21518253.00347 -16666533.50862
 91  3 28  2  2 14.9990000  0  4G15G 2G13G 6
  23771521.690    -1580672.115 5   1881763.38321
  21028051.972   -14501386.013 7 -11299697.56923
  20324342.628   -18443107.291 7 -13753652.93222
  20176293.089   -21515570.111 7 -16664442.92823
 91  3 28  2  2 29.9990000  0  4G15G 2G13G 6
  23776647.6514   -1553728.40945   1902758.49161
  21030703.612   -14487449.635 7 -11288838.03723
  20320523.612   -18463175.076 7 -13769290.11722
  20176829.862   -21512753.590 7 -16662248.21922
 91  3 28  2  2 44.9990000  0  4G15G 2G13G 6
  23781799.1284   -1526651.42045   1923857.47461
  21033365.1674  -14473459.16247 -11277936.36563
  20316733.042   -18483095.193 7 -13784812.23522
  20177391.097   -21509800.036 7 -16659946.73522
 91  3 28  2  2 59.9990000  0  4G15G 2G13G 6
  23786977.870    -1499447.564 5   1945055.33321
  21036035.737   -14459420.451 7 -11266997.08923
  20312970.495   -18502873.674 7 -13800223.99322
  20177977.058   -21506715.248 7 -16657542.99422
 91  3 28  2  3 14.9990000  0  4G15G 2G13G 6
  23792177.9874   -1472115.22645   1966353.30361
  21038718.487   -14445331.865 7 -11256018.95923
  20309233.214   -18522508.541 7 -13815523.83722
  20178588.940   -21503497.410 7 -16655035.57123
 91  3 28  2  3 29.9990000  0  4G15G 2G13G 6
  23797404.417    -1444655.567 5   1987750.44621
  21041407.706   -14431194.246 7 -11245002.61723
  20305523.862   -18542000.870 7 -13830712.62222
  20179227.362   -21500147.214 7 -16652425.01623
 91  3 28  2  3 44.9990000  0  4G15G 2G13G 6
  23802654.8864   -1417066.04545   2009248.77961
  21044107.800   -14417004.714 7 -11233945.82623
  20301841.073   -18561347.640 7 -13845787.97622
  20179891.183   -21496661.634 7 -16649708.96323
 91  3 28  2  3 59.9990000  0  4G15G 2G13G 6
  23807928.3624   -1389348.40345   2030846.93361
  21046817.862   -14402764.889 7 -11222849.84423
  20298185.730   -18580550.687 7 -13860751.33722
  20180579.940   -21493042.215 7 -16646888.61923
 91  3 28  2  4 14.9990000  0  3G 2G13G 6
  21049536.6054  -14388475.02347 -11211714.87263
  20294560.800   -18599610.225 7 -13875602.87822
  20181295.081   -21489289.153 7 -16643964.13722
 91  3 28  2  4 29.9990000  0  3G 2G13G 6
  21052266.183   -14374134.145 7 -11200540.14923
  20290960.151   -18618525.274 7 -13890341.82322
  20182033.120   -21485401.169 7 -16640934.52222
 91  3 28  2  4 44.9990000  0  3G 2G13G 6
  21055005.300   -14359745.863 7 -11189328.48323
  20287388.605   -18637299.508 7 -13904971.04922
  20182797.519   -21481382.064 7 -16637802.73622
 91  3 28  2  4 59.9990000  0  3G 2G13G 6
  21057751.940   -14345306.473 7 -11178076.98923
  20283843.315   -18655929.282 7 -13919487.70622
  20183589.425   -21477227.918 7 -16634565.72522
 91  3 28  2  5 14.9990000  0  3G 2G13G 6
  21060508.019   -14330820.846 7 -11166789.47623
  20280325.011   -18674419.477 7 -13933895.60122
  20184404.862   -21472943.382 7 -16631227.11022
 91  3 28  2  5 29.9990000  0  3G 2G13G 6
  21063275.815   -14316281.941 7 -11155460.44023
  20276834.745   -18692762.890 7 -13948189.12022
  20185245.972   -21468521.371 7 -16627781.36822
 91  3 28  2  5 44.9990000  0  3G 2G13G 6
  21066050.808   -14301695.405 7 -11144094.29423
  20273371.456   -18710965.374 7 -13962372.82722
  20186113.769   -21463967.423 7 -16624232.82022
 91  3 28  2  5 59.9990000  0  3G 2G13G 6
  21068835.167   -14287062.753 7 -11132692.21123
  20269933.323   -18729028.257 7 -13976447.75122
  20187003.675   -21459282.906 7 -16620582.53022
 91  3 28  2  6 14.9990000  0  3G 2G13G 6
  21071629.495   -14272379.171 7 -11121250.43923
  20266523.042   -18746946.946 7 -13990410.31522
  20187921.065   -21454463.006 7 -16616826.74422
 91  3 28  2  6 29.9990000  0  3G 2G13G 6
  21074431.956   -14257648.087 7 -11109771.65723
  20263139.722   -18764724.755 7 -14004263.10422
  20188863.956   -21449511.002 7 -16612968.02222
 91  3 28  2  6 44.9990000  0  3G 2G13G 6
  21077244.558   -14242869.303 7 -11098255.70623
  20259784.425   -18782361.776 7 -14018006.18822
  20189830.347   -21444426.597 7 -16609006.13122
 91  3 28  2  6 59.9990000  0  3G 2G13G 6
  21080065.901   -14228040.420 7 -11086700.71323
  20256454.667   -18799855.462 7 -14031637.58322
  20190824.269   -21439207.128 7 -16604938.99522
 91  3 28  2  7 14.9990000  0  3G 2G13G 6
  21082898.480   -14213160.864 7 -11075106.23523
  20253153.159   -18817205.182 7 -14045156.79622
  20191845.308   -21433851.932 7 -16600766.09922
 91  3 28  2  7 29.9990000  0  3G 2G13G 6
  21085739.050   -14198229.223 7 -11063471.17523
  20249878.558   -18834409.493 7 -14058562.70022
  20192890.323   -21428359.553 7 -16596486.29922
 91  3 28  2  7 44.9990000  0  3G 2G13G 6
  21088589.597   -14183247.094 7 -11051796.77123
  20246634.565   -18851470.464 7 -14071856.91822
  20193959.034   -21422731.616 7 -16592100.88822
